GFSSGP_700_spd_000.txt.gz
Wind_Speed
17 18 21 22 23 25 26 22 19 16 12 12 11 10 13 14 11 19 28 26 25 26 26 23 24 24 23 21 19 18 18 17 16 16 18 18 14 11 12 12 13 12 11 9 7 6 5 5 4
15 21 24 17 26 27 22 19 18 16 15 13 15 11 12 20 22 27 27 26 25 24 24 23 23 22 21 19 18 16 16 16 15 15 15 14 12 11 11 11 10 9 8 7 6 5 4 4 4
12 12 13 21 23 26 20 15 17 17 12 9 20 21 22 24 24 25 25 25 23 23 22 21 21 21 20 18 16 16 16 15 15 14 14 13 11 10 10 8 7 6 5 5 5 5 4 4 4
8 11 16 21 21 18 19 15 15 15 16 17 21 24 24 22 21 22 23 23 22 21 20 20 19 18 17 15 14 15 15 14 14 14 13 11 11 12 10 7 5 3 3 2 2 2 2 3 3
9 11 16 17 17 17 16 13 9 12 12 12 17 25 25 21 20 19 20 22 20 19 19 18 17 16 15 14 14 14 14 14 13 13 12 12 11 11 10 7 4 2 1 1 3 3 3 2 3
10 7 15 16 14 13 12 12 12 13 16 16 18 22 25 22 18 19 19 20 19 17 17 17 16 14 12 12 12 12 12 11 11 11 11 10 9 8 7 5 4 4 4 4 6 7 7 6 5
7 6 14 14 12 10 9 10 10 13 14 15 13 16 21 23 20 17 17 18 18 17 16 16 16 14 12 12 11 10 11 10 9 9 8 8 6 5 5 5 5 6 6 7 8 8 8 8 8
5 8 10 9 10 10 9 10 11 10 9 8 13 5 12 19 20 17 15 15 15 15 14 12 12 12 11 10 10 9 9 9 8 7 6 5 4 5 5 6 7 8 9 9 10 10 9 8 8
12 8 10 9 8 8 10 8 7 6 6 5 7 11 10 11 17 16 14 13 14 14 14 12 12 10 10 9 9 8 7 6 6 5 4 4 4 5 5 6 8 9 10 11 11 11 12 9 8
7 8 6 8 8 7 8 6 4 4 4 3 6 11 12 11 13 16 13 11 11 11 11 11 10 9 8 8 8 7 6 6 5 4 4 4 4 5 6 7 9 10 10 11 13 11 11 12 9
5 8 9 8 8 9 9 8 6 4 2 4 6 10 12 11 11 14 14 12 11 11 10 8 9 8 7 7 6 7 7 7 7 6 5 5 5 6 7 8 9 10 11 11 12 12 12 10 11
8 11 11 11 10 13 12 10 4 5 6 7 13 14 12 11 12 13 13 11 11 11 9 8 8 8 8 7 7 7 7 7 7 7 7 5 6 6 8 9 10 9 10 11 11 13 13 13 12
9 14 13 12 13 14 14 12 8 6 7 9 15 14 13 11 10 10 11 11 11 10 9 9 9 9 8 8 7 8 8 9 9 7 7 6 7 8 9 10 10 9 10 11 13 14 14 15 14
13 16 15 13 14 14 14 13 10 10 11 9 12 12 12 11 11 11 11 10 10 10 10 10 10 9 9 8 8 8 8 9 10 10 9 8 8 9 10 11 10 10 10 14 15 16 17 17 17
15 16 14 13 11 15 12 14 15 12 11 10 11 12 12 11 10 9 9 9 8 9 9 9 7 8 8 8 8 8 10 10 11 11 12 12 11 11 11 14 14 14 15 16 17 19 21 21 20
14 13 13 12 13 10 5 10 16 12 10 12 11 11 11 10 8 10 10 10 9 8 6 5 5 6 7 8 9 10 12 12 12 13 15 14 14 13 15 17 19 19 20 21 22 23 23 23 24
16 17 13 13 12 6 3 11 13 12 11 11 13 12 10 9 11 12 11 10 7 7 5 3 2 4 7 9 10 11 13 13 13 14 15 17 18 18 20 21 22 23 27 26 26 26 28 28 27
18 14 15 13 14 9 4 7 14 12 12 11 12 14 14 14 13 14 14 13 11 7 3 2 4 6 8 10 12 13 14 15 17 18 19 20 22 23 24 24 25 26 28 30 32 32 31 32 31
15 19 15 13 10 10 8 10 13 14 13 13 13 13 14 15 16 15 13 11 9 6 3 5 8 10 11 12 14 16 17 18 18 20 22 24 26 27 28 30 32 34 36 36 36 37 36 32 32
15 17 14 12 12 13 10 11 12 16 16 16 16 15 14 12 11 12 11 10 9 8 11 11 9 6 6 10 13 17 19 21 23 26 28 31 33 35 36 38 39 40 40 38 34 33 32 33 31
17 17 16 14 14 14 11 13 15 16 19 21 19 19 18 14 13 13 14 10 10 7 7 9 10 10 10 12 12 15 18 20 23 25 27 29 29 32 35 37 38 38 37 34 32 28 28 30 30
16 14 16 18 17 19 19 16 19 20 21 22 24 25 24 20 15 15 16 12 8 3 4 6 11 13 16 18 19 17 18 19 22 25 26 26 27 27 28 29 30 31 29 29 29 27 25 28 30
5 7 11 16 18 10 13 14 3 14 23 25 24 25 26 24 22 18 17 15 10 5 2 5 9 14 19 25 25 23 19 20 20 21 22 23 25 25 26 27 26 25 26 25 27 26 26 26 29
9 10 10 12 12 15 16 17 18 13 18 21 24 25 27 28 25 23 22 18 15 9 7 6 8 13 20 27 30 23 18 17 18 20 21 22 24 26 27 28 28 28 24 23 26 27 26 26 29
12 15 13 11 10 13 4 11 20 8 12 15 22 25 28 28 30 28 26 20 18 13 11 9 9 15 21 29 33 26 18 15 16 15 16 17 18 20 22 23 25 28 28 25 25 28 29 29 30
17 17 9 7 9 8 3 9 12 10 14 17 16 22 28 31 31 30 27 24 22 19 15 13 12 16 23 31 33 25 18 17 17 17 18 21 21 21 21 19 20 22 25 27 26 28 30 30 31
17 15 9 3 7 11 11 8 13 5 4 7 16 21 29 34 32 28 27 26 24 23 19 15 14 17 25 34 29 25 19 17 18 19 21 22 22 22 20 18 19 20 22 24 26 27 30 32 32
13 16 13 15 6 9 7 8 5 2 7 7 10 18 27 33 30 27 26 26 26 26 21 18 14 18 28 32 29 25 19 18 19 20 20 20 20 19 16 20 22 22 24 25 23 24 25 29 29
20 19 15 8 6 9 6 4 5 4 2 3 7 8 19 28 30 27 26 27 28 27 22 19 15 19 28 32 30 24 18 19 21 20 19 19 18 16 18 21 20 18 19 20 21 22 23 25 27
20 21 20 18 13 11 12 13 2 6 5 6 5 9 13 15 22 26 27 29 29 27 24 19 17 21 25 32 32 22 20 20 22 21 19 18 17 17 21 19 18 18 20 22 22 23 23 25 28

GFSSGP_700_spd_003.txt.gz
Wind_Speed
16 19 18 24 21 23 24 18 18 14 13 11 9 11 11 14 9 15 23 22 22 23 24 23 25 25 24 22 20 19 17 16 17 17 16 13 12 14 15 13 12 11 10 10 9 7 4 4 5
15 12 13 12 23 27 26 20 19 16 14 14 14 12 16 15 15 27 25 23 24 24 22 22 22 21 20 19 18 17 16 16 17 16 14 11 12 13 12 11 8 7 7 7 6 4 4 4 5
10 13 9 22 25 26 25 19 17 14 12 11 17 14 14 21 19 23 24 23 22 22 21 20 20 19 18 16 16 16 15 14 15 14 11 10 12 12 11 9 7 5 4 4 4 3 4 5 6
13 18 17 26 26 22 18 15 16 18 17 14 16 20 22 18 18 22 23 22 21 20 20 19 19 18 16 15 15 15 14 13 13 12 11 10 10 10 8 6 5 4 3 2 3 4 5 6 6
6 5 20 24 22 19 15 13 13 14 14 15 15 24 19 18 20 20 21 18 18 17 18 17 16 15 14 12 13 13 12 12 11 10 9 9 8 7 5 3 1 1 2 4 4 6 7 8 8
8 9 17 21 19 16 15 13 13 15 14 15 22 21 19 20 19 20 19 18 15 14 15 15 15 13 12 11 11 11 11 10 10 9 8 7 6 4 3 2 3 4 5 7 8 8 8 9 9
9 7 18 16 15 15 10 12 11 14 17 18 14 18 21 20 18 20 14 17 10 16 15 14 14 13 13 12 11 9 9 8 8 7 6 5 4 2 2 4 5 7 8 9 11 11 9 9 9
4 10 6 13 17 14 10 11 11 10 14 13 10 4 16 20 20 19 13 18 15 15 14 13 12 10 10 11 11 9 8 7 7 6 4 3 2 3 4 6 8 9 10 10 11 13 11 10 9
5 6 11 12 12 13 10 9 7 10 11 8 3 9 10 13 19 18 16 19 15 17 15 13 13 13 10 9 9 8 8 7 7 6 5 5 3 6 6 6 8 9 11 12 12 14 13 12 11
1 1 10 11 8 12 9 9 7 5 7 9 13 15 13 11 14 17 17 13 14 13 14 11 12 11 10 8 10 10 9 9 8 8 7 6 6 4 6 8 9 9 9 10 12 13 13 13 11
7 13 8 6 10 10 9 8 4 5 9 11 7 13 14 13 11 16 16 14 13 12 12 12 12 11 10 12 10 11 11 9 8 8 8 6 6 9 4 7 9 8 11 9 11 11 11 12 8
4 6 7 10 11 12 10 6 4 2 14 12 10 12 13 12 10 10 14 13 13 10 11 10 10 8 7 9 10 9 4 11 12 8 10 8 6 9 8 9 9 11 12 10 10 12 13 12 13
8 7 9 12 11 11 8 8 10 10 7 9 13 12 13 13 12 11 12 13 12 11 10 11 12 11 9 8 8 9 8 11 12 12 11 9 9 8 9 8 10 10 12 13 14 14 16 14 14
8 11 12 13 11 9 8 10 9 13 10 11 12 13 12 12 12 13 14 15 14 12 11 10 10 10 10 11 9 9 12 11 14 14 12 11 11 11 11 10 9 11 12 12 14 17 19 20 21
14 16 12 11 10 9 9 11 12 15 14 13 13 12 10 10 11 11 11 13 14 12 9 8 8 8 10 9 10 10 11 11 11 13 13 13 13 13 13 14 12 12 13 15 16 18 21 21 21
17 13 17 11 9 10 4 9 11 13 13 14 13 12 11 10 8 8 10 10 10 12 10 9 9 7 8 9 10 10 11 11 12 15 16 16 16 15 17 18 18 20 23 23 26 24 25 26 25
21 16 15 12 10 8 8 13 13 12 11 14 13 12 10 9 8 8 10 10 10 11 8 6 5 5 4 7 9 10 11 12 13 15 17 17 17 18 20 21 21 21 22 23 24 26 29 31 30
20 21 15 13 12 8 15 11 15 13 10 13 14 13 11 9 11 11 10 9 8 6 4 3 6 6 7 7 9 10 12 13 15 15 17 19 19 21 22 24 24 24 26 27 29 32 34 35 35
13 15 18 9 11 10 7 10 11 13 11 13 14 15 14 13 13 13 13 10 8 7 2 2 3 5 6 10 12 14 16 17 18 19 19 22 24 25 26 29 31 33 35 37 37 36 35 32 31
14 16 14 12 11 10 10 10 11 15 14 14 16 17 16 17 16 13 9 8 6 6 7 7 6 4 4 6 10 14 17 21 23 24 26 27 30 31 33 34 35 35 36 34 31 29 29 29 26
19 18 18 12 13 13 13 14 14 17 17 17 17 17 17 19 19 16 12 9 9 8 7 7 8 7 7 10 12 12 13 17 18 18 21 27 28 29 30 31 31 31 32 34 30 26 26 26 25
21 18 16 14 12 20 20 20 20 18 21 22 21 21 21 20 19 18 17 11 12 9 7 4 3 5 9 14 18 16 15 16 20 20 23 21 23 23 24 25 25 26 27 28 26 26 25 24 24
12 17 15 16 18 19 17 20 23 18 25 26 25 24 24 22 21 20 19 18 15 7 5 2 3 7 12 18 23 25 21 16 18 18 19 19 21 21 23 24 25 25 26 25 23 24 26 23 24
11 10 10 14 16 20 21 14 19 22 29 22 23 26 26 26 24 22 21 22 19 10 7 6 6 9 14 21 28 29 20 15 15 18 19 19 20 22 23 21 23 25 27 28 25 22 25 25 25
15 15 14 12 15 15 11 17 14 8 7 13 21 26 30 29 27 26 25 27 25 18 12 10 11 11 16 23 31 28 22 16 14 14 17 18 19 21 23 21 20 21 22 23 25 24 24 24 24
20 18 19 7 10 14 10 11 21 19 13 8 14 22 26 29 29 29 28 31 27 24 19 15 15 14 16 23 29 29 24 19 16 17 17 19 21 21 20 20 18 18 17 17 19 21 23 22 25
19 22 20 17 7 14 7 12 14 11 10 11 14 16 23 29 29 30 30 32 29 27 23 22 20 17 16 23 28 32 29 20 17 18 19 21 21 21 20 18 18 20 19 19 19 19 19 20 23
11 16 15 13 8 10 11 8 10 11 7 9 11 14 19 27 31 30 31 34 29 29 25 25 24 20 15 21 28 36 35 22 18 19 21 21 20 18 17 18 22 20 19 19 21 20 24 24 23
23 16 20 18 13 7 6 6 12 7 6 5 7 10 16 23 31 28 31 31 30 30 29 27 26 23 17 21 26 31 36 26 23 23 23 21 20 19 19 20 21 20 20 21 23 21 25 25 25
27 24 22 20 15 14 15 7 6 3 3 4 7 9 9 17 26 27 30 30 30 29 31 30 28 25 20 24 27 30 37 27 25 22 21 20 19 19 20 21 23 23 23 23 21 21 24 27 28

GFSSGP_700_spd_006.txt.gz
Wind_Speed
8 7 10 10 3 21 21 19 16 16 14 18 25 12 9 14 17 19 23 23 21 23 23 25 25 24 24 22 21 18 17 18 18 16 15 14 16 15 14 14 14 13 11 10 8 7 6 6 6
5 5 11 7 17 26 22 18 19 15 14 18 19 22 15 20 16 29 23 23 24 25 25 23 23 22 21 20 18 17 16 17 16 14 13 13 14 14 13 13 13 12 9 7 6 6 5 6 6
11 9 4 20 22 25 21 16 15 14 13 15 20 20 18 21 21 28 24 24 24 25 23 21 20 19 18 17 17 16 16 15 13 12 11 12 13 12 12 11 10 9 8 7 7 7 7 8 7
8 4 7 22 23 19 17 18 19 19 14 17 20 24 21 8 23 23 23 20 20 21 21 19 17 16 15 15 15 15 14 13 12 10 10 11 10 9 10 9 8 7 5 5 6 7 8 9 9
1 14 21 24 22 18 19 18 16 17 18 16 17 25 23 8 21 21 21 18 17 18 18 17 16 14 14 14 13 13 12 11 10 9 8 8 7 6 6 5 5 5 5 5 6 7 8 9 9
6 4 16 22 22 19 15 13 16 17 18 20 21 25 23 16 21 21 17 16 15 15 16 16 15 14 14 13 12 11 11 10 10 9 8 7 6 4 3 3 4 6 7 8 8 9 10 10 10
2 7 15 25 25 14 16 14 14 18 21 19 16 24 22 16 17 14 17 10 14 15 14 13 13 12 12 12 11 10 9 9 8 7 7 6 4 3 0 2 4 6 8 9 10 9 10 10 11
16 13 11 10 22 22 15 11 14 16 15 15 10 9 23 21 18 11 15 11 9 12 13 12 11 11 10 9 9 9 7 7 6 5 4 3 2 1 3 5 4 5 8 10 11 11 10 10 10
16 16 12 10 14 19 14 17 15 13 17 9 1 5 14 23 21 10 11 13 13 14 12 11 10 10 9 8 7 7 7 6 6 5 4 4 4 11 3 5 8 4 8 10 11 12 11 11 10
4 9 11 7 13 19 12 14 14 11 12 12 11 16 14 18 24 10 18 11 12 13 13 11 9 9 9 9 8 8 7 7 6 5 5 6 5 7 9 4 4 7 9 11 11 12 12 12 11
4 8 6 13 11 11 17 12 4 11 15 16 10 13 14 16 20 20 6 12 14 14 12 8 8 7 7 6 7 7 7 7 8 8 6 7 6 8 8 8 7 10 9 9 11 10 13 12 10
3 10 8 9 5 17 12 9 12 1 20 14 10 10 12 12 13 17 17 13 15 15 11 12 11 11 9 12 8 7 7 7 6 9 8 8 9 9 9 7 8 10 13 11 11 13 12 12 15
7 9 8 8 13 13 12 15 14 17 18 14 12 11 11 13 14 13 14 14 12 12 17 15 12 11 8 8 9 7 10 10 12 11 11 11 11 11 10 8 9 9 9 10 10 12 14 15 15
8 8 10 12 6 6 13 11 14 15 17 12 15 13 12 13 12 12 13 13 13 12 12 9 8 9 9 8 6 7 6 5 11 13 14 12 12 12 12 11 12 11 10 9 12 14 16 17 18
10 11 10 8 15 17 11 12 13 15 15 16 15 13 12 12 12 12 12 13 11 9 8 7 6 6 8 7 7 8 8 11 13 12 13 14 14 14 15 17 15 16 16 17 20 21 21 21 20
13 15 14 15 14 12 7 8 10 12 12 11 11 10 9 11 11 12 13 14 12 12 11 8 8 7 6 6 7 8 9 11 12 14 15 14 13 15 18 17 17 18 20 20 21 22 23 23 25
18 19 19 15 10 8 8 11 11 11 11 12 14 13 12 8 9 11 10 10 10 10 10 9 7 4 4 6 7 9 10 12 15 14 14 16 17 17 19 19 21 22 23 23 23 24 26 27 31
20 20 24 16 16 12 16 12 13 14 12 14 15 14 14 11 11 10 8 12 11 10 10 6 5 4 5 7 8 10 11 13 14 16 17 16 20 20 21 22 24 25 25 26 30 34 35 36 34
16 14 17 11 19 22 12 20 20 17 13 14 16 15 14 13 15 12 7 3 2 5 8 7 7 8 7 8 10 12 15 16 18 19 21 20 24 25 26 29 30 33 34 32 33 30 30 29 26
20 12 15 17 14 13 12 16 18 18 16 15 17 17 17 17 19 12 14 15 11 12 3 4 5 3 2 4 7 10 12 16 19 21 23 24 27 27 25 28 29 30 31 30 30 27 24 23 23
20 16 13 18 14 9 11 17 21 14 17 17 18 18 19 22 20 13 9 8 10 8 5 5 6 6 7 11 13 15 14 13 15 18 12 22 22 24 23 23 23 24 25 26 27 24 23 23 21
23 17 18 20 14 17 19 22 27 25 20 20 22 22 22 23 21 19 15 12 12 8 7 4 2 4 7 11 18 22 20 15 17 19 21 18 21 20 20 21 21 21 22 22 22 22 22 24 23
20 18 19 16 17 19 18 17 25 24 24 24 26 26 24 23 23 22 19 17 17 10 8 6 3 2 6 12 20 25 21 17 16 16 13 14 16 16 17 17 18 20 21 22 21 20 19 20 23
20 12 19 15 18 24 24 18 13 21 30 34 23 26 26 25 23 23 22 23 21 20 10 6 3 4 7 11 18 24 25 21 18 16 16 17 19 21 23 21 22 21 21 21 20 18 15 16 18
20 17 13 12 15 16 22 24 21 19 21 22 21 29 30 26 26 25 26 27 27 27 15 6 5 7 10 12 18 26 29 27 22 17 16 16 19 22 25 22 21 19 18 18 18 16 16 17 17
22 21 17 13 11 17 17 12 25 12 16 11 17 26 25 30 31 30 28 31 34 35 26 15 13 12 13 14 18 25 29 32 27 21 17 18 21 23 25 22 20 19 19 19 19 18 19 18 19
20 26 24 24 19 10 10 14 15 15 12 11 9 14 25 22 30 32 31 34 37 40 35 25 20 18 18 18 19 23 29 30 33 24 22 23 25 24 26 21 19 19 20 18 15 15 17 16 19
23 19 19 24 10 11 12 14 19 21 14 9 8 13 14 20 29 34 30 34 39 41 38 32 25 22 21 22 20 23 30 31 33 30 26 25 24 23 22 21 22 23 22 21 22 21 21 21 21
28 20 17 19 19 10 10 6 15 14 11 9 7 8 10 14 19 25 29 33 39 40 41 35 27 25 24 24 21 21 28 32 34 37 30 27 26 24 21 21 23 24 24 23 24 23 22 23 25
27 24 16 19 14 15 16 8 13 11 10 12 9 6 8 12 15 29 28 32 39 41 42 41 27 28 27 26 23 22 25 30 35 39 34 29 26 24 25 25 25 26 26 25 26 24 24 24 26

GFSSGP_700_spd_009.txt.gz
Wind_Speed
8 10 7 11 6 15 23 27 26 21 25 24 22 19 20 20 14 22 26 25 25 26 25 25 26 25 25 24 21 21 22 22 20 18 18 19 19 18 16 15 14 13 12 10 9 8 9 9 9
9 6 10 5 11 27 21 23 24 25 25 27 20 11 23 15 9 29 26 25 26 26 25 23 24 23 21 19 18 19 19 18 16 16 16 17 17 16 15 14 13 12 11 11 10 9 9 9 10
10 3 4 8 24 29 21 21 27 25 26 23 18 15 21 27 25 28 25 26 26 25 23 22 21 19 17 17 17 16 15 14 14 14 15 15 15 14 12 11 11 10 10 9 8 9 9 9 10
9 10 9 20 23 24 24 21 16 12 13 18 15 26 23 20 24 24 25 25 24 23 21 20 18 17 16 15 15 14 13 12 11 12 12 13 12 10 10 9 9 8 7 7 7 8 8 8 9
8 11 10 24 27 21 21 21 18 23 19 8 9 22 26 22 22 23 23 22 21 21 20 18 16 16 16 15 15 14 13 12 11 10 10 9 8 7 6 6 7 7 7 7 8 9 9 9 9
10 11 8 25 27 26 23 20 11 12 10 15 12 23 26 21 20 21 21 20 19 17 18 16 15 15 15 14 13 12 11 10 9 9 9 8 6 4 3 4 5 5 6 7 8 9 9 9 10
22 15 9 12 27 25 24 11 5 16 15 13 13 23 25 22 19 20 20 19 17 16 16 15 14 14 13 13 12 11 11 10 9 8 7 6 3 2 5 5 6 6 5 7 7 7 9 9 9
14 7 15 12 9 24 20 9 11 10 10 13 9 15 20 21 16 16 20 17 17 15 15 14 13 13 12 11 10 10 9 9 8 7 6 5 2 6 6 6 5 5 8 8 9 10 10 10 9
8 6 2 19 20 19 23 19 18 9 13 8 8 4 17 20 16 10 16 14 16 14 13 13 11 11 10 10 8 8 7 7 7 6 4 3 1 1 5 7 2 5 8 9 10 11 11 10 9
10 4 14 14 29 23 25 23 21 15 15 9 5 16 18 13 8 6 14 13 14 13 12 10 8 8 8 7 6 5 4 4 5 5 5 4 3 3 4 8 5 6 11 10 10 11 10 12 6
17 15 26 20 19 13 19 22 12 19 12 10 5 18 24 17 10 8 9 9 13 11 11 10 9 8 6 5 2 4 4 5 5 6 6 5 5 6 5 6 6 8 8 6 6 10 11 12 11
12 14 16 24 23 16 12 1 9 14 17 11 5 10 22 22 13 11 10 10 10 10 15 11 8 7 7 7 8 9 7 8 8 8 10 6 7 6 10 8 9 9 10 9 9 10 11 12 15
16 17 13 22 21 12 10 17 21 28 17 13 11 11 14 19 22 12 10 8 10 10 6 9 8 6 6 7 3 5 5 6 7 6 11 9 10 9 9 9 9 10 10 8 6 8 10 12 13
8 11 15 16 12 10 8 16 21 22 19 13 13 12 12 12 14 20 15 12 11 15 11 8 9 7 5 3 3 6 6 7 6 8 10 12 11 10 9 8 10 11 11 11 13 14 16 17 18
10 17 19 11 19 13 5 16 12 17 15 16 14 12 12 9 10 9 10 9 9 12 9 6 7 6 5 4 4 6 8 8 10 12 10 11 13 13 11 12 13 15 15 16 17 18 17 16 17
15 16 17 24 21 19 4 21 13 13 13 13 10 8 9 10 11 11 11 11 10 11 9 8 8 8 6 5 5 5 7 10 12 13 14 14 14 12 11 14 16 17 19 20 22 22 23 21 23
17 20 22 23 20 14 7 21 13 16 15 9 12 14 13 9 12 11 9 12 12 12 11 10 7 5 8 7 7 8 8 10 13 13 15 16 16 13 15 15 17 19 19 21 22 23 28 31 31
23 22 23 23 20 14 12 15 19 18 16 12 16 15 14 14 12 9 8 10 13 12 10 9 9 10 7 5 7 8 9 10 13 15 14 16 16 20 20 19 20 24 26 28 29 28 27 27 28
26 27 22 14 16 16 16 21 20 19 17 17 22 21 19 15 9 7 6 5 10 9 9 9 10 4 2 4 7 9 11 14 16 17 18 19 20 21 24 24 25 28 29 29 28 26 24 22 23
26 23 28 22 29 15 21 23 20 28 22 16 22 22 19 15 13 13 6 2 5 8 5 3 3 3 5 7 7 10 11 11 15 19 20 20 20 20 19 17 18 21 21 21 23 23 21 17 19
26 22 23 26 27 18 21 27 32 14 28 27 19 23 18 20 16 11 9 4 3 5 6 6 6 7 7 7 11 16 16 14 15 17 17 16 14 18 19 19 18 19 19 21 22 21 20 20 15
25 18 15 9 30 26 31 18 35 24 27 32 24 26 19 26 24 18 14 12 8 8 8 8 6 6 4 5 13 20 23 21 16 16 16 14 16 16 18 18 18 19 20 22 21 21 19 20 18
23 19 13 22 18 26 33 16 19 24 30 31 27 27 24 27 28 19 18 16 13 12 10 8 7 5 2 8 14 20 24 25 21 16 11 13 16 16 17 16 16 18 18 20 20 19 16 17 17
18 17 17 19 23 12 15 23 16 36 35 31 30 31 30 28 29 26 18 18 18 14 12 10 6 3 2 7 10 16 22 27 26 21 17 15 17 19 19 22 23 22 19 17 18 17 16 13 15
19 20 12 4 7 10 28 29 23 30 28 23 33 34 32 32 30 29 25 24 24 24 15 11 9 6 4 4 7 13 19 25 28 27 22 20 21 23 24 25 23 21 19 16 17 17 16 16 17
26 27 10 7 4 17 27 23 20 23 24 16 22 28 24 38 35 32 28 26 27 29 28 19 13 10 10 10 10 13 18 24 28 30 29 25 23 25 26 24 22 20 18 18 16 15 16 17 16
31 32 22 25 23 16 12 26 24 16 18 22 26 22 23 40 37 33 30 30 32 34 30 29 24 23 19 16 14 14 16 22 28 31 32 32 26 24 24 23 22 20 19 19 19 17 17 19 20
30 31 23 25 2 6 12 11 5 26 27 25 22 21 21 25 40 36 30 30 33 38 36 33 31 29 28 27 19 17 15 18 24 28 33 34 29 25 23 22 21 21 21 21 21 20 19 21 21
23 30 23 26 24 7 2 4 3 25 20 16 14 13 10 27 30 45 28 30 42 37 43 36 35 32 32 28 26 22 19 18 21 26 29 33 29 24 21 21 21 20 20 21 23 22 21 22 22
34 26 27 20 11 8 11 7 13 18 19 19 18 17 18 19 17 23 29 25 31 34 44 34 34 31 29 27 31 26 22 20 22 26 30 34 31 26 22 22 20 20 20 22 23 23 23 24 24

GFSSGP_700_spd_012.txt.gz
Wind_Speed
14 8 6 11 8 13 21 15 19 32 23 17 20 18 19 16 11 22 28 26 25 27 27 25 26 26 26 23 25 25 22 20 20 21 21 21 19 18 17 16 15 13 11 10 10 9 9 9 10
1 5 8 16 20 22 20 20 26 22 20 19 15 18 17 11 14 30 29 27 25 25 25 25 24 23 21 21 23 22 20 19 19 20 20 19 18 17 16 14 13 12 11 10 9 9 9 9 9
9 8 13 11 10 32 31 18 22 21 18 11 17 17 11 24 25 28 27 28 26 25 24 24 21 20 19 21 21 19 18 17 17 18 18 17 16 15 13 12 10 9 8 8 8 8 8 8 7
10 3 11 19 27 23 21 15 14 18 17 12 17 20 24 21 20 24 27 26 24 23 21 19 19 18 18 18 18 17 14 14 14 15 15 14 13 12 11 9 7 6 7 8 8 8 8 8 8
8 10 13 28 30 26 17 11 9 15 16 9 18 26 25 22 22 21 23 22 19 19 19 17 17 16 15 15 15 14 13 12 12 12 11 10 9 8 7 5 4 5 6 6 6 6 7 8 8
18 20 20 20 26 26 18 11 13 10 11 13 19 24 27 22 22 22 21 20 18 16 16 15 16 15 14 13 13 13 12 12 11 11 9 8 6 5 4 3 3 3 4 4 5 6 7 8 8
21 23 15 24 31 25 15 8 16 21 20 16 18 20 27 24 22 20 20 19 18 16 15 14 14 14 13 13 12 12 11 10 9 8 7 6 5 3 1 1 3 3 5 6 7 7 8 7 7
14 9 8 20 28 25 15 11 9 12 18 19 6 13 25 24 23 22 20 18 16 15 14 13 13 12 11 10 10 9 8 8 8 7 6 5 4 3 4 8 1 3 6 7 7 8 8 9 7
10 9 8 19 24 22 17 11 11 10 13 10 12 9 20 24 22 21 20 20 18 16 15 13 12 13 12 10 9 8 7 7 6 6 5 3 2 3 3 5 4 5 6 8 7 8 8 10 6
7 2 9 17 16 26 20 8 11 9 12 11 8 14 19 19 17 18 19 17 17 14 13 13 12 12 12 11 10 9 8 7 7 6 4 4 4 4 4 6 5 7 8 7 8 8 7 7 7
19 13 20 24 22 23 18 13 13 9 6 1 4 11 14 14 15 12 15 11 13 15 14 13 12 10 10 9 9 9 8 8 7 6 6 6 6 4 4 5 6 6 6 6 6 5 5 7 7
16 21 29 25 25 20 16 15 16 12 5 2 4 8 8 11 10 10 12 14 16 14 13 12 11 10 10 11 7 7 8 9 7 7 8 8 7 6 4 4 6 5 5 4 4 4 6 7 9
17 31 34 25 21 17 11 19 18 15 11 7 4 9 8 9 10 9 9 7 9 11 12 12 11 11 9 5 1 3 7 9 7 9 9 9 9 6 6 7 6 8 7 7 6 8 11 12 12
33 38 32 20 18 10 5 19 22 18 14 10 8 10 11 11 11 10 8 7 7 8 6 8 6 6 5 5 2 3 3 4 6 4 6 8 7 7 8 8 9 10 11 11 12 14 14 15 13
26 30 29 23 14 7 4 18 15 22 15 11 13 15 17 14 12 11 8 6 7 8 7 6 7 7 9 7 4 5 7 7 8 9 11 11 10 9 9 10 11 12 14 14 15 17 18 17 17
37 27 32 25 15 10 1 15 14 18 17 13 14 13 13 13 11 10 8 9 9 11 11 11 9 8 7 7 6 7 9 9 10 11 13 13 13 10 7 9 12 15 15 17 18 19 19 18 20
38 35 27 30 18 11 9 17 10 11 13 14 11 9 9 7 8 9 9 9 11 13 13 11 10 9 11 10 9 8 9 11 11 11 13 14 12 14 13 13 14 16 18 19 22 25 26 26 25
28 27 28 30 26 19 14 9 13 13 13 13 9 9 7 6 6 7 8 11 12 14 12 10 10 12 10 10 8 8 9 11 12 13 15 16 14 16 15 21 20 20 22 25 26 25 24 23 22
11 28 33 28 28 25 18 14 10 11 11 11 9 7 10 10 5 5 3 7 9 9 10 11 9 7 7 6 3 3 7 10 13 16 17 18 19 20 21 21 21 21 21 22 23 20 19 18 20
17 14 30 29 26 26 19 16 12 15 12 12 5 7 11 15 17 10 7 3 4 7 6 4 5 8 7 5 4 7 9 11 13 15 17 17 19 20 16 13 15 16 18 20 20 20 20 19 20
19 15 31 29 26 23 23 23 26 24 19 23 18 15 8 14 13 14 10 7 7 8 8 8 9 9 7 5 7 12 15 14 11 10 12 9 12 14 15 15 15 18 19 20 22 23 23 19 20
23 16 27 31 33 23 31 20 33 31 32 32 27 25 19 17 13 14 12 13 11 10 10 9 8 8 6 4 7 12 16 21 20 14 12 12 12 12 13 13 15 18 20 22 21 21 21 21 17
22 15 21 20 31 38 37 12 38 37 38 39 36 33 29 23 19 12 15 14 12 12 11 10 9 8 5 3 4 9 16 21 24 23 18 16 14 13 13 13 15 17 18 18 18 17 18 18 19
17 24 20 15 32 18 29 38 20 48 39 36 36 35 36 29 25 22 12 13 15 15 13 11 11 10 7 3 3 8 13 17 21 25 24 21 17 15 15 15 16 18 16 15 14 16 17 16 16
31 25 13 6 6 8 21 28 32 24 34 34 28 29 36 31 29 28 24 20 20 18 14 13 13 13 9 6 3 4 7 12 16 20 23 24 21 18 17 17 19 17 14 13 14 16 16 15 15
26 28 15 7 3 10 21 13 31 28 29 26 31 29 38 34 29 31 28 24 22 23 19 16 15 15 15 10 8 6 7 10 14 18 23 26 26 22 20 18 17 17 14 13 14 16 17 17 17
33 34 24 21 10 3 17 24 29 35 23 31 32 31 38 35 33 33 31 29 27 28 24 21 21 20 21 20 17 14 15 13 12 15 19 23 28 26 24 20 18 18 18 17 16 16 18 19 18
35 29 26 20 6 4 11 14 18 20 21 33 32 28 31 37 36 31 35 35 33 27 29 27 24 26 25 27 23 22 23 20 16 17 19 23 27 27 23 22 19 18 18 18 18 18 19 20 21
36 36 34 29 23 8 3 8 9 13 18 32 32 25 26 31 31 29 36 36 32 30 29 30 31 30 33 30 23 20 25 25 22 19 19 21 26 26 23 22 19 16 16 17 17 18 18 19 19
36 39 32 26 13 14 16 11 13 13 20 26 24 23 23 28 31 26 28 31 34 33 30 28 34 36 36 31 24 25 24 27 25 21 19 20 23 25 22 19 17 15 16 18 19 20 20 18 18

GFSSGP_700_spd_015.txt.gz
Wind_Speed
11 10 8 8 6 8 13 12 21 18 17 10 10 19 16 15 11 14 28 24 24 24 25 23 23 23 24 25 24 23 21 21 22 21 20 19 18 16 16 15 13 11 9 8 8 9 9 9 9
11 6 11 12 14 17 12 19 24 17 11 15 13 16 12 5 11 26 30 27 24 23 25 23 21 19 21 22 21 20 20 21 21 21 19 17 17 15 14 13 11 9 8 8 8 8 7 8 7
11 7 12 13 17 19 18 22 21 14 13 13 18 14 7 26 25 26 28 28 26 25 25 22 20 20 21 21 19 18 18 19 19 18 17 16 15 14 12 11 9 8 7 6 6 6 6 7 7
9 8 6 9 14 15 13 14 17 11 13 12 17 12 25 22 23 25 27 26 25 24 23 21 19 19 20 19 17 16 16 17 17 17 16 15 13 11 10 8 8 6 4 4 4 5 6 7 7
8 11 13 20 15 14 12 16 14 16 19 15 13 25 22 23 23 24 24 24 22 21 20 19 18 18 18 17 16 15 15 14 14 14 13 12 10 8 6 5 4 3 2 3 5 5 6 7 7
14 14 19 20 18 15 12 15 17 14 15 18 20 22 23 23 22 22 21 21 18 16 15 15 16 15 14 14 14 13 13 13 12 12 10 8 6 5 3 2 2 1 2 4 5 5 6 7 7
21 19 20 20 19 17 14 13 17 17 11 16 19 21 24 23 22 20 19 18 17 15 13 13 12 13 13 13 12 11 11 11 10 9 7 5 4 2 1 3 2 2 4 5 6 6 6 7 7
10 13 21 24 24 21 15 16 14 15 16 16 15 13 23 25 22 20 19 17 15 14 13 12 11 11 11 11 11 9 8 7 7 6 5 3 1 2 2 6 0 4 5 5 6 7 5 7 7
11 11 16 24 22 20 19 15 15 9 13 12 9 11 18 23 24 22 21 19 17 15 13 11 10 10 10 9 8 8 7 6 5 4 4 3 3 4 4 6 4 4 5 5 5 5 5 6 6
5 3 3 19 20 18 17 8 8 13 11 13 15 17 17 16 16 16 15 16 16 13 11 12 11 9 9 10 9 8 8 7 6 6 5 6 6 4 4 3 3 5 5 5 3 4 5 5 5
9 11 5 18 18 17 15 11 9 14 12 6 8 16 18 16 16 15 14 13 11 14 14 12 11 11 10 9 9 9 9 9 8 8 7 8 8 7 6 5 5 4 5 5 4 3 4 4 5
14 9 10 21 16 20 18 15 13 8 8 8 6 12 16 20 19 18 18 15 15 13 14 12 12 11 11 10 9 9 9 10 10 10 9 9 8 9 7 7 6 4 4 5 4 4 6 7 9
21 17 16 18 17 17 17 17 14 13 9 8 8 10 10 12 13 14 13 10 13 13 13 12 12 10 10 11 3 8 7 11 11 9 9 8 9 10 9 8 8 7 6 7 8 9 11 14 15
18 28 26 24 23 21 18 16 19 15 12 10 8 9 9 9 8 11 10 9 11 12 13 15 12 11 10 8 7 6 4 4 4 5 6 5 7 7 9 10 10 10 10 11 12 13 14 16 16
23 29 32 27 27 26 19 15 15 14 15 11 11 11 10 9 9 7 6 5 6 7 9 7 18 12 11 9 8 7 5 6 6 8 8 8 9 8 8 10 9 12 12 14 16 17 17 17 17
25 31 36 28 25 16 11 11 15 19 19 15 12 13 12 12 9 8 7 7 7 10 9 10 8 10 9 9 9 8 7 7 8 9 10 9 9 9 8 8 9 12 14 16 18 18 18 21 22
30 38 33 32 24 18 12 9 10 20 20 16 13 13 12 12 12 11 11 9 8 9 10 11 10 10 9 8 7 8 9 10 12 13 12 12 13 13 10 12 13 17 18 19 20 23 25 25 24
37 33 32 25 29 22 17 8 8 12 16 19 18 15 14 15 13 11 10 9 8 9 12 12 10 11 10 7 6 9 11 12 14 16 16 17 16 16 15 17 14 21 20 21 21 20 20 20 19
38 36 36 26 26 26 21 16 8 11 12 14 16 15 13 12 9 7 8 6 7 11 10 10 8 10 7 5 6 4 5 9 12 15 17 17 14 17 19 20 19 19 18 19 18 17 18 19 18
21 14 40 28 27 29 23 18 13 11 8 10 11 10 10 10 9 8 7 9 8 10 9 10 9 9 8 6 3 4 7 7 8 10 12 14 15 17 17 12 13 15 17 17 15 16 17 18 19
18 17 13 29 28 28 19 20 22 20 15 16 15 10 9 7 7 10 10 8 8 9 10 9 10 12 12 9 7 8 10 12 10 9 10 11 10 12 12 12 12 14 17 19 20 20 20 17 17
23 19 12 26 31 28 29 16 28 27 26 24 22 21 20 15 11 9 10 11 10 11 12 11 10 10 11 8 8 8 10 15 18 17 15 13 10 8 8 10 13 16 18 20 21 19 17 17 16
26 20 17 11 30 34 34 14 26 31 31 29 28 24 25 21 18 11 11 10 10 13 10 11 12 12 10 8 6 6 7 10 14 19 21 19 16 13 11 11 12 15 16 17 17 16 15 14 15
25 21 18 23 28 18 36 34 27 32 27 25 30 27 25 27 24 20 12 10 12 13 14 11 11 11 10 8 5 3 5 5 9 14 19 21 21 15 13 13 14 13 13 13 13 13 14 13 14
32 23 5 3 3 6 35 31 32 25 27 23 25 17 13 26 26 24 25 20 15 17 15 15 11 10 10 9 6 3 3 5 8 10 15 18 20 23 18 14 14 15 16 16 16 16 15 15 15
35 31 16 7 5 9 15 18 45 34 30 25 25 26 20 16 27 24 24 25 22 17 16 15 13 11 11 14 11 10 9 8 8 9 12 15 18 21 22 19 18 18 18 18 17 16 16 16 16
34 32 27 29 12 5 13 12 22 23 16 20 32 32 34 20 20 17 22 25 27 23 21 20 19 18 18 18 19 17 17 16 13 11 13 15 17 18 22 22 21 19 17 17 16 16 18 18 18
36 29 16 16 6 5 7 11 14 20 24 32 24 32 29 25 22 21 24 30 26 25 25 24 24 25 24 22 25 24 22 23 20 18 16 17 20 19 21 23 22 22 19 18 17 16 17 18 20
31 34 32 23 21 7 4 17 27 23 26 22 21 21 30 24 25 21 19 23 22 24 28 30 28 29 30 29 31 31 25 19 24 25 20 19 20 20 21 24 24 23 20 18 17 17 18 19 20
32 34 33 30 12 11 18 26 20 21 19 11 16 22 28 21 20 19 24 25 21 23 30 30 33 30 32 35 36 39 31 20 21 27 23 23 21 21 20 23 23 20 18 18 17 18 18 20 20

GFSSGP_700_spd_021.txt.gz
Wind_Speed
15 13 9 10 7 9 12 7 10 11 9 10 20 17 12 16 16 15 30 28 28 27 29 28 27 27 25 24 25 24 25 24 23 22 19 18 17 15 12 11 8 7 7 7 8 9 9 9 10
10 12 15 12 10 11 5 9 10 9 9 16 13 12 9 5 20 30 29 28 27 26 26 27 27 25 24 25 24 25 24 23 21 20 19 18 16 14 12 10 8 7 7 7 8 9 8 9 9
12 10 8 7 10 7 7 10 9 10 9 11 8 5 7 27 26 25 27 27 26 26 25 26 25 24 24 24 24 23 22 21 21 19 18 17 15 13 11 8 6 6 6 7 8 8 7 8 8
8 7 10 11 9 6 8 12 6 12 12 10 4 14 26 25 25 25 26 26 25 24 24 23 22 21 21 21 21 22 21 20 19 17 16 15 12 10 8 6 5 5 6 7 7 6 6 7 8
9 10 8 10 10 7 8 8 6 8 9 11 8 22 24 25 24 24 24 24 23 21 22 22 20 19 18 19 19 19 18 17 16 15 13 12 10 8 5 4 4 4 5 5 6 6 6 6 7
9 9 10 8 11 10 8 6 7 9 9 12 13 18 23 25 24 23 22 21 20 18 19 20 19 18 17 17 17 16 15 15 14 12 10 8 7 5 4 3 3 4 5 5 5 6 6 7 7
10 11 9 10 12 12 9 9 9 9 9 10 16 20 22 23 24 22 21 20 19 17 17 18 18 16 15 15 14 14 13 12 11 9 8 6 4 3 3 5 2 3 4 5 5 6 6 5 6
10 9 9 9 10 11 12 10 9 9 9 10 17 17 20 22 22 21 20 20 20 19 17 16 16 15 15 14 14 13 12 11 9 8 6 5 4 5 4 5 2 4 4 4 4 5 6 6 6
10 7 11 8 10 11 11 11 11 11 9 11 16 11 16 18 20 20 19 19 19 18 17 16 15 14 13 12 11 10 10 9 8 7 5 3 2 0 2 3 3 3 3 3 3 5 5 6 7
5 3 3 5 5 7 9 8 11 11 12 14 13 15 17 15 16 15 14 14 15 15 15 15 14 12 12 11 10 10 9 8 7 6 4 3 2 2 3 4 4 4 3 2 2 2 3 4 6
8 5 5 4 9 7 5 8 8 10 8 6 11 14 15 15 15 15 14 13 12 13 13 12 13 12 11 10 9 8 8 7 5 5 4 5 5 4 6 6 5 5 4 4 4 2 3 4 6
8 6 6 8 6 13 10 5 10 8 6 8 8 11 15 17 17 17 15 14 12 12 12 12 11 10 10 9 8 7 6 5 5 6 6 6 7 8 8 8 7 7 7 6 6 6 7 9 11
13 15 12 7 10 13 13 8 9 7 5 9 12 13 13 14 15 15 16 15 12 11 10 10 10 10 9 8 7 7 7 6 6 7 7 8 9 10 9 10 9 10 9 8 8 9 10 11 13
21 14 8 8 10 12 16 14 12 8 6 7 9 9 12 14 15 16 15 13 11 12 11 11 11 11 10 10 9 7 7 6 6 6 6 5 6 7 7 8 9 11 12 11 12 13 13 14 15
16 11 8 12 12 12 16 18 16 10 11 9 10 11 11 13 13 10 9 9 10 11 12 11 11 11 11 11 12 8 7 5 5 6 9 7 9 10 7 9 12 12 11 13 13 14 16 17 18
15 11 13 17 16 15 15 12 17 19 16 13 13 14 13 13 11 13 11 10 11 8 8 9 9 12 10 9 11 10 8 8 8 9 9 9 10 11 11 11 12 13 15 15 16 18 18 19 21
15 11 16 20 20 21 20 12 16 18 21 18 18 16 16 16 16 15 14 12 11 11 10 8 8 9 10 10 12 11 9 8 9 10 11 13 11 13 14 12 14 16 15 15 22 19 18 18 16
18 19 22 24 26 25 24 23 13 13 22 22 21 19 19 18 15 15 15 15 14 12 11 10 9 10 11 11 9 9 9 10 11 13 13 13 13 14 15 15 16 16 16 19 17 15 14 16 15
21 25 25 27 23 26 26 26 24 12 16 20 25 24 22 21 16 18 18 19 18 17 14 11 11 10 11 10 9 9 8 8 9 11 11 12 13 15 16 17 16 17 17 16 15 14 14 15 13
25 24 24 22 23 17 24 27 24 20 13 11 16 21 24 23 25 27 26 24 22 18 15 14 12 12 12 11 8 7 6 4 4 3 4 6 7 8 9 14 13 11 11 12 13 13 14 13 12
27 27 25 23 26 25 13 22 30 26 20 17 14 13 18 20 24 28 29 27 23 21 17 14 13 12 13 14 12 9 6 5 5 6 5 4 4 3 2 2 3 6 9 10 12 12 11 11 11
27 27 28 25 20 23 22 20 20 26 27 23 18 18 16 16 17 18 18 19 21 19 17 15 14 14 16 16 14 12 10 10 11 12 12 12 12 11 11 10 9 9 11 12 13 12 11 10 10
26 26 25 28 26 20 17 13 25 24 25 27 24 22 20 17 16 15 15 15 14 18 17 16 16 17 17 16 15 13 11 9 9 9 8 9 11 13 14 12 12 12 13 13 13 13 13 12 11
25 23 22 20 20 14 24 23 24 26 25 25 30 28 24 22 20 19 16 18 18 18 17 17 18 18 17 16 15 13 11 9 8 5 3 4 5 8 9 10 11 12 13 14 14 14 14 14 13
30 23 12 10 9 10 21 19 32 20 22 19 20 25 23 25 26 23 24 25 23 20 19 18 17 17 17 15 12 10 10 10 9 7 3 2 2 5 7 8 11 13 15 15 15 14 14 14 14
41 33 21 17 10 13 21 16 31 26 23 23 21 21 19 22 23 29 29 24 22 22 21 19 18 17 17 15 11 12 8 8 12 11 9 7 9 10 11 11 13 15 15 17 16 15 14 14 14
33 37 34 18 10 12 15 18 29 22 16 19 20 20 21 23 21 21 27 29 29 22 19 20 20 21 19 19 22 18 12 12 16 13 14 16 15 17 16 16 16 16 17 18 19 18 16 15 15
35 36 25 24 17 15 12 9 14 15 18 15 17 16 19 19 24 26 24 28 30 28 21 21 24 19 19 21 21 23 23 21 23 22 19 18 23 20 19 19 19 19 19 18 20 22 21 18 16
28 24 23 23 25 15 15 22 22 23 21 18 21 24 20 24 20 25 27 25 25 26 28 27 27 26 25 24 23 25 25 29 33 25 27 23 22 22 20 21 21 21 21 19 18 20 19 18 18
40 32 34 26 19 19 23 27 10 13 19 17 19 21 18 22 14 18 25 24 24 25 24 24 24 26 24 25 29 29 32 38 36 39 33 29 26 24 23 22 22 22 19 16 18 18 18 17 18

GFSSGP_700_spd_024.txt.gz
Wind_Speed
20 17 14 10 6 8 13 7 7 7 5 7 12 17 7 11 9 15 26 27 30 31 31 30 30 29 29 26 26 24 23 22 21 20 20 19 17 13 11 8 8 7 7 7 7 8 8 9 10
15 17 15 11 3 8 10 8 9 6 13 14 12 8 6 4 11 29 27 28 28 27 27 26 24 24 24 24 25 23 22 21 21 21 19 17 15 12 10 8 7 7 7 7 8 7 9 8 9
13 14 9 5 4 8 10 8 9 11 11 7 6 4 4 21 27 27 25 27 27 26 25 25 24 23 23 24 24 23 22 20 20 19 18 17 14 12 9 8 6 6 7 8 8 7 8 8 8
10 11 11 7 10 7 9 10 11 10 9 5 4 7 26 26 24 24 25 25 27 26 25 25 24 24 24 24 23 22 20 20 19 18 17 15 12 10 8 6 6 6 6 7 7 8 8 7 7
10 12 8 11 9 10 10 11 11 8 7 7 9 23 24 23 24 23 23 24 24 24 23 23 23 22 21 21 20 20 19 18 17 16 14 12 10 8 5 5 5 5 5 6 6 6 7 6 6
5 8 9 12 10 10 10 9 9 7 9 8 15 20 23 23 23 23 22 22 21 20 20 20 20 20 19 19 18 18 16 15 14 13 11 9 8 6 4 4 4 4 5 5 6 7 7 5 7
7 3 9 11 10 9 9 10 7 8 10 10 16 19 22 22 22 22 20 20 19 18 17 18 18 18 17 17 16 15 14 12 11 10 8 7 6 5 5 4 3 4 4 5 6 7 7 6 7
6 3 4 6 7 8 9 9 9 8 9 13 17 18 21 22 21 20 19 18 18 18 17 17 16 16 15 15 14 14 13 12 10 8 6 5 5 4 3 3 2 3 4 3 4 5 5 6 7
9 3 4 3 5 7 10 9 10 10 10 13 15 14 19 19 21 20 19 19 19 19 18 17 16 15 15 14 13 12 11 10 8 6 5 4 2 1 1 2 3 2 4 4 3 3 4 5 6
7 3 2 2 4 7 11 8 8 10 13 15 15 14 18 17 17 17 17 17 18 19 19 17 17 16 14 13 12 10 9 8 7 6 4 4 3 2 2 2 3 3 4 5 4 3 4 3 5
5 3 1 1 7 9 9 10 6 10 11 11 13 14 18 16 17 17 16 15 15 15 15 15 15 14 13 12 10 9 8 8 7 6 5 4 4 5 5 5 5 5 4 4 6 5 5 6 7
8 5 1 2 5 10 9 11 9 8 8 9 9 12 17 18 18 18 17 15 14 14 14 14 13 13 12 11 10 9 8 7 7 6 6 6 6 6 7 7 6 6 7 6 7 7 8 9 11
12 6 6 5 8 10 11 9 11 7 6 11 13 15 14 15 15 16 16 16 15 14 13 12 12 11 10 9 9 8 8 8 7 7 8 8 8 7 6 8 7 7 8 8 9 10 11 12 14
10 12 9 7 10 11 12 12 12 8 6 8 12 14 16 16 18 19 18 16 14 14 13 12 11 11 10 10 9 8 9 8 8 9 9 6 6 5 4 8 8 7 10 10 11 11 12 14 15
15 9 8 8 10 11 13 13 14 12 10 8 13 14 15 16 18 16 13 13 14 13 14 13 12 12 12 11 11 9 8 9 7 8 8 7 8 9 8 10 8 11 11 11 13 13 16 16 17
15 13 11 12 13 11 14 10 15 16 12 11 12 14 13 15 14 17 18 17 16 17 13 14 13 12 12 11 12 12 10 10 9 9 9 8 10 10 9 12 11 12 12 13 15 17 19 20 19
19 19 18 15 16 13 16 7 12 13 17 15 14 15 15 16 16 17 18 17 15 15 15 12 12 12 14 13 13 13 11 10 9 9 10 12 12 12 13 13 13 14 15 16 17 19 18 18 16
23 20 20 18 19 15 17 12 8 11 18 19 20 19 19 19 16 16 18 18 18 17 15 15 14 13 15 14 12 12 11 11 11 12 13 14 15 15 14 15 14 15 16 17 19 17 17 16 17
21 19 19 19 14 18 17 16 16 12 15 20 22 24 24 22 19 19 19 20 20 19 18 16 15 14 14 14 12 10 11 12 13 13 14 16 16 16 16 14 14 14 17 20 16 15 15 15 17
23 23 22 17 15 17 15 18 18 19 18 18 22 25 27 24 24 25 24 24 24 22 19 18 16 17 14 16 15 13 12 9 8 9 10 12 13 13 13 11 13 13 14 12 13 14 15 14 12
29 26 25 21 16 17 13 18 19 21 20 19 21 23 26 27 28 29 29 29 28 26 24 21 18 15 16 16 15 13 10 8 7 6 6 5 4 5 6 6 4 3 5 8 10 12 12 13 10
32 28 24 23 19 19 17 18 16 16 21 22 20 23 25 24 27 29 31 33 33 30 25 23 20 18 17 18 16 14 12 11 9 8 8 9 9 9 7 6 5 6 7 8 9 11 12 12 12
35 25 25 25 26 23 17 15 19 15 19 22 21 22 22 23 22 21 21 20 22 23 24 23 22 21 20 19 18 17 15 13 11 9 9 9 7 5 5 6 6 8 9 11 12 12 12 12 13
29 22 21 25 27 29 30 21 21 21 20 18 19 23 21 21 21 18 16 18 20 22 24 25 23 22 21 20 19 17 14 12 10 7 5 4 3 3 2 3 6 8 10 12 13 14 14 14 13
32 29 21 19 20 16 31 28 28 13 19 16 14 19 23 23 25 24 22 23 23 23 24 25 24 23 22 22 20 17 13 12 11 11 9 8 7 5 5 5 8 10 12 14 14 14 14 14 13
41 41 27 25 16 17 29 24 34 27 25 21 20 17 19 16 20 23 27 26 25 23 25 25 24 23 22 21 18 17 13 13 16 17 14 13 11 10 10 11 11 13 14 15 17 17 15 15 14
41 47 40 33 30 25 30 28 30 25 25 21 17 18 16 19 18 19 23 31 29 26 25 25 24 24 22 22 21 20 18 19 20 18 17 17 16 16 16 16 18 15 17 17 18 20 18 17 15
43 42 41 43 25 23 30 30 24 20 22 20 17 16 17 17 20 21 24 25 33 32 22 26 25 25 24 26 25 24 24 23 23 22 22 22 22 21 20 21 23 19 18 20 20 21 19 18 18
40 37 47 41 41 17 18 29 27 22 17 15 15 15 16 18 20 19 25 26 26 36 31 26 26 29 29 25 22 25 28 30 30 28 27 24 27 32 29 23 25 25 21 24 22 21 19 17 19
40 40 42 39 36 40 40 31 28 29 26 26 24 20 20 21 22 25 24 27 30 32 35 34 29 32 29 25 24 26 28 31 33 36 36 33 35 37 37 26 41 36 32 26 23 20 19 17 17

GFSSGP_700_spd_027.txt.gz
Wind_Speed
13 11 9 12 6 7 8 8 8 8 9 3 15 13 14 17 11 27 30 26 29 30 30 30 30 31 29 27 24 24 23 20 20 19 17 15 12 11 9 9 9 9 9 8 8 8 9 9 10
11 8 7 7 10 5 15 13 10 16 14 16 11 11 14 19 24 34 32 29 29 29 28 28 28 28 26 24 23 22 21 20 19 17 16 14 12 11 10 9 9 9 8 7 8 9 10 10 10
15 11 12 7 3 13 15 11 12 13 11 7 5 8 10 23 19 28 29 29 28 27 24 25 24 24 23 23 22 21 20 18 18 17 16 14 12 11 9 9 8 8 7 8 8 9 9 9 10
9 9 4 5 11 9 12 12 12 10 7 6 9 19 23 17 16 24 26 25 24 23 22 21 22 22 22 21 20 19 19 18 18 16 15 13 11 9 7 8 7 6 6 7 8 7 8 8 9
3 4 5 8 8 10 10 10 9 10 8 10 13 21 20 16 21 22 23 24 19 22 22 21 20 21 21 20 19 19 19 18 17 15 13 11 9 7 7 6 6 6 6 6 7 7 8 7 8
5 3 4 11 9 8 8 9 7 8 8 12 17 19 17 20 21 20 22 20 22 21 22 21 21 22 21 21 20 19 18 16 15 13 11 9 7 6 6 4 5 5 6 6 7 8 8 7 8
6 5 9 10 8 9 7 8 6 7 9 13 14 17 20 19 19 19 18 22 19 18 21 20 20 20 20 19 18 17 15 14 12 10 9 7 7 6 7 5 5 6 7 7 8 8 8 8 8
5 9 5 7 14 7 7 7 8 9 11 15 13 13 22 21 20 20 17 15 17 17 19 18 18 18 18 17 16 14 12 11 9 8 7 6 6 5 5 5 5 6 7 7 7 7 7 8 9
6 2 16 6 6 9 9 7 9 10 13 13 10 12 20 21 20 16 18 18 15 18 17 17 17 17 17 15 13 12 10 8 7 5 4 3 3 2 2 4 4 5 6 6 5 5 5 5 6
9 1 6 6 3 9 8 7 8 10 13 14 12 17 18 17 21 20 19 14 17 18 20 16 14 15 14 14 12 10 10 8 6 4 4 2 2 1 2 4 4 4 4 3 4 4 4 4 9
8 8 6 3 4 7 8 7 7 9 11 14 16 19 14 15 18 19 18 17 17 16 16 13 16 15 15 12 12 10 9 7 6 5 4 3 3 4 3 6 5 6 6 9 5 6 6 3 2
10 2 3 5 6 8 8 8 7 9 9 13 15 17 14 15 18 19 19 18 18 16 17 17 13 12 11 12 11 8 7 7 6 6 5 5 6 5 4 1 8 6 4 5 6 6 10 10 8
14 7 4 3 7 9 10 8 9 9 11 14 16 17 15 18 19 19 18 15 14 14 14 13 12 11 10 9 9 9 9 8 7 8 7 7 5 5 5 7 7 7 8 8 8 10 12 11 13
13 11 7 6 10 12 11 10 10 10 11 15 17 16 17 17 19 20 20 18 15 14 13 12 11 11 11 10 9 8 8 9 8 9 8 6 5 3 4 7 7 9 9 9 12 12 12 13 15
18 12 10 9 14 13 13 12 13 14 12 16 17 19 20 20 21 21 19 17 15 14 14 13 13 12 11 11 10 9 8 9 8 8 7 7 6 6 7 10 9 8 13 12 12 13 15 16 13
19 17 17 13 15 14 18 19 18 16 15 17 18 20 21 22 21 20 18 17 17 17 17 15 15 14 13 12 11 10 11 9 8 8 10 11 10 9 10 10 10 10 11 14 14 16 16 17 17
24 23 20 16 18 14 17 14 17 16 16 19 19 20 21 21 22 21 20 20 20 19 18 17 15 15 14 13 12 12 11 10 12 9 13 12 12 12 13 13 13 14 13 14 15 14 20 22 17
28 25 23 22 21 16 14 6 10 14 16 17 20 22 22 22 21 21 20 21 20 19 19 17 17 17 16 16 14 13 13 13 13 13 12 13 17 15 15 15 17 15 15 13 12 17 20 19 19
25 23 15 21 20 21 19 15 14 13 16 17 20 23 24 24 22 22 21 22 22 22 20 18 17 16 16 16 15 15 14 14 14 14 6 18 17 16 16 16 18 13 13 14 17 17 15 14 18
29 27 22 17 19 24 20 20 18 17 17 19 21 23 25 25 25 25 25 25 24 23 21 19 18 18 17 16 16 15 13 10 11 12 14 14 14 14 14 12 12 11 11 14 14 12 12 12 12
33 31 23 22 21 19 21 23 22 21 19 19 21 23 24 27 27 28 28 28 27 27 24 22 20 19 18 17 17 17 15 13 13 12 8 8 9 8 8 6 6 4 6 11 9 10 10 10 10
36 29 24 24 25 22 25 23 28 25 24 23 22 23 25 26 29 28 29 30 30 29 28 24 22 22 20 19 18 16 15 12 8 5 7 3 3 4 5 5 4 2 2 7 10 12 11 9 8
37 32 29 27 25 31 28 30 22 25 28 25 23 23 24 25 27 29 30 30 29 30 29 27 25 23 22 21 20 18 17 12 11 10 10 10 8 6 4 3 2 1 4 6 9 12 13 12 10
34 32 32 32 32 25 28 29 30 24 26 22 23 21 23 24 26 26 27 29 30 29 28 27 25 23 23 22 21 20 17 15 15 14 13 11 9 7 6 3 1 4 7 10 11 12 12 13 12
38 36 30 23 24 20 34 33 29 22 20 24 23 22 22 24 26 28 28 29 28 25 25 25 25 25 26 23 21 20 19 18 16 14 13 11 9 9 7 7 7 8 9 11 13 14 15 15 14
45 45 37 26 18 23 37 36 38 28 15 17 18 19 20 24 26 28 27 28 27 22 23 25 27 26 26 22 20 22 19 19 15 13 13 14 14 14 11 12 13 14 12 15 16 16 18 15 16
44 51 44 39 36 31 34 35 29 17 30 26 22 20 22 21 24 28 30 26 25 25 21 22 25 27 26 23 23 24 19 17 14 15 18 20 19 18 15 17 20 21 15 18 21 21 20 18 16
50 44 45 47 28 26 35 34 31 30 27 25 26 23 22 22 24 26 30 30 27 26 24 23 25 27 27 26 25 24 23 20 19 21 18 22 22 22 21 24 24 23 31 31 30 28 21 20 18
41 52 48 46 47 21 19 30 33 24 23 28 28 24 21 23 23 24 29 32 30 26 27 29 27 29 31 29 27 26 25 24 24 22 22 27 26 26 26 24 29 36 30 33 30 29 27 24 20
42 45 49 41 40 43 43 34 28 26 22 19 24 22 19 19 22 25 24 29 33 32 30 30 31 31 33 29 29 28 29 29 27 29 30 31 34 33 36 32 32 36 40 37 34 26 28 25 23

GFSSGP_700_spd_030.txt.gz
Wind_Speed
6 5 14 18 2 2 14 12 8 12 12 17 8 12 17 17 17 28 30 29 27 29 29 29 29 30 28 26 25 21 20 18 17 16 13 13 12 11 12 12 11 11 11 12 12 12 12 13 13
6 6 10 8 2 6 15 15 22 17 16 11 11 16 14 22 26 33 33 30 29 29 28 30 30 28 25 24 22 20 19 18 17 15 13 12 12 11 11 10 10 9 11 10 10 10 11 11 12
7 6 8 15 8 9 19 17 21 16 14 9 15 12 27 33 28 31 30 30 30 28 28 29 27 26 23 21 20 19 18 17 16 14 13 12 12 10 9 10 9 9 10 9 9 9 9 10 11
3 4 13 12 21 19 17 17 15 15 13 18 20 22 17 20 27 27 28 27 27 26 25 25 23 23 22 21 20 19 18 17 15 14 13 12 11 9 9 9 8 9 10 10 10 10 10 10 10
1 10 13 3 14 14 14 11 11 16 13 19 22 22 16 13 23 24 23 22 22 23 23 22 23 23 22 21 19 18 17 16 15 14 12 11 9 9 8 7 8 9 10 10 10 10 9 10 10
12 15 13 6 6 13 10 9 17 18 18 22 17 22 24 17 20 22 22 22 21 22 21 21 21 21 21 19 19 18 17 15 14 12 11 9 8 7 7 7 9 10 10 10 10 11 10 10 10
14 12 22 6 9 10 8 10 10 13 15 16 14 22 23 12 15 20 18 20 13 21 20 20 21 21 20 19 18 17 16 13 12 10 9 8 8 9 9 9 9 9 8 9 9 9 9 9 8
16 17 12 3 16 11 10 9 11 12 17 17 13 20 25 20 12 16 19 24 14 19 19 19 20 19 19 18 17 15 13 12 10 9 8 7 7 7 8 9 8 8 8 7 7 7 6 7 7
16 11 9 3 14 13 11 9 11 15 16 15 10 19 18 20 25 15 22 26 20 18 18 18 18 18 18 16 15 12 10 9 8 7 6 4 4 3 7 4 6 6 6 5 5 5 7 5 6
16 7 3 5 10 14 12 10 10 10 15 14 16 22 21 25 17 15 17 20 20 19 18 17 17 16 15 14 12 10 9 7 6 5 3 1 3 4 4 3 3 6 4 4 5 5 4 8 7
16 6 8 11 13 11 12 12 9 14 13 12 23 24 24 22 16 13 7 13 17 15 17 19 17 16 15 16 12 10 8 7 6 4 2 2 3 2 5 8 2 8 6 1 5 9 4 6 6
11 4 6 4 7 9 11 11 10 9 15 16 19 23 24 25 23 21 11 8 15 15 12 7 16 14 10 6 9 9 9 6 6 5 4 3 3 5 5 6 4 7 11 8 14 8 10 10 9
18 6 8 6 5 8 15 10 11 8 16 17 19 22 21 23 23 20 19 18 15 19 19 18 11 11 11 14 10 6 6 5 7 4 6 5 4 7 5 3 6 7 9 9 8 11 13 13 14
16 15 10 6 8 12 11 13 11 13 13 18 20 22 22 22 22 22 21 20 16 13 17 15 12 11 10 9 7 7 6 10 10 7 10 6 4 6 5 3 7 4 8 7 9 12 12 13 15
17 17 16 10 12 14 10 14 11 16 15 18 21 23 22 23 22 22 23 20 15 13 13 12 12 12 11 10 9 9 8 9 8 5 10 3 4 7 6 7 8 8 8 12 8 12 11 12 14
21 21 21 17 15 15 18 12 12 16 17 19 21 23 23 23 22 22 22 19 15 14 14 14 13 11 11 11 11 10 11 9 7 8 13 4 9 8 8 8 8 10 12 8 11 15 13 15 18
24 25 21 15 15 17 16 18 15 16 17 20 21 22 23 23 23 23 21 20 18 17 17 15 15 14 11 12 12 13 11 10 8 7 9 7 9 12 10 10 12 10 12 13 16 16 13 19 17
29 25 26 23 22 22 20 21 36 22 19 21 21 22 24 24 26 25 22 21 21 19 19 17 16 16 11 13 13 13 13 11 10 11 14 14 12 12 14 13 13 12 13 13 12 15 19 18 17
26 25 26 24 11 22 18 15 31 31 22 22 22 24 24 25 24 26 23 24 23 22 19 17 17 16 14 12 12 13 14 13 12 13 15 11 15 17 16 13 13 8 13 11 12 13 14 16 14
31 31 31 21 21 27 20 21 17 27 24 23 24 25 26 26 26 27 28 26 26 23 21 19 18 17 15 14 13 14 16 15 13 14 14 14 16 12 12 10 12 8 8 9 9 8 10 12 8
34 33 30 16 24 24 20 21 26 26 23 23 24 25 24 28 27 30 31 31 29 28 25 21 19 18 16 15 15 16 15 13 5 13 11 15 7 7 7 5 6 4 4 5 7 7 7 9 8
37 33 30 22 26 23 26 24 29 28 29 26 25 27 27 26 29 29 31 32 32 31 27 23 21 21 17 18 17 16 16 14 13 12 9 6 1 1 2 1 1 1 3 4 7 9 9 9 9
38 31 30 26 30 25 25 23 26 32 33 30 24 25 27 29 27 30 32 32 26 27 28 24 23 24 21 19 18 16 16 15 13 12 8 6 5 4 2 2 2 1 4 7 8 8 11 12 12
33 32 31 31 32 21 25 24 49 35 36 26 29 27 27 28 29 28 30 32 31 26 25 24 20 23 23 20 20 19 16 15 15 14 12 11 9 7 6 5 3 3 6 8 12 13 13 13 12
37 37 27 24 23 18 35 37 25 18 32 25 38 31 32 30 30 31 29 34 34 26 24 24 19 20 24 22 22 21 19 18 17 13 13 12 11 10 8 8 7 7 10 12 18 22 17 17 13
43 43 31 20 18 21 38 33 28 32 23 22 25 31 34 32 28 31 30 25 31 24 22 24 19 18 23 24 23 22 20 18 17 15 14 14 13 11 10 13 12 12 13 13 21 27 26 19 18
40 47 43 40 36 27 33 32 35 27 29 28 24 25 23 27 30 31 31 23 25 25 21 18 19 19 24 25 25 22 19 17 18 17 19 18 19 17 11 16 14 15 15 15 16 23 35 24 19
43 39 42 46 26 25 30 34 27 36 40 21 20 24 23 20 33 29 29 28 26 27 24 21 22 19 23 26 25 22 19 19 18 20 21 20 19 23 17 16 18 20 21 22 24 30 30 28 20
39 43 44 40 44 17 17 27 35 36 33 32 35 32 28 23 27 26 26 25 23 26 26 23 25 23 25 28 26 25 23 22 22 21 20 19 22 23 24 19 23 25 28 26 27 31 30 31 22
44 46 48 40 34 40 39 30 31 18 33 34 28 31 29 26 24 31 33 28 27 26 28 29 28 29 25 26 28 27 26 25 25 25 20 20 22 27 26 25 28 31 34 34 32 33 34 32 28

GFSSGP_700_spd_033.txt.gz
Wind_Speed
11 10 15 13 10 7 10 12 14 8 12 12 15 11 16 14 14 17 26 25 29 30 32 32 32 31 29 28 26 23 20 19 17 14 14 13 14 15 14 13 13 13 14 12 13 13 13 13 11
5 8 9 6 3 4 10 14 17 12 13 7 13 10 18 16 23 34 31 29 29 29 30 33 31 29 28 25 23 21 19 17 15 14 13 13 13 14 12 12 12 12 12 12 12 13 13 12 12
2 6 4 10 14 15 18 20 22 17 8 4 14 16 21 31 28 31 30 31 28 31 30 30 29 27 25 22 20 20 18 17 15 14 13 12 12 12 11 11 11 11 11 12 12 13 13 12 11
7 18 7 6 19 18 20 15 20 20 14 7 13 27 27 23 27 29 30 30 30 31 29 27 26 25 22 21 19 19 18 17 15 14 12 12 11 10 10 10 11 11 12 12 12 12 13 12 12
2 2 4 2 18 22 20 16 27 24 16 13 17 25 27 25 25 26 27 28 27 29 27 24 23 23 21 20 19 18 17 17 15 13 12 10 10 9 8 11 12 12 12 12 12 11 12 12 12
12 6 8 10 21 19 21 15 15 11 10 13 12 26 28 21 21 23 23 25 25 24 25 23 23 22 21 20 19 18 17 16 14 12 11 9 9 8 10 11 12 12 12 12 13 12 11 11 11
12 5 11 9 17 21 20 20 25 13 11 9 14 25 27 23 18 20 23 23 22 22 23 23 22 22 20 19 18 17 16 15 13 11 10 9 9 11 11 11 10 11 10 11 10 10 10 10 9
16 11 11 8 19 20 20 10 14 13 11 12 7 13 23 19 19 19 20 23 21 21 21 21 21 21 20 19 17 16 14 12 11 10 9 8 8 10 11 10 9 9 10 8 8 7 8 8 11
25 23 9 14 18 17 13 22 21 11 13 9 4 4 11 20 20 22 21 26 22 21 20 21 21 20 19 17 15 14 12 10 9 7 5 4 6 7 8 8 6 10 11 9 9 8 7 7 8
13 12 8 7 19 19 13 14 19 20 14 10 14 13 10 21 17 19 23 23 22 21 21 20 19 18 17 16 14 12 10 9 7 4 2 2 5 4 5 4 5 9 3 7 7 6 4 6 5
7 16 6 9 18 20 17 15 16 15 12 10 14 18 10 18 8 11 18 13 18 20 21 21 18 18 17 16 14 11 9 9 7 5 2 2 1 3 4 6 3 2 5 5 4 5 8 9 9
9 5 8 9 15 13 20 13 17 7 17 15 13 7 14 15 13 15 10 16 19 18 19 21 19 17 16 14 13 10 8 6 7 8 5 1 4 6 5 3 2 5 2 4 5 4 8 7 11
17 7 8 12 11 11 12 14 13 16 23 17 15 14 18 16 11 9 9 13 20 19 18 18 17 13 13 14 11 10 14 10 8 6 3 3 2 3 8 4 5 6 8 5 7 6 9 8 8
20 18 13 7 9 31 13 17 13 23 19 16 15 13 27 24 18 12 13 16 17 16 16 18 16 10 7 5 5 3 3 3 2 3 2 5 3 2 3 1 5 5 6 6 6 8 10 11 9
19 21 20 9 11 25 15 15 18 19 17 18 15 14 21 27 28 23 16 14 16 14 12 11 12 9 7 6 6 5 4 4 10 7 4 4 3 2 3 5 7 8 7 5 9 8 13 12 11
21 22 27 21 16 21 26 21 18 18 19 19 15 14 18 20 23 26 25 16 15 15 10 9 9 11 11 9 8 8 8 7 8 10 8 4 5 3 6 7 9 10 9 7 7 13 14 10 15
23 27 24 16 22 17 20 26 20 21 22 20 17 16 20 21 23 24 22 18 15 15 14 11 11 12 12 11 9 10 11 12 14 7 5 3 5 6 9 9 11 12 11 10 11 11 13 12 11
26 25 25 20 27 25 29 23 30 22 27 24 20 17 22 23 26 22 22 20 18 17 17 14 13 11 13 13 12 12 13 13 13 8 5 10 9 11 10 12 10 12 10 10 11 13 16 14 12
26 28 28 19 25 18 24 27 26 23 29 31 28 24 24 26 24 28 25 23 22 20 17 16 15 12 10 11 10 10 11 11 10 11 11 11 10 11 10 13 11 9 10 10 7 9 11 12 12
31 33 34 16 29 27 27 23 29 16 37 38 36 27 27 25 27 28 30 26 24 20 18 17 15 16 12 10 10 11 13 12 13 13 12 11 11 11 8 8 7 6 6 6 8 9 10 10 9
36 36 35 20 15 15 21 31 37 23 31 37 39 31 27 22 27 31 30 31 28 26 22 19 17 17 15 13 12 13 14 15 14 16 10 5 6 4 4 4 1 3 5 7 6 9 12 13 10
40 36 32 22 25 27 25 16 42 29 36 38 39 37 30 27 26 26 31 31 30 30 27 24 21 20 18 17 14 13 14 12 9 9 8 8 6 3 3 2 3 5 7 8 9 12 14 14 13
45 35 35 33 25 34 27 9 22 36 42 40 40 37 32 27 26 24 25 25 25 22 23 24 24 23 21 20 17 14 13 13 11 12 8 6 7 5 4 2 3 4 5 6 8 14 22 19 15
35 35 38 36 33 16 29 19 27 28 33 41 37 34 34 31 29 28 23 19 24 21 18 15 21 25 25 23 19 16 14 15 16 14 11 10 8 7 5 4 1 1 0 4 10 10 21 16 16
32 38 27 17 18 6 31 35 32 27 34 38 41 36 31 30 31 32 30 25 19 18 13 12 13 18 24 24 20 17 17 18 17 15 12 11 10 8 7 8 7 5 4 4 6 10 19 21 15
43 40 30 10 11 12 24 21 40 37 26 29 40 34 31 33 32 34 34 30 24 16 14 11 9 12 20 22 20 19 20 21 19 17 13 13 12 12 9 11 11 10 10 9 8 15 21 26 24
33 48 43 31 33 18 27 33 39 31 35 33 43 42 29 39 40 36 36 37 27 25 15 12 9 10 16 20 20 22 22 21 19 18 17 16 14 14 15 14 13 13 14 14 13 17 21 22 23
44 29 38 42 15 18 25 31 32 32 42 42 44 29 23 43 45 47 41 34 29 25 19 15 14 13 14 19 21 23 22 21 20 19 19 17 17 15 13 12 14 16 17 18 17 19 22 24 23
38 45 43 29 40 9 8 29 34 21 35 47 42 38 29 24 42 43 34 32 37 27 22 20 18 18 19 21 22 24 24 23 22 20 19 18 19 18 14 13 15 18 21 22 23 25 26 25 26
45 41 46 34 13 28 32 36 21 26 26 40 38 38 23 24 24 45 42 37 35 21 19 21 20 22 21 21 23 26 26 26 25 20 18 19 18 16 14 18 18 21 24 26 27 28 30 27 27

GFSSGP_700_spd_036.txt.gz
Wind_Speed
5 14 9 16 12 5 4 8 11 11 11 12 9 7 8 18 18 11 27 24 30 33 35 34 32 31 30 29 28 26 23 19 17 17 14 15 14 14 14 14 13 13 13 14 14 13 13 12 13
4 9 2 6 5 5 8 12 10 9 10 5 9 7 9 15 8 27 31 31 33 32 35 34 32 31 29 27 24 23 20 16 16 15 14 14 13 13 13 13 12 12 13 13 12 13 13 12 11
3 6 5 3 7 7 16 14 13 10 12 4 10 12 11 23 29 30 30 32 32 32 34 32 31 29 26 25 22 20 18 15 15 15 14 13 12 12 12 11 12 13 13 12 12 13 12 12 11
6 6 5 6 9 16 18 14 11 11 12 4 13 21 26 24 23 29 30 32 32 34 32 29 28 25 24 23 21 19 17 16 15 15 13 12 12 11 11 12 13 12 12 12 12 12 12 12 11
9 13 1 2 11 12 17 16 11 12 13 16 19 25 25 24 24 25 28 31 31 30 29 27 24 23 22 21 20 19 17 16 15 14 11 11 11 10 11 12 11 12 13 12 12 11 11 11 11
1 6 10 4 7 15 16 15 10 5 11 18 12 25 27 23 23 26 27 29 28 26 27 25 23 21 21 20 19 19 18 16 14 12 10 9 9 11 12 11 11 12 13 12 12 11 11 12 11
6 12 9 12 6 17 20 16 6 7 11 10 17 23 28 24 23 24 26 26 26 24 23 23 22 21 21 21 19 18 17 15 13 11 9 10 10 10 11 11 12 12 12 10 10 12 12 12 10
14 17 8 3 22 27 20 18 6 2 9 15 14 7 23 26 24 25 25 24 23 23 23 22 21 20 20 20 19 17 16 13 11 10 10 9 8 9 10 10 11 12 12 10 9 10 10 10 10
23 11 11 11 20 23 23 18 13 3 2 12 8 7 19 23 23 24 26 27 25 24 22 21 20 20 20 18 17 15 14 12 11 9 7 7 5 7 9 9 7 9 10 10 7 6 7 7 7
4 4 3 1 6 27 23 14 10 14 7 8 9 11 19 23 21 22 26 26 25 24 23 21 20 20 19 17 16 14 13 11 9 7 6 5 5 4 6 6 5 8 6 6 6 4 5 5 4
10 8 3 15 13 12 17 13 11 9 7 5 5 6 14 19 18 14 24 22 22 22 22 21 20 19 18 16 15 14 12 10 8 6 6 3 3 4 2 3 1 2 4 3 5 5 2 2 3
18 13 11 14 15 10 23 10 15 10 2 0 7 5 11 19 18 19 22 20 22 22 21 21 20 18 17 16 15 14 12 10 8 5 4 3 3 4 3 1 3 0 5 3 4 1 5 5 4
22 9 12 6 15 13 15 17 12 15 11 9 2 3 2 14 16 16 14 19 19 19 20 21 19 18 17 16 15 13 12 10 9 9 9 6 3 3 2 2 2 3 1 3 2 4 6 7 10
15 14 18 14 17 16 25 16 21 19 16 10 4 3 6 12 17 16 15 17 21 22 21 20 19 17 14 15 10 6 8 11 13 9 9 4 1 3 3 2 3 5 1 2 3 2 6 7 7
19 22 18 21 8 27 24 23 28 19 22 11 5 3 9 11 13 16 16 18 19 19 20 21 17 15 13 11 9 7 6 5 5 4 5 6 5 4 3 4 5 5 6 5 6 6 11 11 6
19 23 20 17 10 28 33 24 22 21 22 16 8 6 11 14 14 15 16 20 19 17 17 17 13 12 11 9 9 8 5 5 3 4 5 6 5 3 3 6 8 7 9 7 8 9 7 10 9
24 23 20 18 21 32 22 27 25 25 24 18 16 9 13 17 19 19 19 21 18 14 14 15 13 10 9 9 10 10 8 8 9 6 6 5 4 4 6 7 9 10 8 6 6 5 7 7 7
29 23 21 11 25 22 30 27 31 30 25 22 18 15 12 20 18 17 19 19 19 17 13 12 13 11 10 9 11 13 12 11 10 7 7 8 6 6 8 6 11 13 10 6 6 7 10 10 9
29 26 23 16 16 26 29 31 33 32 29 26 26 23 19 18 18 20 20 20 21 20 19 17 15 13 13 11 11 12 12 11 11 9 12 11 9 9 7 9 9 8 6 7 10 13 15 12 11
32 31 32 20 15 29 37 38 36 33 29 21 26 28 24 14 23 21 22 22 23 21 19 19 17 16 14 14 14 14 13 14 14 16 14 12 11 10 7 4 4 4 9 11 13 15 14 15 15
32 37 35 22 13 13 17 27 36 34 34 28 32 30 28 22 15 25 26 25 23 23 20 18 18 17 15 14 16 16 16 15 15 15 12 10 8 3 2 4 6 9 10 11 12 15 16 13 13
36 41 34 26 23 26 21 13 29 36 39 38 39 38 36 33 21 17 18 29 28 26 23 22 22 20 19 18 18 16 14 13 11 14 10 6 4 4 6 8 8 10 10 10 10 11 17 11 10
46 34 29 29 28 26 28 24 33 23 32 41 46 45 31 34 26 19 15 12 15 22 24 26 27 26 24 22 21 18 16 13 14 14 8 7 9 8 9 9 10 8 9 8 7 11 18 15 8
36 29 26 29 32 23 37 34 33 37 39 37 47 47 30 36 32 27 17 18 14 14 17 17 17 25 27 26 23 20 16 15 16 14 9 11 13 12 12 10 9 6 4 3 4 6 17 19 16
32 33 17 13 13 11 30 35 33 29 28 32 44 37 35 26 33 31 22 23 22 20 19 18 19 18 26 27 25 21 17 17 16 14 11 14 15 14 13 11 8 7 4 2 6 7 14 18 20
40 41 24 8 4 5 27 23 43 40 29 33 41 40 34 28 29 33 22 20 23 22 19 16 17 19 18 25 25 22 20 19 18 16 13 15 17 17 15 12 9 7 7 7 7 10 10 14 17
40 43 40 38 30 13 14 22 36 32 41 36 39 45 41 35 31 30 26 21 21 22 22 19 16 16 17 17 21 21 22 22 21 18 17 20 21 17 13 12 11 11 11 12 11 11 12 14 16
36 34 33 31 12 15 11 24 26 32 31 31 35 43 47 38 36 32 35 25 28 27 25 23 20 18 15 15 18 19 21 23 23 21 20 23 22 19 16 14 14 14 12 14 14 14 14 15 17
47 43 38 34 38 13 8 31 41 36 27 21 41 45 41 47 41 35 37 34 29 31 25 26 25 22 21 21 20 20 22 24 23 22 21 25 22 19 19 16 16 16 17 17 16 17 19 18 18
47 44 43 36 23 25 39 40 9 29 26 31 30 42 42 46 41 35 29 26 32 28 29 28 27 27 24 22 22 22 24 25 24 22 24 24 22 19 18 16 13 15 17 18 19 21 22 23 23

GFSSGP_700_spd_039.txt.gz
Wind_Speed
9 11 7 5 3 3 4 4 4 2 1 3 4 5 10 16 17 6 26 24 28 27 35 33 33 32 31 29 25 23 21 17 16 15 15 15 14 13 12 12 12 12 12 12 13 12 13 12 13
8 7 6 0 2 1 2 8 7 1 3 5 8 6 8 17 6 17 26 28 28 33 33 33 33 32 30 26 24 22 18 16 15 14 14 14 12 12 12 12 11 11 11 12 13 12 12 12 12
9 6 5 4 3 2 6 8 8 2 1 1 8 8 10 13 15 24 29 32 34 34 33 33 32 31 27 24 23 20 16 15 14 14 14 12 12 12 11 11 11 12 12 11 11 10 11 11 11
12 8 10 4 6 5 11 10 7 3 1 2 6 5 18 21 22 25 33 32 33 33 33 31 31 28 25 23 21 18 16 15 14 14 12 11 11 10 11 11 10 11 10 10 10 10 11 11 11
6 12 3 10 5 7 7 7 6 5 3 9 11 21 22 24 25 28 31 31 31 31 30 30 27 25 23 21 20 17 16 15 14 13 11 10 9 10 10 10 11 11 11 11 13 12 11 11 12
5 7 11 20 5 7 11 10 6 8 6 15 11 17 23 23 23 28 29 31 30 27 28 26 25 22 21 20 19 18 17 15 13 11 9 9 9 9 9 10 11 10 12 13 12 11 11 14 13
7 10 6 8 10 16 13 8 7 9 7 10 6 17 23 24 24 27 28 31 28 27 25 23 22 22 21 20 19 18 16 14 12 10 8 9 9 9 9 9 10 10 11 11 10 9 10 12 11
8 7 6 7 16 18 16 10 8 6 12 11 13 3 15 24 24 26 28 28 27 25 23 21 21 21 21 21 19 17 15 12 11 9 8 7 8 9 8 8 7 8 9 8 8 6 6 8 10
15 9 5 1 19 16 18 17 13 3 3 11 9 5 12 22 25 27 29 28 27 25 23 22 21 20 21 20 18 16 14 11 11 10 7 6 7 8 7 7 6 5 6 7 6 4 6 7 7
8 6 5 8 14 18 16 17 5 8 10 10 9 13 18 19 23 24 26 26 25 24 24 23 22 21 20 19 17 15 13 12 10 8 7 7 5 4 5 5 6 5 5 4 5 3 3 5 6
13 4 2 7 14 18 16 17 9 6 2 5 7 5 18 20 22 22 22 22 21 22 23 22 21 20 19 18 16 14 13 11 9 8 6 5 3 1 1 2 0 3 3 2 2 2 3 5 7
11 5 3 10 7 21 16 16 14 5 2 7 7 7 10 20 19 18 21 23 24 23 22 21 20 19 19 18 16 14 12 11 9 8 6 4 4 3 1 1 0 2 2 2 2 2 5 5 6
16 7 6 9 16 12 14 16 12 11 6 3 3 3 6 15 18 18 19 20 21 22 22 21 20 19 18 17 16 15 14 13 10 10 7 5 4 5 2 3 2 0 1 1 5 6 5 8 10
11 8 10 10 11 9 21 16 19 18 13 8 3 2 5 11 20 23 24 21 22 22 21 20 19 18 17 16 15 14 14 12 9 8 7 8 6 4 4 3 0 2 1 4 4 5 4 8 8
19 19 14 19 16 20 24 24 26 21 17 14 6 6 6 10 20 23 21 22 22 22 22 20 19 19 17 16 14 12 10 10 12 10 6 6 5 3 1 2 3 4 6 6 7 7 8 9 10
23 19 18 16 18 26 26 33 28 27 24 21 13 9 9 11 13 19 21 22 23 21 20 20 20 19 16 15 13 12 8 9 6 6 4 7 7 4 2 5 5 7 9 10 9 9 10 10 10
26 24 22 19 11 17 25 39 33 32 26 23 19 11 9 13 16 22 23 24 22 20 20 19 20 18 15 14 13 12 10 10 7 5 5 8 8 5 6 7 6 7 10 10 7 6 7 8 9
27 27 26 22 15 26 27 33 28 31 29 23 23 18 9 12 14 20 25 25 22 21 19 20 20 17 16 16 15 14 11 10 7 6 5 7 7 7 7 9 7 8 8 4 3 6 7 7 7
31 24 29 21 9 20 33 33 35 34 30 27 27 23 14 6 12 15 25 26 25 23 21 21 21 19 18 15 13 12 9 9 8 8 9 11 11 8 8 9 7 5 3 11 12 10 10 11 10
37 31 28 27 21 16 31 37 36 35 30 28 25 27 17 11 14 18 24 29 26 22 20 20 18 18 17 15 11 11 10 12 12 14 14 14 13 10 8 5 1 9 12 14 13 10 9 9 9
40 38 34 29 14 12 20 32 34 37 36 33 32 28 24 17 16 19 27 30 27 25 22 19 17 17 17 16 14 14 14 14 14 14 14 12 13 6 6 5 10 13 13 12 11 13 10 9 8
42 42 33 27 19 17 13 11 35 38 38 39 35 32 31 31 22 20 16 30 30 27 23 22 21 20 19 19 18 16 15 14 13 12 12 13 10 9 10 12 15 14 11 10 9 13 13 12 7
41 37 33 23 23 24 26 19 30 38 42 40 34 35 33 32 29 25 18 11 8 23 26 26 23 22 22 22 21 20 18 16 16 15 12 13 13 13 13 15 16 14 11 9 7 9 15 16 8
38 20 22 24 26 20 36 25 29 41 40 33 37 40 39 37 32 28 28 20 17 13 19 27 28 27 27 26 25 23 20 19 18 15 10 10 15 16 17 17 16 13 10 7 3 7 12 16 17
30 32 12 7 9 12 35 26 37 26 39 40 37 34 32 36 33 29 26 28 20 18 17 20 23 24 22 24 28 26 23 21 19 16 13 13 18 18 18 17 15 12 10 7 5 3 6 12 16
42 38 15 8 4 9 21 24 49 47 37 27 29 40 34 33 30 28 27 25 21 17 16 16 19 20 20 18 23 27 26 25 21 17 17 18 21 21 20 18 16 14 12 9 7 5 6 9 12
34 46 41 29 12 5 17 43 48 42 30 31 37 31 29 33 36 26 26 29 26 22 20 16 14 15 18 18 18 23 27 26 23 19 20 20 24 24 23 20 17 16 14 12 10 8 9 9 10
40 33 28 29 11 14 9 26 20 32 39 30 29 34 38 35 35 34 28 27 30 26 21 18 15 14 15 18 20 19 21 24 23 21 21 21 26 27 23 22 20 18 15 14 12 11 11 12 12
43 41 33 34 33 10 2 18 32 26 25 27 31 27 26 35 33 32 31 30 28 27 25 23 21 19 19 22 22 21 20 23 24 23 21 23 28 28 25 23 20 18 16 15 15 14 14 13 15
46 48 46 26 22 29 32 21 2 28 41 27 24 24 28 28 40 36 34 31 30 35 31 29 26 26 24 22 24 25 24 22 26 25 23 25 32 30 28 27 25 21 18 16 16 16 16 17 17

GFSSGP_700_spd_042.txt.gz
Wind_Speed
11 11 11 4 1 1 2 1 1 1 1 2 6 5 10 14 11 2 20 21 28 32 30 32 31 32 31 27 25 23 20 19 18 17 16 14 13 12 12 12 13 12 11 11 12 11 12 13 12
11 9 9 5 3 2 2 4 4 1 3 2 5 6 6 13 7 8 23 24 28 26 32 31 30 31 29 25 23 21 18 17 17 16 14 13 12 11 10 11 12 11 10 12 13 12 13 14 13
11 10 10 7 5 5 2 2 0 2 1 1 6 7 7 11 5 21 22 31 28 32 32 31 30 29 26 23 21 19 16 14 15 14 13 12 10 10 9 10 11 10 11 11 12 12 12 13 12
9 11 10 4 7 6 1 4 4 4 1 2 2 6 9 12 21 21 26 31 34 32 32 31 30 27 23 21 19 16 14 14 14 13 11 10 10 9 9 9 10 10 11 12 12 12 12 11 10
8 8 5 4 6 4 1 4 1 5 3 8 7 14 20 25 22 28 31 33 32 31 30 30 29 24 22 20 18 15 14 14 13 12 11 9 9 10 9 10 11 12 13 12 12 12 12 12 11
1 4 7 8 6 6 5 3 4 5 9 11 9 13 21 25 27 30 30 30 30 28 28 28 26 23 21 19 17 15 14 14 12 10 9 9 10 10 10 10 10 11 11 12 12 12 12 12 11
7 12 10 9 5 9 8 7 4 6 8 6 3 14 22 26 28 28 29 29 28 27 25 24 23 23 21 19 17 16 15 13 11 9 9 10 9 9 8 8 8 8 9 10 10 11 11 9 9
6 9 15 14 8 9 9 9 6 8 7 7 11 2 13 24 28 27 29 29 26 26 23 22 22 21 21 20 18 17 14 12 9 10 10 8 8 8 8 7 6 6 7 7 7 9 7 7 6
6 3 7 6 12 10 10 10 9 4 3 7 15 5 10 21 28 29 30 28 28 26 23 22 21 21 20 20 18 16 14 11 9 9 8 7 6 5 6 5 5 5 5 5 5 6 8 5 6
8 3 4 2 10 8 9 12 5 6 5 7 6 8 16 19 23 25 26 25 27 25 24 23 22 21 20 19 17 15 12 11 9 8 7 6 4 3 3 3 3 4 4 3 4 5 6 5 4
14 5 1 4 9 8 8 11 7 4 8 11 3 5 14 17 19 22 23 22 21 23 23 23 22 21 19 18 16 14 13 11 8 6 5 5 2 2 1 1 2 2 3 2 3 5 6 5 3
10 7 5 6 4 14 13 8 7 7 3 5 7 5 10 16 17 20 21 23 24 24 23 22 22 21 19 18 16 14 12 10 8 6 4 3 2 1 1 2 1 2 1 2 2 4 8 7 9
13 7 6 7 6 6 8 9 6 10 4 4 4 6 7 14 16 17 19 22 23 24 23 22 21 20 19 17 16 14 12 11 9 7 5 4 3 1 1 2 1 1 3 4 4 4 6 6 9
15 15 7 8 4 14 11 12 16 13 13 10 3 5 10 14 17 20 24 22 22 23 22 21 20 19 18 16 14 13 12 11 9 8 7 6 5 4 3 3 1 3 4 6 6 6 8 13 15
17 16 15 12 9 13 9 19 22 19 13 14 8 4 10 15 18 20 22 23 21 20 21 20 19 19 18 16 15 14 13 11 11 9 6 8 7 6 4 3 2 3 6 7 9 9 8 10 12
21 20 19 18 14 18 19 29 19 23 22 19 16 9 10 12 17 20 20 21 23 23 22 21 21 20 18 17 15 13 10 9 11 7 7 6 7 6 4 3 2 4 6 7 9 9 10 10 8
19 20 24 20 15 14 26 31 25 25 24 23 21 12 10 12 18 23 21 22 23 23 22 22 22 20 18 16 16 15 13 10 10 7 6 6 7 7 7 4 4 6 7 7 5 4 5 6 8
23 25 26 23 17 15 22 27 32 29 28 26 23 20 10 13 13 22 23 23 24 24 23 23 22 20 19 18 18 16 14 13 11 8 7 8 8 8 9 7 5 6 5 2 5 3 5 6 6
30 31 25 26 16 16 17 26 28 24 28 30 28 26 18 5 14 19 24 26 26 25 24 23 22 21 21 19 16 13 10 11 10 9 10 10 10 10 10 7 3 1 8 9 7 5 4 6 7
38 23 29 31 22 15 8 15 29 30 28 27 27 26 23 13 15 21 26 29 29 25 24 23 22 21 19 18 15 14 13 12 12 14 14 12 13 12 10 7 4 11 12 10 8 6 5 4 6
42 40 35 29 15 22 21 18 30 36 32 30 31 30 25 23 15 16 26 30 31 29 26 22 19 19 19 18 18 16 16 13 11 8 8 9 11 12 10 8 13 15 13 11 9 9 10 6 5
42 40 33 30 23 18 16 10 22 26 37 38 31 34 29 29 26 16 16 28 32 30 27 24 23 22 21 20 19 17 15 13 10 9 10 11 13 12 10 14 18 15 13 11 12 12 11 9 5
40 28 32 28 20 17 17 12 25 17 32 38 35 28 30 26 25 21 19 18 30 30 29 27 26 25 24 22 19 17 17 14 14 13 12 13 12 14 17 20 19 15 12 9 9 9 14 14 6
38 19 30 27 23 18 34 28 25 33 31 27 33 29 22 21 24 23 19 17 22 26 32 32 31 29 27 25 23 20 17 16 17 15 13 12 14 18 21 23 20 16 13 9 5 4 10 14 15
40 29 4 6 6 12 27 30 42 18 34 26 27 26 18 21 23 23 25 28 26 27 24 29 34 33 31 28 25 23 21 19 20 17 15 13 17 21 23 23 20 17 14 10 7 2 2 7 12
37 42 15 7 5 13 12 21 31 39 30 23 30 31 27 29 29 24 25 25 30 30 28 26 24 32 35 34 31 26 23 23 23 21 17 16 19 22 25 23 21 19 16 14 9 6 3 4 7
38 39 45 9 3 4 15 38 38 35 35 32 26 30 27 26 30 31 24 27 31 32 28 27 25 20 21 25 23 21 18 23 24 21 19 19 22 25 26 26 23 21 19 16 13 10 7 6 5
33 40 28 32 6 6 7 15 16 30 47 42 39 34 28 28 25 26 29 29 32 32 31 26 25 25 21 20 21 19 18 17 21 24 22 23 25 28 29 27 25 24 21 19 16 14 11 8 9
42 32 35 30 25 6 1 10 24 22 22 38 47 36 25 22 23 27 27 29 30 33 32 28 25 23 24 24 23 21 21 21 19 24 25 26 28 33 32 29 26 24 22 20 18 16 15 11 12
49 47 42 25 15 37 23 17 1 14 33 22 23 30 31 27 21 18 22 29 34 33 33 33 29 26 23 22 22 21 20 21 23 22 25 29 30 33 35 33 31 28 25 21 19 17 16 14 14

GFSSGP_700_spd_045.txt.gz
Wind_Speed
13 12 10 4 3 4 2 2 2 2 3 2 8 11 7 8 8 6 17 24 29 32 32 32 31 31 29 26 23 21 19 19 18 16 15 14 14 14 10 10 11 12 12 11 11 12 12 12 12
10 11 11 6 4 2 4 2 2 0 3 4 6 7 9 13 8 9 19 27 32 31 32 32 33 31 27 24 22 19 18 18 17 15 13 12 13 11 10 10 10 11 12 11 11 12 11 10 11
9 10 7 5 5 6 3 2 2 2 2 3 5 6 7 11 8 23 23 28 32 31 30 33 32 29 25 23 20 18 17 17 15 13 12 11 10 10 9 10 11 11 11 12 12 11 12 9 10
8 9 3 5 8 5 5 4 5 4 2 2 5 6 10 14 13 24 30 29 29 32 31 32 31 27 24 21 19 18 16 15 14 12 11 10 9 10 9 9 10 10 11 12 13 12 10 9 11
6 5 4 1 5 3 3 2 4 5 2 5 4 5 14 18 27 23 31 30 31 33 31 32 29 25 22 19 18 17 15 14 13 11 10 9 8 9 10 10 10 10 12 13 12 12 11 10 9
3 0 3 4 1 1 2 1 4 5 7 9 10 14 25 24 24 27 31 33 32 30 30 30 27 24 20 18 17 16 15 13 12 10 9 9 8 9 9 10 11 10 11 12 12 11 10 9 8
5 6 3 5 3 2 4 1 3 4 6 8 8 14 24 27 27 29 33 31 32 29 28 27 25 23 20 18 17 16 14 12 11 9 10 9 9 8 8 8 7 8 10 10 9 9 9 9 8
7 14 15 8 4 5 7 5 4 4 4 10 11 7 18 28 30 30 31 30 30 29 27 24 23 22 20 18 18 16 13 12 10 10 9 8 8 8 8 7 6 6 7 8 10 8 7 8 6
4 6 11 9 4 7 7 4 4 4 3 9 12 9 14 24 30 31 31 31 29 28 25 24 22 21 20 19 18 16 13 11 11 9 8 8 7 6 6 5 5 5 5 6 7 7 7 6 6
5 6 5 2 6 5 6 4 2 5 2 9 10 8 15 20 25 28 29 27 28 26 25 23 22 22 22 20 18 16 13 11 10 8 6 6 5 5 5 6 4 4 4 4 5 5 4 4 5
11 4 5 3 6 6 5 7 3 2 7 3 3 4 12 18 22 26 25 23 23 23 24 23 23 23 22 20 18 15 12 11 8 6 4 3 3 3 1 1 2 2 2 3 1 3 5 5 6
10 9 6 7 4 8 11 8 5 6 3 5 2 3 8 14 18 22 23 24 24 23 23 23 23 23 21 20 17 15 12 10 7 6 4 2 1 1 2 2 2 2 0 3 6 5 5 4 7
12 11 7 6 5 3 10 9 8 7 4 3 4 7 9 12 15 20 22 23 23 23 24 24 23 23 21 19 17 14 12 10 7 5 4 3 2 2 0 2 2 1 1 3 4 6 6 5 10
14 15 11 7 8 9 5 9 12 12 9 4 1 4 13 14 15 20 24 24 24 25 24 24 23 22 19 17 15 14 12 10 7 6 5 6 4 3 2 2 2 2 2 3 5 7 8 8 12
23 14 11 11 7 11 10 15 17 17 11 12 8 3 10 18 20 19 19 22 24 24 25 23 22 20 18 17 16 14 12 9 9 8 8 8 6 4 2 3 4 5 6 6 8 9 8 10 13
20 18 13 16 12 11 15 12 8 12 14 12 14 9 8 14 18 20 22 22 25 25 23 23 22 20 19 17 15 14 12 10 10 9 11 9 9 6 4 4 5 6 7 6 7 6 7 9 8
19 15 21 19 18 14 20 17 15 16 14 20 20 15 9 11 16 21 25 26 26 25 23 23 22 20 19 18 16 15 14 12 10 7 10 10 9 8 6 6 6 6 7 6 6 3 5 7 8
14 16 19 23 17 18 18 21 21 18 16 19 21 20 15 11 11 21 26 26 26 26 26 26 24 22 20 19 19 18 17 14 11 9 7 8 8 7 8 8 7 7 5 4 2 1 4 6 6
14 21 18 24 22 18 21 22 23 20 23 23 24 22 20 7 14 20 26 28 29 29 28 27 25 22 22 20 18 15 13 12 11 10 10 9 9 9 9 7 7 5 4 3 2 1 4 5 5
34 25 25 21 13 21 21 18 11 17 18 21 17 22 21 17 17 18 25 27 29 28 27 27 24 23 22 19 16 14 13 13 12 14 14 13 12 11 10 8 7 8 8 6 2 3 3 3 5
39 36 27 16 11 19 26 25 23 17 19 23 23 24 23 23 15 20 23 26 28 30 29 26 24 22 21 19 19 17 17 14 13 13 13 12 14 13 12 10 11 12 10 7 5 6 6 3 3
36 37 32 29 17 18 14 21 24 26 21 24 26 27 23 29 25 19 23 26 30 30 28 27 26 25 22 21 20 18 16 13 10 10 12 15 16 14 12 12 17 15 13 9 9 9 8 4 4
33 30 32 30 25 21 23 16 28 22 28 24 25 23 28 25 29 25 21 22 27 31 31 29 27 26 24 23 21 19 18 15 15 15 14 14 15 14 15 19 21 18 16 11 10 10 12 9 4
28 15 18 21 18 23 35 23 29 28 34 27 22 24 23 27 29 29 25 20 21 30 34 33 31 29 28 26 24 22 20 17 16 14 12 11 12 14 19 24 23 21 17 13 9 7 9 11 11
31 26 12 12 13 15 22 23 40 15 36 38 26 21 22 24 26 28 29 29 25 27 32 35 34 33 31 30 29 26 22 20 17 15 14 12 12 16 22 24 23 20 18 14 9 6 1 5 8
40 38 17 15 16 15 22 22 31 35 38 10 18 25 24 26 20 21 23 25 26 24 28 29 34 36 35 33 31 28 25 23 21 19 17 13 14 19 25 26 25 22 19 15 13 10 5 1 3
30 46 38 20 8 7 22 27 32 24 23 34 39 30 26 26 24 17 16 23 27 31 31 30 28 25 33 36 34 33 30 27 25 23 19 16 17 23 28 29 27 25 21 19 16 13 10 7 4
27 33 23 30 14 15 10 17 29 23 41 40 33 34 27 25 20 18 16 20 25 28 31 32 31 29 26 24 32 36 33 28 24 23 23 21 19 26 30 32 30 27 25 22 19 15 13 11 10
33 34 30 25 22 10 9 17 18 27 26 22 31 38 26 27 20 17 18 17 18 25 29 31 32 30 30 29 24 21 22 24 23 22 22 24 23 28 33 34 32 30 27 24 22 18 16 15 15
36 35 40 26 17 32 15 14 5 4 21 24 22 22 32 34 20 20 16 21 27 24 28 32 32 33 29 27 27 27 26 25 25 24 22 23 26 29 35 37 35 33 31 27 24 22 19 17 17

GFSSGP_700_spd_048.txt.gz
Wind_Speed
13 9 5 4 2 3 1 3 5 5 4 5 7 5 8 5 5 5 18 26 30 31 33 35 31 29 27 24 21 21 21 19 18 16 14 12 11 11 12 12 12 12 11 11 10 10 11 12 10
8 6 4 3 1 0 6 5 5 2 1 4 7 4 5 9 6 14 23 35 32 32 32 31 31 28 26 23 21 20 19 18 16 15 12 11 11 11 10 10 11 12 11 11 11 11 10 10 11
7 6 4 3 3 4 5 4 3 3 1 5 7 7 9 11 5 17 29 34 32 33 31 31 29 27 25 22 20 20 18 16 15 13 12 11 11 11 9 10 11 11 12 11 10 10 10 10 12
6 5 5 5 5 5 6 4 5 5 3 5 8 6 8 10 9 24 31 36 33 31 32 31 29 26 23 21 19 18 17 15 13 12 11 11 10 10 9 9 10 11 12 10 9 9 9 10 10
5 4 1 1 4 4 4 5 6 3 2 4 8 9 12 16 22 24 33 34 32 31 32 30 28 25 21 19 18 17 16 14 12 11 11 11 11 10 9 9 11 11 11 10 9 10 10 9 8
4 2 3 2 4 2 4 5 5 3 5 3 5 10 18 19 25 28 32 31 31 31 32 28 27 24 20 19 17 16 16 14 11 10 11 10 11 10 10 11 11 11 10 9 9 10 10 10 11
6 5 4 2 3 3 5 7 5 5 5 7 8 15 24 29 25 30 30 32 32 31 31 28 26 23 20 18 17 16 15 13 11 11 10 10 10 9 9 9 9 9 9 8 8 9 10 9 11
7 8 4 9 7 8 6 6 5 7 5 11 9 13 23 29 30 30 32 34 32 31 30 27 25 23 20 18 17 16 14 13 12 11 9 9 9 9 7 8 8 7 8 9 9 9 8 8 8
1 6 9 6 6 7 9 6 4 3 5 11 9 12 18 27 33 33 33 34 33 30 29 25 24 22 20 19 17 15 14 12 11 9 9 8 8 7 6 6 7 7 6 7 7 7 8 7 7
4 7 8 6 6 8 8 6 3 4 5 12 8 10 18 25 31 34 32 32 30 29 28 26 24 21 20 20 17 15 13 12 10 9 7 7 6 6 6 6 6 6 5 5 5 6 7 9 9
8 7 6 3 6 6 6 7 4 6 8 7 5 3 14 21 27 30 29 29 27 25 26 25 24 22 21 20 18 15 14 12 10 7 6 5 4 2 1 2 2 2 4 5 2 5 6 5 4
11 7 7 5 8 3 7 7 7 7 5 6 4 5 8 18 21 24 26 26 27 26 25 25 23 23 22 20 18 15 14 12 8 6 4 4 2 2 3 2 2 3 3 2 3 3 6 6 7
14 10 8 8 5 5 8 10 8 9 4 3 3 10 15 16 19 21 23 24 25 24 25 25 24 24 22 20 18 16 14 11 8 6 4 3 2 2 2 2 2 1 2 4 5 5 5 6 8
11 17 11 9 7 6 9 8 11 11 8 4 3 8 17 16 18 22 26 27 25 25 25 25 24 23 21 19 16 14 12 10 8 7 5 4 2 2 1 2 1 2 3 3 5 8 7 7 9
15 11 14 12 11 9 10 11 12 13 10 10 4 5 15 18 20 21 23 24 25 26 26 26 24 23 20 18 17 14 12 9 8 7 7 6 5 4 2 3 2 3 4 5 7 7 7 10 10
16 16 17 15 16 13 13 11 15 13 13 9 11 7 9 17 18 20 23 23 25 26 27 26 25 23 20 18 16 14 12 10 9 9 8 7 8 7 4 3 3 5 4 7 7 7 9 9 6
20 20 21 16 18 13 15 12 10 11 11 16 14 11 9 13 19 22 24 25 27 27 28 27 25 23 21 19 17 15 13 11 10 8 8 9 10 8 6 4 4 6 7 10 9 6 5 6 8
24 25 20 21 18 18 15 16 11 16 16 19 17 16 16 11 14 22 25 27 28 29 28 28 26 24 22 20 19 17 14 12 10 8 8 9 11 9 7 6 7 8 5 7 2 2 3 5 6
21 19 23 21 14 17 19 18 14 15 19 20 20 18 18 16 13 19 25 30 31 32 31 29 27 25 24 22 19 17 14 13 11 10 10 8 9 10 7 7 8 7 6 3 3 2 3 3 5
30 23 25 21 18 17 18 18 15 18 20 22 22 18 20 20 18 19 24 29 33 32 30 29 27 26 23 21 18 17 14 13 12 13 13 11 11 10 10 6 8 8 6 4 1 2 2 1 3
33 33 26 23 17 20 17 21 20 17 17 21 23 19 21 24 22 18 21 26 29 32 32 31 28 26 24 22 21 19 19 17 14 12 11 12 13 13 12 10 10 9 8 5 3 1 1 3 3
37 32 25 22 19 19 17 23 24 24 21 21 22 24 21 22 26 20 21 25 28 28 30 31 30 28 25 25 24 21 17 14 11 11 12 14 15 15 14 13 12 12 12 7 5 3 2 5 4
34 25 25 28 26 24 28 18 26 18 25 25 23 24 25 21 26 27 19 19 23 25 31 32 30 29 27 25 23 20 19 15 15 15 14 13 14 16 16 15 16 17 14 10 8 6 6 6 6
21 25 23 22 27 27 36 32 30 28 26 25 25 23 25 25 25 29 26 19 23 26 31 33 32 29 28 26 25 22 19 17 17 16 14 13 13 14 16 18 20 20 17 13 10 7 7 7 5
33 29 17 18 23 21 29 35 37 16 26 26 25 26 26 26 21 24 32 29 22 28 31 34 33 32 30 28 27 24 21 21 19 17 17 16 14 14 15 20 22 21 19 17 11 7 4 5 6
39 38 24 20 15 21 26 25 40 33 28 9 28 25 22 29 24 25 26 29 28 22 27 33 36 34 33 30 28 26 25 25 23 22 19 17 15 15 18 21 24 24 23 20 15 11 7 4 2
37 44 37 21 16 13 26 32 25 20 27 31 27 22 29 26 32 28 24 25 30 31 25 23 33 34 34 33 31 30 28 29 27 25 21 19 17 17 20 23 25 26 25 22 20 17 14 9 7
26 33 35 36 22 20 17 24 25 18 33 26 28 31 23 28 31 27 23 20 22 26 30 27 26 26 27 27 29 34 33 31 30 28 27 24 20 20 22 25 27 30 28 25 23 20 18 13 11
39 31 42 30 30 13 14 19 23 24 24 27 26 29 29 29 31 29 23 17 18 21 27 32 35 30 29 28 27 23 30 35 33 33 32 29 24 23 25 28 29 31 31 28 27 23 22 17 15
37 36 41 32 32 39 26 17 8 6 14 22 22 23 26 28 26 27 24 18 16 15 22 29 33 37 36 32 31 29 21 22 28 33 31 29 28 26 27 30 33 33 33 32 31 26 24 22 20

GFSSGP_700_spd_051.txt.gz
Wind_Speed
8 7 4 2 2 4 1 3 10 6 6 7 9 7 8 6 4 9 29 31 38 33 34 35 30 28 26 23 22 21 19 16 15 14 13 12 12 12 11 11 12 12 11 10 10 9 9 8 7
5 5 1 1 5 1 6 6 6 7 7 9 10 10 7 9 9 24 32 31 35 34 34 31 29 26 24 22 22 21 18 16 14 13 12 11 11 12 12 12 12 12 11 11 10 8 9 10 9
4 4 1 3 4 3 5 7 5 6 8 6 6 8 9 10 11 21 30 34 33 34 32 31 29 25 22 22 22 19 17 14 13 13 11 10 11 12 12 12 12 10 10 10 9 8 10 12 12
3 3 2 3 5 7 8 8 7 7 6 5 10 4 7 10 9 27 35 33 34 33 33 31 28 25 21 21 20 18 16 14 12 11 10 11 11 11 12 12 11 9 9 10 10 10 10 10 8
7 4 5 3 7 10 6 7 7 4 4 5 7 5 10 13 20 33 35 34 33 31 31 30 27 23 20 20 19 17 15 13 12 11 11 10 12 12 12 11 10 10 10 11 11 11 11 10 9
5 4 13 7 8 8 5 7 5 5 8 7 6 8 12 16 25 33 35 34 31 30 29 27 25 23 20 19 18 16 14 12 11 11 11 11 12 12 12 11 10 10 11 11 11 10 12 12 14
9 10 17 11 4 10 7 7 5 5 7 7 8 13 18 26 26 32 31 32 27 27 28 25 24 21 19 18 18 15 13 11 11 11 11 11 11 11 10 10 10 10 10 9 10 10 10 12 13
9 12 14 5 6 8 9 7 7 7 9 14 5 9 25 28 30 33 34 30 29 25 28 25 23 20 19 17 16 15 12 11 12 11 11 11 11 9 9 9 9 8 9 10 10 9 10 10 11
7 11 10 6 11 7 10 7 8 8 11 8 4 9 24 28 33 33 31 33 34 24 28 24 22 20 19 17 16 14 12 11 11 11 10 8 10 10 9 7 8 6 6 7 8 9 9 10 10
13 13 2 8 5 12 11 8 6 8 11 10 12 16 18 28 35 33 32 34 32 26 26 24 22 19 18 18 16 14 12 12 11 10 9 4 8 6 7 6 6 5 5 6 7 7 10 8 9
14 18 4 5 7 9 10 8 8 8 10 10 13 9 15 24 32 30 31 32 30 25 23 23 24 21 19 17 16 14 13 12 10 9 7 6 6 2 2 6 4 4 5 6 5 9 13 9 6
16 12 7 8 9 4 9 13 8 6 9 11 12 9 11 18 26 29 29 29 28 26 25 24 25 23 22 20 17 14 12 10 8 7 6 5 6 6 7 3 5 7 6 6 6 4 6 6 4
19 10 12 10 9 7 6 7 10 7 10 11 11 12 17 17 23 24 22 23 24 26 26 25 25 23 22 20 19 15 14 10 8 5 4 3 7 2 5 2 1 1 2 4 1 4 3 3 3
15 17 14 14 12 11 11 12 9 12 11 14 6 13 21 23 24 25 26 25 25 25 25 24 24 23 22 20 17 15 14 10 7 5 3 3 3 6 4 1 2 4 6 4 8 7 4 8 8
16 16 20 18 15 15 15 17 18 19 16 15 5 14 21 24 25 26 27 27 26 25 25 25 25 23 22 19 17 15 12 9 8 6 5 5 4 5 4 3 1 6 7 7 9 8 8 3 13
22 20 22 22 20 17 20 23 16 15 18 17 17 12 19 24 26 25 26 25 24 24 25 25 25 23 22 20 18 16 13 10 8 7 7 5 5 5 4 2 4 4 7 12 8 5 1 5 7
24 25 24 22 23 21 21 16 29 20 18 19 20 17 13 20 25 25 26 25 26 25 26 26 26 24 23 20 17 15 12 10 9 8 8 7 6 8 6 5 4 7 4 11 7 3 4 9 5
29 28 24 24 26 24 19 14 14 21 16 18 20 21 20 17 20 24 25 26 27 28 27 27 27 26 24 21 18 15 13 11 9 8 8 7 7 8 7 6 7 8 8 7 4 1 5 2 2
26 26 25 24 19 25 23 18 14 15 18 19 20 24 23 23 21 24 25 28 29 30 29 29 29 26 24 22 19 16 13 11 10 9 9 7 8 8 7 4 11 8 7 7 4 4 4 4 5
31 27 28 20 19 24 24 22 19 20 21 21 23 24 24 23 25 25 24 28 31 31 29 30 29 27 25 22 19 17 14 13 13 12 11 10 9 6 7 7 11 4 9 7 4 5 4 2 2
37 33 26 27 23 21 19 23 21 23 20 20 24 23 24 26 27 26 24 27 28 32 32 30 29 28 26 24 21 19 17 16 15 13 11 10 10 9 9 9 10 7 9 6 5 4 0 4 0
40 36 29 26 27 28 26 24 26 25 24 22 26 27 24 27 28 28 23 24 29 29 30 29 28 29 28 26 23 20 17 16 13 12 12 12 12 12 11 12 12 10 11 8 5 4 2 6 4
38 30 32 28 27 27 26 31 25 30 30 26 26 28 26 27 28 30 22 19 21 27 29 30 30 30 29 26 23 20 19 17 16 15 14 11 11 12 12 13 13 14 13 10 6 2 1 5 5
29 29 28 31 31 28 35 31 26 24 24 28 26 27 28 28 28 29 29 21 22 25 28 30 33 32 30 26 24 22 20 19 19 16 14 13 13 13 13 14 15 16 16 13 9 6 4 3 6
30 31 24 23 25 17 38 37 35 25 26 25 27 28 28 29 29 31 31 30 23 29 31 32 33 32 30 28 26 23 21 21 20 18 17 16 16 14 13 14 15 17 19 17 13 9 6 5 5
35 38 27 22 19 20 35 38 41 33 20 26 27 28 28 29 31 31 32 31 23 20 26 28 31 32 32 30 26 24 22 22 22 21 19 17 17 15 16 14 16 19 21 20 17 12 9 6 4
38 46 40 32 30 24 35 32 35 27 32 32 23 27 30 28 31 32 32 32 24 25 20 26 30 33 33 31 28 27 25 24 23 21 21 21 19 18 19 17 17 20 23 23 20 16 13 10 7
42 33 39 37 24 19 28 20 29 29 24 31 35 24 30 28 31 31 31 33 26 22 19 19 19 25 30 33 32 30 28 27 26 26 26 25 22 21 23 20 19 22 24 24 23 21 18 15 13
44 39 45 35 33 17 12 16 20 22 22 28 29 34 28 31 28 30 32 32 24 25 27 27 26 22 25 31 33 33 33 33 33 32 28 28 26 25 26 25 21 23 25 26 24 24 23 20 17
39 43 40 35 33 34 23 13 9 11 18 23 28 26 32 27 28 29 30 30 31 31 29 27 28 29 26 24 25 25 26 23 27 33 33 30 30 29 28 29 24 24 26 27 27 26 27 26 22

GFSSGP_700_spd_057.txt.gz
Wind_Speed
6 5 2 3 4 2 3 2 7 13 14 13 14 10 10 15 23 12 35 33 30 30 30 28 25 24 23 21 20 19 18 16 16 15 14 15 14 14 13 12 13 12 12 13 13 13 11 10 8
5 5 1 4 4 5 7 6 12 16 16 13 15 12 8 15 17 23 32 32 32 29 29 26 25 23 23 22 20 19 17 16 15 15 14 14 14 15 14 13 13 14 13 13 14 15 15 11 10
4 1 3 5 6 6 5 13 17 22 11 7 11 11 8 14 18 31 30 29 32 32 29 26 24 23 23 21 20 18 17 15 15 14 14 14 14 14 14 14 14 13 13 14 14 14 12 10 11
5 2 4 6 6 8 7 12 16 19 8 4 6 14 22 25 27 35 33 29 35 33 27 25 24 24 23 21 19 17 16 15 15 14 14 13 14 15 15 15 15 15 16 16 15 14 13 8 10
2 2 5 2 13 9 11 15 9 9 5 4 7 15 24 26 31 28 32 30 35 31 27 25 24 24 22 20 19 17 15 15 15 14 13 14 15 16 16 16 16 16 16 16 15 17 21 20 14
1 8 8 11 8 6 9 11 17 10 8 3 8 17 28 29 32 29 30 32 32 29 27 25 24 24 22 20 18 17 15 15 15 15 16 16 16 16 15 15 14 15 15 15 15 16 18 19 19
3 5 5 3 5 10 8 12 8 7 3 3 3 17 32 33 29 33 32 33 31 28 26 24 24 24 22 19 17 16 16 15 15 14 14 15 15 15 14 15 14 14 13 13 14 13 12 13 13
5 10 13 12 8 3 8 11 12 10 2 2 7 18 33 38 33 34 34 33 30 28 25 22 22 23 22 19 17 16 16 15 15 14 14 12 12 13 13 12 12 11 10 12 12 12 14 14 12
2 19 23 15 6 2 10 18 11 6 3 3 7 7 28 36 35 33 34 33 31 28 25 22 21 22 21 19 17 16 15 15 14 14 13 13 10 12 12 10 11 9 9 13 11 11 9 15 11
13 17 18 11 3 8 1 7 3 11 9 7 2 15 30 38 38 36 32 32 32 28 25 22 21 21 21 19 17 16 15 13 13 11 11 9 10 11 10 11 9 7 8 9 10 8 9 12 12
16 23 17 11 8 9 11 15 12 13 10 6 1 21 31 37 38 35 30 25 30 27 24 22 20 21 21 19 17 15 13 12 14 11 10 8 9 9 9 9 8 7 6 9 12 6 8 10 7
17 22 14 11 11 11 11 13 15 12 7 1 2 10 21 31 34 33 31 27 33 28 24 22 21 22 22 20 17 13 13 10 16 11 8 9 9 7 5 5 5 4 6 9 10 6 6 6 6
24 26 9 4 15 19 8 12 2 15 13 6 2 11 19 28 31 31 29 25 24 27 26 24 22 21 23 22 18 15 15 14 10 11 8 3 4 7 6 4 5 6 4 5 8 6 6 7 5
20 27 25 24 11 26 15 15 12 15 10 7 4 11 20 25 26 30 31 27 24 21 23 25 23 19 23 21 20 19 15 11 12 8 4 3 3 6 2 2 4 6 8 7 7 5 5 3 10
24 26 26 28 24 14 24 24 23 17 9 4 5 12 19 23 25 26 26 27 24 23 19 20 22 20 18 17 15 16 16 11 9 10 5 3 4 2 2 4 4 3 6 6 7 4 7 4 9
26 25 33 21 22 18 34 31 30 19 19 10 8 10 16 20 23 20 25 25 24 21 26 21 22 23 21 19 16 12 13 12 9 8 5 3 1 3 3 4 7 6 3 6 11 11 6 7 11
30 32 27 25 22 17 35 32 29 20 18 23 16 10 13 16 18 19 21 17 18 21 25 22 22 24 23 21 19 16 13 10 9 6 7 5 5 5 4 3 2 3 11 12 6 12 8 6 8
30 25 25 27 24 30 32 19 27 20 20 30 25 25 19 17 18 18 19 19 17 19 20 19 22 25 24 23 21 18 15 12 8 5 4 5 6 5 4 4 4 5 11 9 7 7 9 2 4
30 31 26 30 30 19 32 26 22 20 31 23 27 31 31 24 20 22 21 22 24 24 22 21 23 25 26 24 22 19 15 12 9 6 4 5 5 4 5 2 3 2 5 9 6 6 7 5 7
35 35 31 26 24 27 30 25 26 29 31 15 31 28 30 32 31 34 34 32 34 31 26 23 23 24 24 22 21 19 16 13 10 9 6 5 5 5 6 4 4 1 4 6 4 5 9 5 8
36 38 34 30 25 21 17 21 28 30 26 20 36 30 20 37 32 37 40 40 36 31 27 26 24 24 24 22 22 21 20 17 14 10 7 5 6 5 6 5 3 3 3 2 2 3 5 4 4
37 37 36 34 26 14 35 15 34 24 27 27 40 35 30 40 32 33 32 31 29 27 25 26 26 25 24 25 24 21 17 14 11 10 9 8 7 7 7 6 5 5 2 1 2 3 3 4 4
40 32 35 38 33 25 25 20 35 38 36 39 48 35 30 34 28 26 24 15 21 22 25 26 28 27 26 26 24 21 19 15 14 13 12 10 9 8 7 6 5 6 3 2 2 1 3 5 5
32 31 34 36 34 23 27 31 21 47 39 44 44 34 36 36 28 23 15 18 19 23 25 27 30 28 27 27 25 23 20 18 17 14 12 10 9 8 6 4 4 6 6 2 5 1 1 3 6
34 34 20 15 16 12 32 22 21 31 26 34 44 36 43 37 30 26 24 22 21 20 25 28 31 32 29 29 26 24 22 20 18 15 13 10 7 4 4 7 4 4 7 4 6 4 1 1 4
39 43 20 11 6 12 29 23 32 29 22 27 39 29 39 41 33 32 27 21 19 19 19 25 29 31 32 30 28 25 24 22 19 16 13 11 8 6 6 6 4 3 5 7 7 5 4 3 4
38 46 37 25 18 9 21 30 32 30 28 26 30 40 38 39 37 38 32 25 18 19 15 20 25 27 28 26 28 26 24 23 21 17 15 14 11 9 9 6 4 3 4 7 9 9 8 7 6
43 35 37 34 9 11 19 30 39 32 37 31 33 34 44 42 41 38 35 27 22 15 17 12 21 25 25 27 29 28 25 23 21 20 17 14 12 12 13 10 8 6 7 5 10 12 13 11 10
40 40 44 34 28 6 5 25 36 40 34 36 37 29 41 43 44 39 33 28 24 15 23 18 17 26 28 29 27 28 28 25 25 23 21 18 16 16 16 15 13 9 8 9 10 14 16 15 14
44 45 38 32 30 31 20 27 14 21 39 38 45 35 28 41 44 41 34 28 25 17 26 24 20 23 26 27 30 29 29 29 28 27 24 22 19 18 18 19 18 13 10 13 13 13 16 18 18

GFSSGP_700_spd_060.txt.gz
Wind_Speed
6 5 0 4 2 2 3 1 9 12 16 9 13 8 14 10 15 6 34 34 32 31 31 29 26 24 23 22 21 19 17 17 16 15 14 13 14 14 14 14 13 12 12 12 12 10 10 9 9
5 3 1 4 2 2 5 3 7 13 16 13 12 9 10 14 3 29 35 35 31 30 30 27 26 24 23 22 20 18 17 16 16 15 15 15 15 14 14 15 14 13 13 14 15 14 12 10 10
6 4 1 2 2 6 8 5 11 19 11 4 10 11 12 17 11 30 29 33 30 30 27 26 25 24 23 21 20 18 16 15 15 15 15 15 15 15 15 14 14 14 14 14 13 11 9 10 12
5 1 4 3 2 9 7 10 20 13 13 5 5 8 14 19 19 28 27 33 30 29 26 25 25 24 23 21 18 17 16 15 15 16 15 15 15 16 15 15 15 15 15 14 14 15 10 11 13
7 4 5 1 8 7 9 6 24 13 9 9 7 9 18 24 30 29 26 33 31 28 26 24 24 24 22 21 18 17 15 15 16 15 15 16 16 17 16 16 16 16 15 16 17 17 17 15 12
4 11 6 7 6 2 11 10 18 14 6 6 10 14 23 30 32 30 27 32 31 25 25 24 25 24 22 19 18 16 15 16 16 16 16 17 17 17 16 16 15 15 14 13 13 15 17 16 14
5 4 5 8 7 11 5 11 12 10 5 4 7 21 25 32 31 29 29 32 30 25 23 23 25 25 23 20 18 16 16 16 17 17 16 16 16 17 17 16 15 14 13 12 12 12 13 13 12
7 5 5 9 1 10 3 8 19 9 2 4 9 22 31 35 30 30 31 31 28 25 22 22 24 24 22 20 18 16 17 16 16 15 14 14 14 14 15 14 15 15 12 11 11 12 12 12 12
11 7 11 11 6 3 9 16 15 7 8 5 13 8 27 33 31 32 36 33 28 27 23 22 24 24 22 19 17 17 16 16 15 14 13 12 13 12 12 12 15 12 12 10 11 7 7 13 14
16 15 10 2 4 7 7 8 12 6 8 6 7 16 34 34 37 35 35 32 29 27 25 23 24 23 21 19 18 17 16 16 15 14 12 12 11 11 8 11 13 14 9 8 5 8 11 11 11
16 11 4 1 6 8 8 8 12 5 4 1 1 15 36 34 38 34 32 30 27 26 25 23 23 23 21 19 18 17 16 15 14 14 14 12 11 11 7 9 13 13 13 6 8 4 6 7 10
18 13 2 8 6 9 12 5 20 8 4 8 4 9 27 34 38 33 31 32 30 28 24 22 23 23 22 20 19 18 15 13 17 12 11 12 9 7 7 8 9 6 6 7 7 2 2 3 3
21 14 6 4 12 11 9 6 21 12 10 2 3 9 21 31 34 33 29 31 30 27 26 23 23 23 22 21 20 18 16 14 14 14 12 8 6 4 6 6 7 5 6 1 3 3 0 2 2
18 14 13 15 11 17 11 12 16 20 15 3 1 11 17 21 28 33 32 30 31 28 26 25 23 23 23 21 20 17 15 16 14 14 12 8 10 4 4 7 5 6 5 6 3 0 3 2 2
19 19 17 23 21 10 17 13 14 21 12 3 1 11 21 25 28 27 23 26 30 29 26 26 24 23 23 20 18 17 16 14 13 13 12 10 7 6 5 6 4 3 3 4 4 5 2 6 4
19 21 25 26 29 23 19 16 20 17 15 12 7 11 21 25 27 25 25 23 24 26 28 27 26 24 23 22 15 14 16 15 11 8 7 8 7 6 5 5 4 2 5 5 6 8 7 7 10
25 26 24 25 28 32 30 25 23 13 12 15 10 9 18 24 25 26 23 22 23 18 22 33 28 26 23 21 18 14 13 10 12 9 7 6 6 6 5 3 6 4 6 4 7 7 6 8 8
23 16 23 26 21 38 28 32 32 19 23 24 17 14 16 21 23 24 24 26 25 23 19 22 25 24 23 21 20 18 16 12 8 7 7 6 5 5 7 4 1 3 6 6 10 7 5 5 6
23 21 24 21 20 29 25 35 33 22 32 33 29 21 15 16 18 25 24 27 25 23 18 21 26 26 25 25 23 20 15 12 9 7 7 6 6 6 8 5 3 2 5 6 7 6 5 8 10
27 25 30 26 20 26 29 33 37 30 28 35 27 19 19 17 22 25 27 27 27 23 20 21 24 26 26 25 22 19 15 13 10 10 9 8 6 5 5 5 2 3 1 4 5 7 7 8 10
34 35 35 33 21 16 19 28 33 32 33 33 30 26 24 25 26 26 27 26 26 24 22 23 24 26 27 25 25 23 22 20 16 11 8 8 8 7 5 6 4 2 2 2 4 5 6 6 6
36 40 34 34 22 15 23 15 40 34 30 35 31 31 33 26 31 26 23 28 27 24 22 22 24 27 28 28 27 25 19 15 10 9 10 10 10 9 7 5 4 3 3 3 4 4 5 6 7
41 34 32 34 30 27 23 11 39 36 35 34 33 30 40 28 31 29 26 20 19 24 25 24 25 27 30 30 29 26 23 17 16 15 14 12 11 9 7 7 5 4 3 4 5 4 5 7 7
29 28 33 30 29 21 32 24 20 40 41 37 31 34 32 34 30 34 31 19 19 22 26 28 28 28 30 32 31 28 24 21 20 17 14 13 10 8 6 6 5 4 4 6 5 6 5 7 7
35 32 18 9 14 9 31 24 36 25 33 32 30 35 31 39 30 31 34 32 21 21 24 29 32 33 32 33 33 29 26 24 21 18 16 13 9 6 5 4 4 3 4 7 7 5 5 6 7
42 42 24 12 5 12 36 20 43 32 25 33 23 33 36 36 32 32 31 31 24 20 22 29 34 35 34 33 33 32 29 26 22 20 17 14 12 9 8 4 4 3 2 7 9 7 6 6 7
41 44 45 27 12 9 15 34 35 35 29 25 24 27 47 32 33 32 32 33 25 19 16 24 32 34 34 32 31 31 30 28 24 21 19 16 13 11 9 5 4 4 4 5 10 11 8 7 6
46 35 33 30 16 10 7 22 34 42 40 34 27 27 36 38 32 34 32 30 28 19 15 15 27 30 30 30 31 29 30 28 25 23 21 18 15 14 11 8 6 6 6 6 7 11 11 9 9
47 44 32 34 26 10 4 22 30 31 35 35 34 29 37 36 37 37 31 26 28 22 19 15 22 30 31 31 31 31 30 29 28 26 23 20 18 15 12 10 9 7 6 6 6 9 14 13 13
27 43 41 29 21 32 23 35 23 35 27 27 18 36 34 38 38 41 30 27 31 26 20 17 22 29 31 29 29 30 29 29 30 28 25 23 20 19 16 15 13 11 10 9 7 8 12 15 15

GFSSGP_700_spd_063.txt.gz
Wind_Speed
2 1 1 2 1 1 0 1 8 14 12 4 16 13 7 9 15 2 34 31 31 29 29 29 26 23 22 20 19 17 14 13 13 12 12 12 13 13 12 11 12 11 11 11 9 8 8 8 9
4 3 1 2 1 1 4 9 10 10 13 11 16 12 14 9 12 9 37 32 31 28 27 26 25 24 22 20 18 16 15 14 14 13 14 14 13 13 13 13 12 12 12 12 11 10 9 11 11
5 3 3 2 2 4 6 5 7 13 12 12 10 10 9 10 11 29 33 32 31 29 25 25 25 24 22 19 17 16 15 14 14 15 15 15 14 14 13 13 13 12 12 10 7 8 10 12 12
5 4 3 1 2 12 6 7 15 17 18 19 8 8 9 10 23 31 33 30 31 28 25 25 25 24 21 18 16 15 15 14 15 16 14 15 14 14 14 14 14 13 12 12 11 9 11 14 13
3 3 0 2 5 7 7 9 19 17 11 11 8 11 12 15 29 26 31 29 29 26 25 25 24 23 21 18 16 15 15 15 16 15 15 16 15 15 15 15 14 14 14 13 16 14 12 13 13
6 5 1 7 6 3 5 7 18 13 9 6 9 8 16 26 31 26 31 29 28 24 25 24 25 23 20 17 15 14 14 14 15 16 16 16 15 15 16 15 14 13 13 12 13 14 13 12 13
5 1 4 8 6 3 1 5 15 10 7 7 7 9 19 31 31 26 31 30 27 24 23 24 24 23 20 17 15 14 14 15 16 15 14 14 14 15 17 15 14 13 13 12 10 12 11 13 14
8 5 10 5 4 2 4 6 11 8 6 5 10 14 21 29 30 27 32 31 27 24 22 22 23 21 19 16 15 14 14 14 14 13 13 14 14 16 15 15 12 12 12 12 12 12 10 10 13
15 9 9 3 1 3 7 8 11 7 7 7 13 13 16 27 30 29 33 33 28 25 22 23 22 21 19 17 15 15 15 14 13 12 13 13 12 13 13 12 11 12 11 9 13 11 12 9 11
18 17 10 6 5 2 4 6 7 7 3 6 13 15 22 31 29 29 32 31 28 25 23 23 23 21 19 17 16 15 14 14 13 12 12 13 11 11 12 10 9 10 10 9 10 10 10 8 7
18 11 12 5 3 3 2 8 9 6 6 3 3 11 25 33 29 28 30 27 23 24 23 23 24 22 19 17 16 16 15 14 13 10 13 13 11 9 11 10 10 11 8 8 7 5 7 7 6
19 12 11 7 1 2 10 7 7 7 5 5 4 3 20 33 32 28 29 27 26 24 22 23 25 23 21 19 18 17 15 13 12 12 10 11 10 8 11 6 5 5 5 6 6 4 2 5 3
22 16 12 3 6 10 9 12 13 16 10 3 3 8 19 28 31 28 29 28 25 26 24 23 24 23 21 20 19 18 16 14 13 11 11 9 8 7 5 4 5 6 4 4 2 2 1 4 5
18 17 12 6 6 8 14 14 12 15 14 8 3 9 21 24 27 29 31 29 27 27 25 24 24 24 22 20 19 17 16 15 12 12 10 8 8 8 6 4 6 7 4 6 2 2 3 3 7
22 19 18 13 13 10 10 13 12 12 16 10 6 12 20 27 27 28 26 28 28 26 27 24 24 24 23 20 19 16 14 13 13 12 9 7 8 8 5 2 5 4 3 7 3 2 2 1 8
29 22 20 15 13 21 14 13 16 13 19 15 8 13 20 27 26 28 29 27 31 29 28 25 25 24 23 20 17 16 14 11 10 11 9 7 7 7 6 3 2 4 3 3 3 1 3 4 10
24 20 27 22 16 23 24 21 17 20 19 16 11 10 19 26 29 30 31 28 27 30 28 27 27 26 24 21 17 15 11 11 11 10 9 7 6 8 7 4 5 4 3 2 5 5 6 6 3
23 25 26 24 19 22 28 29 24 23 23 18 16 13 18 25 26 27 29 30 27 27 28 27 28 27 25 24 22 19 17 14 11 7 6 5 5 5 5 4 2 3 3 3 4 7 7 6 3
19 21 28 26 16 22 31 35 32 29 32 26 24 20 19 20 25 27 27 29 30 29 25 29 30 30 30 28 26 21 18 15 11 7 6 5 6 6 4 4 2 3 3 5 3 4 5 6 4
36 22 30 27 19 19 29 35 30 27 32 29 23 23 22 17 26 31 31 30 33 30 29 26 30 32 31 28 24 21 17 14 12 11 9 7 6 5 5 4 2 3 2 4 4 3 5 7 6
39 35 30 25 4 13 16 33 33 35 38 36 30 26 24 23 22 28 32 31 32 32 29 30 33 34 32 28 26 23 22 20 17 14 11 9 7 6 5 5 5 4 2 3 3 3 5 7 7
42 38 31 29 14 17 16 9 31 35 37 43 35 29 31 26 28 24 27 30 30 28 27 28 30 32 31 29 27 25 22 18 12 10 10 10 9 8 7 6 5 5 3 3 4 3 4 6 6
45 34 33 29 23 19 24 15 21 32 45 47 41 34 28 24 27 32 25 25 27 29 29 29 29 30 31 29 27 25 23 19 16 15 14 12 11 10 9 7 7 6 6 5 5 5 6 6 5
36 28 32 31 25 19 27 27 22 33 33 40 37 30 28 28 27 28 30 27 25 27 28 29 30 32 33 31 29 27 25 22 21 19 16 13 11 10 8 7 6 6 7 7 7 6 7 8 8
24 29 13 8 10 11 25 22 37 20 31 38 35 26 24 24 27 27 29 31 29 27 29 31 32 33 33 33 31 30 27 25 24 21 17 14 11 9 8 8 6 7 9 11 10 8 8 9 8
37 33 18 6 4 12 33 14 36 38 24 23 30 32 26 25 23 29 28 30 30 30 30 32 34 34 34 34 33 31 30 28 26 23 20 17 14 11 11 8 7 9 11 13 13 10 9 9 8
33 40 38 29 10 6 11 20 42 32 27 30 27 31 36 34 29 28 29 26 28 29 29 31 33 33 33 33 34 33 31 30 28 25 22 20 17 15 12 9 9 10 11 13 14 12 10 10 10
36 25 28 29 15 10 4 12 28 38 37 34 29 20 23 26 35 35 33 30 21 22 25 26 29 32 31 32 32 32 32 31 30 28 25 22 20 18 15 12 10 10 9 10 14 15 14 12 12
37 40 33 27 26 12 4 15 15 31 35 37 34 27 24 22 30 38 35 33 26 23 23 24 24 30 32 33 32 32 34 33 32 30 27 24 22 21 18 15 13 11 8 9 10 15 17 15 14
13 25 39 29 19 28 25 34 29 22 22 24 36 35 30 23 25 30 32 31 32 27 23 22 23 27 30 30 31 32 33 34 34 33 30 27 24 22 20 19 16 13 11 11 9 11 14 17 17

GFSSGP_700_spd_069.txt.gz
Wind_Speed
2 3 4 0 1 1 2 3 6 12 11 6 13 13 15 9 7 5 30 32 31 27 26 25 21 20 20 19 18 16 15 15 14 13 12 11 11 11 10 10 11 10 9 8 7 6 6 5 5
1 3 2 4 0 2 5 14 11 14 11 13 19 12 13 12 4 10 29 32 29 26 24 23 21 20 19 18 17 17 15 14 14 14 13 13 11 10 11 11 12 11 10 9 8 9 9 11 10
1 3 3 1 4 3 7 13 8 12 12 11 14 8 9 6 6 17 29 31 29 26 23 22 22 20 18 17 17 15 14 14 13 13 13 12 11 10 10 11 10 9 7 7 9 10 12 12 13
3 5 1 2 5 5 10 10 8 8 12 11 11 5 5 6 12 29 29 29 28 26 23 24 22 20 18 17 15 14 13 13 13 12 12 12 10 11 11 11 11 11 10 11 12 12 14 14 14
2 1 1 2 3 10 6 10 12 8 7 12 11 4 5 8 14 30 28 28 28 26 24 24 22 19 16 15 14 13 12 12 11 11 11 11 10 11 11 11 13 13 15 15 14 12 14 14 15
0 2 2 5 9 8 4 7 10 8 6 4 11 6 3 5 24 33 30 28 27 24 24 23 21 18 16 15 14 13 12 11 11 12 11 11 11 11 11 11 11 13 13 14 14 13 13 13 15
4 0 4 7 6 2 7 2 9 8 6 5 4 6 8 20 30 33 30 28 26 25 24 22 20 18 16 15 14 13 12 11 12 11 11 11 11 11 11 11 12 14 13 12 13 13 12 13 13
7 4 10 6 2 2 4 6 12 8 4 4 3 4 11 27 35 31 31 28 26 26 25 23 21 18 16 14 14 12 12 13 13 11 10 11 11 10 10 10 11 11 11 11 12 11 12 11 11
11 7 12 5 5 2 9 9 11 8 8 6 4 2 15 30 34 33 33 30 27 27 26 23 21 18 16 14 13 13 13 13 11 12 12 12 11 10 9 8 10 9 10 11 11 11 12 11 12
14 13 6 9 6 7 10 11 7 4 3 3 5 7 22 30 32 33 32 30 28 27 26 24 22 18 15 14 14 13 12 11 11 12 11 11 10 9 8 8 8 7 8 10 12 12 10 9 9
18 12 11 10 6 6 10 11 9 7 5 3 2 11 21 28 28 31 30 26 25 25 25 24 22 19 16 14 14 13 12 11 11 11 10 9 8 7 9 10 6 6 6 7 8 9 9 8 7
21 16 13 10 8 7 10 7 4 4 2 3 4 7 13 27 24 27 28 26 25 24 24 24 22 19 17 15 15 14 12 12 11 11 10 8 7 6 4 4 5 4 6 4 4 5 6 4 4
25 16 15 17 12 11 11 8 8 5 4 2 2 9 15 26 24 26 27 25 23 23 22 23 22 20 17 15 15 14 13 12 12 12 10 8 5 5 3 4 4 4 5 3 3 4 2 4 5
22 24 14 21 13 15 13 12 12 7 4 4 3 5 18 24 24 25 28 26 22 21 21 21 22 20 18 16 15 14 13 12 12 11 8 6 4 3 4 4 5 4 5 3 3 3 2 4 6
27 17 23 22 16 16 13 13 14 9 5 9 3 4 18 26 29 24 27 25 23 21 20 21 22 21 18 17 16 14 13 13 10 10 7 6 4 4 3 2 3 7 8 6 5 6 2 5 4
23 20 18 24 19 17 15 9 12 9 8 11 7 5 16 24 27 26 29 27 24 23 20 22 22 21 20 18 16 14 13 13 11 9 7 8 4 3 3 3 4 9 9 7 5 4 4 7 3
19 16 23 20 22 19 18 12 11 8 11 12 13 9 17 24 30 28 28 28 25 23 22 21 22 22 21 19 17 15 14 13 11 9 7 7 5 4 3 5 6 9 7 6 6 5 7 6 2
17 23 19 23 22 20 20 18 15 13 10 11 15 11 18 23 26 27 29 30 28 26 24 22 21 23 23 22 19 17 15 13 12 11 9 7 6 5 4 3 5 4 5 6 5 3 4 3 4
18 14 17 24 18 20 21 20 19 19 18 14 18 15 11 18 24 26 30 31 30 29 28 25 24 24 26 24 22 19 15 14 13 13 10 8 6 4 4 2 2 2 3 4 4 5 3 2 6
23 16 14 21 19 21 18 22 22 23 17 16 20 17 12 14 23 28 32 32 33 30 29 28 26 26 26 26 22 20 17 16 16 14 12 9 7 5 5 3 1 1 1 2 3 3 3 4 4
30 25 20 17 17 16 18 19 26 26 25 25 23 24 20 16 15 27 31 34 33 32 29 30 28 27 27 27 26 24 23 21 19 15 12 10 7 5 3 3 3 4 2 2 1 1 3 4 5
29 32 24 23 12 16 17 19 26 28 26 27 27 27 27 25 19 21 31 34 34 32 31 29 31 30 29 28 28 26 23 20 16 14 13 11 9 7 5 5 5 4 3 2 2 3 4 6 9
27 24 32 26 19 16 16 13 27 20 27 26 28 26 23 24 26 22 21 31 32 33 33 32 32 33 33 32 30 28 26 23 22 19 16 13 11 9 8 7 6 5 6 5 5 4 5 7 8
21 9 13 19 24 24 30 18 26 27 30 28 26 28 26 24 26 25 24 24 33 35 36 35 35 34 34 35 33 30 27 25 24 21 18 14 12 11 9 7 7 8 9 7 6 6 8 7 7
21 21 7 10 14 18 25 26 33 18 29 35 26 23 19 22 26 27 28 30 28 34 39 38 37 37 35 36 35 33 29 27 26 23 20 17 14 11 10 10 9 10 10 10 9 9 10 9 9
24 26 15 12 12 17 25 18 31 36 11 9 23 19 15 20 20 29 29 29 28 27 32 40 38 40 39 38 37 34 32 30 28 26 23 20 16 14 13 12 11 11 12 12 11 11 12 12 11
18 36 30 12 5 13 25 30 31 24 23 33 30 25 19 16 20 27 31 33 29 28 28 30 36 40 40 39 39 37 34 33 31 28 25 22 19 17 16 13 12 11 13 14 14 12 13 14 13
25 19 25 26 19 13 10 24 26 32 38 31 24 28 20 16 18 21 28 31 28 28 28 28 30 35 35 35 37 37 35 33 31 31 28 24 21 20 17 14 12 11 12 14 16 15 14 15 16
28 23 18 22 31 15 10 14 15 28 23 21 28 35 22 18 16 14 24 29 28 25 28 28 29 34 36 36 36 36 37 35 34 33 30 28 25 22 20 17 15 13 12 13 15 17 16 16 17
23 21 27 22 18 32 29 31 7 13 19 17 20 25 27 28 19 12 27 30 30 29 25 28 29 34 36 36 37 37 36 36 35 34 32 30 27 25 22 21 18 16 13 13 13 16 18 17 17

GFSSGP_700_spd_075.txt.gz
Wind_Speed
1 2 1 2 1 2 4 4 15 12 10 11 15 12 10 8 3 11 29 30 29 25 25 22 20 19 18 16 15 13 12 11 11 10 10 9 9 8 8 7 7 6 5 3 4 4 4 5 7
1 2 1 2 3 2 7 11 12 10 13 13 15 15 10 10 3 26 32 30 27 24 23 21 20 19 18 15 13 11 10 10 9 10 9 8 9 8 9 9 7 6 6 5 5 5 7 6 7
3 2 5 4 4 3 13 10 11 11 15 14 14 11 7 5 12 29 30 28 25 23 21 21 20 18 16 15 14 12 12 11 11 10 10 9 8 9 10 7 5 5 5 8 8 9 11 11 10
1 3 5 5 2 4 9 11 14 16 15 13 13 7 7 8 19 24 30 29 24 21 20 20 19 17 15 15 13 12 11 11 10 10 10 10 9 10 10 11 9 8 8 9 10 11 12 12 12
1 5 6 5 3 7 9 9 13 12 11 11 10 9 9 14 21 24 27 25 21 19 20 19 18 16 15 14 13 13 12 11 10 10 10 10 11 10 12 13 13 12 11 10 12 12 12 11 11
8 3 4 5 6 10 8 11 12 11 11 12 5 6 8 10 26 29 24 22 20 19 20 19 18 16 15 14 13 12 11 10 10 10 11 12 11 11 10 11 12 11 10 11 11 12 12 13 14
4 6 3 6 11 10 11 14 14 11 11 9 11 8 8 14 29 28 24 22 20 19 21 19 17 16 15 14 13 12 11 10 10 11 11 12 11 10 9 12 11 10 11 11 12 12 13 14 14
5 9 2 5 6 8 13 12 11 11 12 11 9 8 11 17 30 28 25 24 20 20 21 19 18 16 15 14 13 12 11 10 11 12 12 11 10 9 9 10 10 9 10 10 11 11 12 13 13
9 10 5 6 8 18 15 13 14 17 9 6 8 3 10 18 32 31 27 24 23 20 20 18 17 15 14 13 13 13 11 11 12 12 11 10 10 9 8 10 10 11 10 10 11 11 10 11 12
14 12 12 6 3 17 13 14 10 6 9 7 7 11 10 25 35 32 30 26 23 22 21 18 14 15 13 14 13 14 11 11 12 11 9 11 12 8 9 9 9 9 11 10 9 9 6 18 14
14 16 16 2 3 3 11 5 9 11 13 12 13 9 18 29 33 30 28 26 24 24 20 19 19 16 10 14 14 15 11 11 11 10 9 10 11 10 11 8 8 7 8 8 7 6 7 7 14
16 14 11 5 2 7 15 16 9 12 18 11 6 10 22 29 32 29 28 26 25 25 22 21 19 16 18 15 12 10 10 10 10 9 8 9 6 7 4 5 4 7 3 4 5 3 3 1 4
19 11 11 6 4 2 12 7 9 6 5 10 5 10 23 30 30 26 26 24 24 25 24 22 18 16 13 13 14 12 11 9 8 8 7 9 5 5 7 4 8 3 3 3 1 1 4 5 6
13 21 14 11 11 8 13 9 7 11 9 10 4 9 21 29 28 27 27 25 24 24 23 22 19 16 14 13 12 13 13 11 9 7 7 5 6 4 5 7 7 5 2 9 2 1 13 5 4
22 13 20 19 13 12 12 12 15 15 14 13 10 15 25 28 28 26 27 26 24 24 23 22 20 18 16 14 14 13 14 10 10 5 5 6 8 5 4 3 4 1 2 3 2 1 3 7 3
20 19 20 21 21 18 16 20 19 17 17 17 15 19 26 29 28 28 27 26 23 24 23 23 22 20 17 16 14 13 13 9 10 4 6 4 3 4 5 4 4 4 7 2 3 8 8 7 1
17 22 25 19 21 19 22 16 22 20 16 18 18 20 25 29 30 28 28 28 24 24 23 24 24 22 20 17 16 14 13 14 9 10 3 5 3 5 5 4 3 4 9 5 4 5 7 5 10
22 24 23 25 22 24 21 19 18 25 20 18 20 20 24 29 30 30 29 28 27 26 24 24 24 24 22 19 17 15 13 13 12 10 8 6 3 4 3 4 5 5 12 7 6 9 6 5 2
14 22 25 21 22 21 26 23 21 21 21 19 20 20 23 29 31 29 29 30 29 26 26 24 25 25 23 20 19 16 14 14 12 9 7 5 4 4 4 3 3 6 8 2 4 9 8 6 15
23 18 19 26 23 20 24 26 19 18 20 21 20 21 24 27 32 32 31 32 32 28 26 25 23 23 23 21 20 18 16 13 11 9 8 5 4 4 5 6 3 4 5 6 8 4 9 2 14
24 23 19 20 20 25 22 27 26 28 20 21 20 20 22 28 31 33 32 32 33 30 27 24 23 22 24 23 22 21 19 16 15 15 10 7 6 6 5 4 4 3 3 4 4 7 13 6 9
24 22 21 18 24 26 27 26 33 24 29 25 23 24 24 26 30 30 31 33 33 33 29 27 25 23 24 25 24 22 20 17 14 11 9 8 7 5 6 5 4 4 1 2 3 3 11 9 1
26 17 20 22 21 24 25 31 27 31 29 27 26 28 27 26 26 28 28 27 30 32 31 29 28 25 25 25 26 24 23 18 15 13 15 12 8 7 6 6 4 2 1 1 2 3 3 16 9
24 21 20 21 24 24 33 31 31 31 32 30 31 30 29 29 28 29 24 25 30 32 33 33 31 28 27 26 27 26 25 22 19 18 16 14 11 9 7 5 5 5 4 3 3 4 4 4 9
20 26 22 18 19 19 33 37 27 26 30 31 34 32 30 30 30 30 31 30 26 30 32 32 32 31 29 29 29 28 27 25 23 20 19 16 13 11 9 9 7 5 5 5 4 5 6 5 7
30 31 24 21 16 19 32 37 38 24 15 24 34 34 30 30 30 31 32 31 26 24 28 32 32 31 32 31 30 30 29 28 26 24 22 20 15 13 16 11 9 7 7 8 5 6 6 7 6
32 36 32 31 29 26 30 34 29 36 29 18 33 31 29 30 30 30 31 32 31 27 26 26 31 31 33 32 31 32 31 31 30 28 25 23 21 18 18 13 10 9 7 7 7 7 8 7 8
33 25 34 35 23 23 25 25 33 33 31 34 20 24 23 28 28 30 30 32 34 31 28 26 26 29 30 31 32 31 33 33 32 31 29 26 24 21 21 16 14 11 9 8 8 9 10 9 10
28 32 26 29 38 18 15 19 21 30 32 28 35 24 27 26 28 27 28 31 33 33 33 30 28 29 33 35 32 34 33 34 35 34 32 30 27 24 22 19 16 13 11 10 9 11 12 10 12
32 30 37 29 29 37 30 23 2 21 27 22 29 32 27 24 25 25 25 29 32 34 33 30 30 31 31 34 34 33 33 33 36 37 34 32 30 27 24 22 19 16 13 12 11 11 13 13 13

GFSSGP_700_spd_078.txt.gz
Wind_Speed
2 1 2 0 4 4 2 10 22 15 15 12 19 12 11 7 8 8 32 28 27 25 23 21 19 17 16 15 14 13 12 11 11 11 10 9 9 8 7 6 6 6 5 5 3 2 3 5 7
1 3 1 5 5 2 11 17 15 13 16 18 13 20 10 8 4 31 33 28 25 24 22 20 19 18 17 15 13 12 11 10 9 9 8 9 9 9 9 9 7 7 7 7 7 6 4 6 8
3 4 6 5 3 4 15 12 17 18 18 19 12 9 6 12 18 30 30 28 25 23 20 19 19 17 15 13 13 11 10 10 10 10 9 9 10 10 8 5 5 6 9 9 9 9 8 9 10
1 3 7 8 3 5 11 15 17 21 17 16 10 9 9 19 25 27 30 26 23 20 20 19 17 16 14 12 12 11 11 11 10 10 10 9 10 11 11 9 8 8 9 10 11 12 13 14 14
4 4 9 7 4 10 13 17 16 15 16 16 7 19 15 17 21 27 27 22 20 20 19 19 17 15 14 13 12 12 11 11 11 11 11 10 11 11 11 14 13 11 11 11 11 12 13 12 13
8 8 8 8 7 13 10 17 17 12 14 12 7 15 20 16 20 26 24 16 14 20 19 18 16 15 14 13 13 12 12 12 11 12 11 11 12 12 12 13 13 12 12 12 12 13 14 14 14
12 10 13 9 12 15 11 14 15 13 15 19 11 13 20 23 19 25 24 24 14 17 18 17 16 15 14 13 13 12 12 12 12 12 11 11 12 13 13 14 12 12 12 13 14 14 16 16 15
13 12 7 6 16 18 16 17 16 21 18 16 6 4 18 27 25 27 27 25 16 17 19 17 16 15 14 13 13 13 12 12 13 13 11 11 12 12 13 14 14 12 12 11 12 13 14 14 16
14 12 21 7 5 14 19 19 19 21 14 11 13 7 10 18 28 27 30 22 20 18 19 17 16 15 14 12 13 12 12 11 12 12 11 8 11 12 12 13 14 14 12 12 11 9 9 16 15
15 18 20 19 10 11 10 10 4 8 19 13 9 11 11 22 34 31 29 25 20 19 15 16 15 17 15 12 12 12 11 10 10 11 11 11 13 14 12 11 12 13 11 9 7 9 9 6 13
16 16 20 22 9 12 9 13 9 16 15 10 15 15 17 25 37 32 28 23 20 20 19 7 14 14 14 13 12 11 11 11 9 10 10 13 14 8 10 12 9 9 8 4 8 10 13 8 11
19 16 16 11 10 12 6 17 22 14 19 21 18 12 28 27 36 30 27 25 23 23 21 18 18 13 13 10 13 7 7 10 8 8 6 10 10 12 8 9 7 9 5 6 6 15 9 14 13
17 17 15 15 3 6 16 13 5 11 9 18 15 17 33 25 31 29 27 23 22 28 23 25 17 14 16 14 10 4 5 5 9 6 2 3 12 2 10 4 5 10 5 5 5 8 11 13 2
17 16 18 14 9 8 6 6 7 23 10 18 11 19 33 28 29 29 28 26 22 27 24 21 18 14 14 18 18 14 12 8 1 7 2 5 5 8 8 5 8 6 10 8 9 7 8 5 6
17 20 15 21 12 11 7 9 4 9 20 14 13 21 30 32 29 27 28 27 24 25 25 18 18 16 14 11 11 12 11 14 5 6 1 7 3 5 7 8 9 12 8 5 5 10 9 9 2
15 20 23 17 20 15 11 14 16 13 17 19 18 23 32 33 31 28 28 23 22 24 22 18 19 18 14 12 13 14 12 8 4 3 2 6 5 4 6 8 8 7 6 9 8 9 11 12 8
18 22 23 19 20 20 19 14 20 26 21 16 21 24 29 30 35 28 27 25 23 24 20 19 20 19 16 14 14 12 13 6 8 6 2 7 5 4 5 6 7 3 7 8 9 13 7 9 11
18 21 22 23 19 21 21 21 19 22 18 24 20 25 28 32 33 30 29 28 25 24 20 20 21 19 18 17 16 13 15 9 8 7 2 5 4 4 4 6 7 4 10 12 7 5 9 11 10
21 21 20 20 21 24 20 22 25 26 19 26 29 24 28 31 34 32 30 29 27 26 22 22 22 19 20 18 17 14 14 16 12 9 7 4 4 4 3 3 6 8 7 6 8 7 13 12 9
23 22 20 20 21 22 22 26 27 28 21 28 34 25 26 26 30 34 34 31 29 26 23 24 23 19 20 19 17 15 15 15 15 16 8 5 3 4 3 4 4 6 9 8 7 7 10 14 12
23 23 20 19 16 20 24 21 31 25 9 23 27 23 25 31 32 32 34 34 31 28 23 24 23 19 21 20 20 18 17 15 13 10 8 7 5 4 4 3 4 4 6 8 7 7 13 15 11
25 20 22 20 19 23 23 25 35 28 26 28 21 27 28 30 33 35 32 35 33 29 26 24 23 20 23 23 22 20 18 14 11 11 10 8 5 5 4 4 4 4 6 7 5 7 7 9 12
25 19 19 22 23 23 28 26 20 30 33 37 20 32 31 30 33 32 28 32 31 31 27 25 25 23 23 24 24 22 20 17 13 12 9 8 5 4 3 4 4 3 5 6 6 7 7 7 13
22 22 21 21 24 23 29 28 28 31 36 33 18 35 34 30 33 34 32 26 29 30 29 28 26 24 25 24 24 24 22 19 16 15 14 10 7 6 4 3 2 2 2 4 5 6 5 4 6
22 22 21 19 19 17 27 30 28 21 31 32 23 34 36 34 31 36 35 32 25 27 26 27 28 27 25 24 25 24 24 22 19 17 14 11 9 9 7 5 3 2 2 2 3 4 5 4 4
31 27 26 18 13 17 29 30 34 35 18 32 22 33 37 33 35 31 37 33 27 25 24 25 25 28 27 26 25 24 25 26 23 20 16 15 12 10 8 6 4 4 4 3 3 4 5 5 4
27 35 29 33 29 27 29 27 30 29 25 22 22 35 40 42 36 36 34 35 28 26 23 20 22 25 29 28 27 27 26 27 26 24 21 19 16 12 13 8 7 7 5 4 4 5 4 4 5
31 25 31 33 21 22 26 29 30 30 32 25 26 27 36 46 41 40 36 34 30 25 25 24 21 20 25 28 28 28 26 27 28 27 24 22 20 18 18 11 10 8 7 5 6 6 5 6 6
23 33 32 25 34 16 15 23 24 36 33 34 26 21 20 36 40 43 38 33 22 24 27 28 26 21 24 31 30 30 29 29 30 29 28 25 23 21 23 14 12 10 9 7 7 6 7 7 7
22 23 30 25 23 27 32 30 19 8 30 31 25 27 21 24 21 29 42 29 28 26 27 27 29 27 22 28 31 30 30 29 30 32 31 29 27 24 23 20 16 13 11 10 8 7 7 7 8

GFSSGP_700_spd_081.txt.gz
Wind_Speed
1 3 1 1 2 4 6 9 18 17 18 21 28 22 21 15 17 9 31 28 26 24 23 21 19 17 15 14 13 12 12 12 13 12 11 10 9 10 9 9 9 8 7 8 7 6 7 9 9
2 3 3 2 1 6 16 15 15 15 20 20 16 16 18 18 10 27 32 29 25 23 22 20 17 16 15 15 15 13 12 12 11 10 11 10 10 10 9 8 9 10 10 10 8 8 9 10 11
3 6 2 5 7 8 11 16 16 19 17 22 19 9 3 13 19 30 28 29 25 22 21 18 18 18 17 15 13 13 12 11 10 11 11 11 10 9 7 6 8 10 12 12 11 11 12 12 13
5 3 4 7 9 8 16 20 25 25 15 11 10 8 10 17 30 28 28 27 24 23 21 20 18 16 14 14 14 15 14 12 11 12 11 11 12 14 13 11 10 11 12 14 14 15 17 17 16
4 5 6 9 3 10 21 20 16 18 18 12 10 16 19 33 28 28 26 23 22 22 22 19 17 15 14 14 14 14 14 13 12 13 12 12 13 15 17 15 13 12 13 15 15 14 16 15 14
2 9 10 11 7 16 19 18 15 17 12 8 5 18 23 28 27 26 22 21 21 20 20 17 17 16 14 15 15 14 14 13 13 13 12 13 13 14 16 15 14 14 15 16 17 17 15 14 13
2 11 14 20 11 14 18 17 13 15 10 7 5 16 23 24 26 26 21 21 22 19 18 16 16 15 15 15 15 14 14 13 13 14 13 14 15 15 14 15 15 15 15 17 19 19 19 18 14
2 10 17 18 15 13 23 23 19 16 15 10 4 10 20 28 29 25 15 26 21 18 17 16 15 15 15 15 15 14 14 13 13 13 14 14 15 16 15 16 15 14 14 14 15 15 16 17 16
2 17 19 21 20 5 26 9 17 17 15 19 1 2 5 30 31 23 22 18 17 16 17 16 15 15 14 14 15 13 14 13 13 13 12 11 12 13 15 15 14 13 16 15 13 14 14 14 13
11 15 16 13 16 11 6 13 16 13 18 19 8 8 14 32 30 33 25 16 14 20 20 16 16 16 15 14 14 13 13 13 12 12 12 13 11 10 13 14 13 15 14 15 12 12 13 11 12
13 16 15 12 7 10 15 13 16 14 9 15 9 5 21 34 29 34 29 19 13 22 22 19 16 15 16 15 14 13 13 12 13 13 12 13 10 11 10 13 11 12 15 10 10 16 11 15 15
15 11 18 18 14 15 15 8 14 19 11 15 11 7 19 36 34 28 28 22 15 23 27 21 18 16 15 15 12 13 12 10 11 12 10 5 12 13 8 8 10 8 14 14 14 11 9 15 12
16 12 15 17 20 12 6 11 10 15 18 20 12 11 22 35 37 30 29 22 16 20 19 21 17 16 16 16 15 15 13 11 13 10 3 12 9 8 6 7 9 9 13 9 11 15 8 6 9
12 16 14 18 19 12 6 3 10 11 13 14 15 17 24 39 37 34 28 21 19 23 19 18 18 13 12 14 13 10 12 16 14 10 6 3 7 5 9 13 13 10 12 11 13 13 8 8 8
18 18 17 15 17 21 16 14 14 11 20 16 18 18 20 38 36 33 27 21 21 23 18 17 16 14 11 9 13 9 8 4 6 10 8 6 6 6 8 10 11 10 10 8 13 15 12 10 12
13 14 19 16 13 17 16 16 14 15 24 18 20 30 27 32 34 32 26 22 20 25 18 18 19 17 12 12 12 15 12 11 9 9 5 6 7 8 4 11 11 7 11 15 16 15 12 13 16
16 19 16 19 17 19 18 11 15 12 13 15 19 41 34 29 32 29 26 24 20 23 17 19 20 18 15 14 15 12 12 11 11 7 6 5 8 8 10 11 12 12 10 13 15 13 12 11 14
17 18 17 18 16 19 20 21 15 19 11 20 29 18 37 36 35 33 26 24 23 23 18 19 20 20 18 16 15 13 15 12 9 8 6 6 7 7 8 9 13 8 13 12 13 17 13 10 11
22 24 21 18 13 18 27 27 25 19 22 21 23 32 18 35 35 31 29 28 25 23 20 20 20 22 20 18 16 13 11 12 11 9 12 8 8 6 5 6 11 6 9 10 7 12 14 13 17
16 21 22 20 11 19 25 31 26 27 29 20 21 29 33 22 36 36 34 31 28 24 21 21 18 21 20 18 15 14 12 12 12 11 11 9 7 5 4 7 9 8 11 10 7 10 13 15 17
23 22 19 22 19 17 12 24 31 30 27 22 22 15 37 35 26 38 39 36 32 26 24 22 18 19 21 21 19 18 16 14 10 8 9 8 6 4 5 4 7 8 9 8 11 14 15 16 16
22 18 18 21 23 23 15 9 30 29 31 23 14 21 35 38 35 31 42 42 36 27 25 23 20 18 21 23 21 18 15 13 9 9 8 8 5 6 6 6 6 6 7 11 14 11 7 9 13
22 17 19 18 22 24 28 16 13 37 32 25 24 26 33 40 36 37 30 34 35 29 26 24 22 21 22 23 22 19 17 14 12 12 10 9 8 6 7 6 6 7 6 8 9 9 10 7 10
12 19 21 19 18 14 30 22 11 30 26 31 32 30 12 31 39 38 31 30 32 32 28 28 23 22 23 23 23 21 18 17 15 13 11 12 9 7 7 6 6 6 8 7 7 9 7 6 7
19 13 12 9 11 7 19 26 28 19 24 28 26 28 28 43 42 37 34 30 32 31 28 30 27 24 25 23 23 22 20 19 15 13 9 9 8 7 7 6 6 6 6 8 6 6 7 6 7
21 21 17 6 4 12 26 16 32 28 26 22 27 26 31 48 43 31 28 24 25 26 26 28 30 27 26 23 22 22 23 21 19 16 12 10 9 7 6 8 6 6 6 6 8 6 6 6 7
23 27 28 25 27 21 25 24 27 23 28 26 28 35 37 39 40 31 26 20 22 24 22 24 28 30 28 25 23 23 24 24 21 18 15 11 10 9 10 8 7 5 5 6 7 7 7 6 6
8 24 18 28 4 7 16 27 19 24 25 24 23 36 33 40 44 48 42 34 19 21 24 20 22 30 30 29 26 23 23 24 22 21 18 15 12 12 9 7 5 4 4 4 6 7 8 9 9
17 16 29 21 20 10 4 17 23 29 28 32 31 29 36 24 49 30 38 45 46 29 27 27 23 25 32 33 31 28 25 25 24 23 21 18 16 17 13 7 6 5 4 4 5 6 8 9 10
17 17 21 10 13 20 13 22 22 30 25 15 35 34 28 22 36 40 32 44 52 43 34 26 25 26 28 33 32 31 28 27 27 26 23 21 20 20 17 11 10 9 6 5 4 5 7 9 10

GFSSGP_700_spd_084.txt.gz
Wind_Speed
4 3 2 5 3 1 13 9 8 19 19 14 26 19 23 13 17 8 30 29 28 26 25 22 19 16 13 13 12 12 12 13 13 11 11 11 11 10 10 9 9 9 8 7 8 9 11 13 12
2 2 3 2 5 13 13 9 19 20 21 26 22 13 14 18 10 24 31 29 26 23 21 20 18 17 15 15 15 14 14 13 11 12 12 11 9 9 10 10 10 10 9 9 10 11 12 14 14
4 2 2 4 5 16 10 18 18 21 21 22 21 17 16 19 12 25 25 28 25 22 21 19 17 17 17 16 14 13 13 12 11 11 12 11 9 6 9 10 11 12 11 10 12 13 15 15 14
4 2 5 4 2 16 16 20 21 29 20 17 15 16 16 17 22 26 26 25 24 22 21 19 18 18 16 14 13 13 14 13 12 12 13 13 14 13 13 13 13 14 14 14 13 15 16 17 15
6 4 5 12 11 14 14 30 19 22 20 13 8 7 17 24 30 27 24 23 21 22 22 21 19 18 16 15 14 15 14 13 13 13 13 14 17 17 16 15 14 14 14 15 15 16 16 16 15
2 7 12 26 14 19 14 24 19 14 11 10 10 12 29 32 29 26 25 22 21 21 22 19 18 17 16 14 14 15 14 14 13 14 15 15 16 17 17 16 16 16 16 16 15 16 16 15 14
6 8 12 14 12 16 2 15 19 11 10 7 2 23 32 32 29 26 24 22 22 21 20 19 17 16 16 14 14 15 14 14 13 14 15 16 15 16 17 17 17 17 17 18 17 16 14 14 14
6 5 7 13 20 20 21 16 14 11 10 6 7 11 28 31 29 27 23 21 22 20 18 18 17 16 15 14 13 15 14 15 13 15 14 15 15 17 15 16 17 16 15 17 17 15 14 15 15
6 3 5 13 16 14 17 12 15 14 9 10 9 8 21 31 30 30 26 26 23 21 18 17 16 16 15 15 14 14 14 15 14 13 15 13 13 14 15 16 15 14 16 18 17 17 16 15 17
7 4 4 7 12 7 13 4 15 12 7 9 6 15 28 30 30 28 28 26 23 19 18 17 17 16 15 15 14 15 14 12 13 10 12 13 12 13 12 14 15 14 16 16 15 13 15 14 15
9 5 3 7 13 5 8 9 7 7 14 11 5 11 26 29 26 24 26 18 14 18 19 18 16 16 15 15 14 17 15 13 14 16 14 11 11 11 13 9 11 12 13 12 16 16 12 13 18
8 5 6 11 10 11 8 7 9 11 14 17 12 2 14 30 24 21 26 20 15 19 19 19 18 16 17 17 16 17 16 12 14 13 8 12 11 8 12 8 9 7 7 15 14 13 14 14 11
8 8 8 14 15 5 10 2 9 11 12 17 13 17 11 26 21 19 21 16 12 18 20 19 16 15 15 17 15 17 18 13 14 11 10 11 11 7 9 8 4 8 9 9 12 15 12 8 13
4 8 11 17 19 16 12 5 8 11 14 13 11 16 24 25 20 19 22 18 14 21 24 23 18 16 13 16 14 17 17 14 13 14 8 7 8 7 11 11 11 13 10 13 13 14 8 8 12
13 16 12 13 15 22 12 7 9 9 10 11 11 23 31 27 25 21 19 16 13 20 29 22 18 16 12 11 17 16 15 14 11 13 9 9 9 9 8 13 13 11 14 11 9 12 12 10 9
14 11 8 9 9 13 12 10 10 9 8 10 9 23 34 31 28 20 18 15 13 14 22 21 18 13 11 11 15 18 19 15 12 10 9 8 9 7 7 8 10 13 19 17 12 12 14 11 9
13 9 7 12 13 11 13 12 8 5 9 10 15 19 24 33 35 26 24 21 16 15 16 20 17 15 12 11 10 16 16 16 12 10 9 8 7 8 8 11 12 14 20 20 15 14 15 17 15
11 11 10 11 7 12 17 20 14 10 20 15 9 23 22 31 32 24 27 24 17 16 15 18 19 17 15 14 11 12 13 16 13 11 9 8 8 8 9 9 12 13 14 14 17 15 13 13 12
16 15 18 14 8 15 20 28 24 19 17 24 13 20 20 33 34 29 29 26 20 19 18 19 21 21 20 18 14 11 12 14 14 10 10 9 9 7 8 6 8 9 12 12 15 13 16 12 16
11 11 15 16 9 15 20 30 31 25 20 22 19 14 19 22 35 28 34 34 28 21 19 19 23 23 22 19 14 12 13 13 13 13 12 10 10 9 7 6 8 12 12 11 12 16 17 20 22
14 18 15 18 17 18 5 20 28 27 22 22 21 19 17 23 30 36 39 37 32 25 23 21 21 24 25 21 19 19 18 16 13 13 14 10 10 9 8 6 7 7 10 10 12 17 16 17 17
18 14 16 17 15 11 3 5 28 34 31 29 29 28 23 30 33 26 34 38 35 23 22 21 21 23 26 24 22 19 15 10 12 13 13 11 9 9 8 9 7 5 9 14 12 14 16 15 12
18 11 15 17 16 15 4 4 3 31 36 37 34 24 26 18 34 29 30 30 32 32 23 22 22 22 27 26 23 20 18 15 13 14 14 11 10 9 9 9 8 9 10 12 10 10 10 12 12
16 13 17 17 14 9 1 5 6 17 28 36 35 29 25 20 30 33 29 28 34 29 27 26 25 24 26 27 25 23 20 17 17 17 15 12 11 10 10 10 9 7 9 10 10 10 9 10 13
11 10 2 4 2 6 15 12 5 12 14 23 31 33 30 26 24 34 29 26 32 28 26 27 28 26 26 27 27 25 23 21 19 16 14 13 13 12 11 12 12 9 8 10 10 10 10 11 11
11 8 7 5 3 4 12 5 10 17 19 22 19 20 31 28 28 34 31 21 21 25 26 27 30 28 27 27 25 25 25 24 21 18 16 16 14 12 11 11 11 12 9 8 10 8 8 11 12
8 12 12 14 16 5 7 18 18 3 17 26 28 24 24 32 32 28 36 21 17 21 23 25 29 31 29 27 26 26 27 26 22 19 17 16 15 14 12 12 12 12 11 10 9 9 9 9 10
9 4 7 11 5 3 4 12 13 23 18 17 27 31 26 28 33 28 37 27 22 24 20 19 26 31 31 29 28 26 26 27 25 22 20 18 17 15 13 14 12 12 12 11 10 9 9 10 12
13 16 9 6 6 7 2 3 15 16 21 22 18 28 37 31 32 24 31 30 28 29 26 23 22 23 31 33 31 29 28 28 27 26 22 20 19 16 14 13 13 12 11 11 11 10 10 10 11
1 11 18 8 6 5 3 8 15 18 25 19 19 22 36 35 38 32 23 27 35 32 24 25 25 26 23 31 34 34 30 29 28 28 25 23 21 19 16 14 13 12 11 10 10 10 11 12 12

GFSSGP_700_spd_087.txt.gz
Wind_Speed
2 2 1 2 3 2 4 6 7 9 9 8 20 22 20 11 12 6 26 26 27 27 25 22 18 16 14 12 10 9 10 11 11 11 10 9 9 10 10 9 8 10 12 12 13 12 12 12 13
2 2 2 5 2 4 6 8 10 8 11 15 21 17 12 14 4 15 26 27 26 24 21 19 16 13 10 10 11 12 11 11 10 9 9 9 10 10 11 9 8 8 10 12 13 13 13 12 13
1 3 3 5 3 8 3 7 14 12 15 22 19 19 10 13 5 21 23 25 25 22 19 16 14 12 12 13 13 11 10 10 10 9 9 8 8 11 11 11 10 8 8 11 14 14 14 12 13
7 7 4 6 7 11 8 14 18 18 22 18 14 13 12 14 16 21 23 22 22 20 18 17 14 14 14 12 10 9 10 11 10 10 12 11 14 14 13 12 11 11 10 12 15 16 16 14 13
8 5 7 10 1 6 11 13 17 19 19 15 13 7 8 14 23 21 21 21 20 19 19 18 16 14 13 12 11 11 11 11 11 11 13 15 17 17 15 14 12 12 14 15 16 16 16 15 12
5 7 7 16 9 8 7 18 24 20 14 13 11 7 14 25 26 22 20 20 20 18 20 18 15 14 13 12 11 11 11 12 12 13 13 15 15 16 15 14 13 13 15 17 17 17 15 14 12
7 5 7 12 11 4 20 22 13 16 10 9 6 8 31 33 26 22 20 20 20 20 18 16 14 14 13 13 12 12 11 12 13 13 12 14 15 16 16 15 15 15 16 16 16 16 15 15 13
5 4 6 10 9 6 21 20 14 14 12 5 6 21 28 33 29 24 22 21 21 19 17 15 13 13 13 12 11 11 12 11 12 11 12 13 15 16 16 15 16 17 17 17 16 17 17 15 14
8 2 6 9 11 6 17 12 19 15 12 10 11 13 25 31 29 25 23 24 22 20 18 15 14 13 12 12 11 12 12 11 11 11 12 13 13 15 15 15 16 15 16 18 18 19 18 18 17
8 5 5 11 10 9 6 17 8 14 17 14 5 20 27 30 28 24 22 23 23 20 18 16 14 13 12 11 11 12 11 10 9 9 8 13 13 12 12 13 15 15 14 14 16 16 18 17 14
8 7 3 5 11 11 3 10 4 9 12 11 2 3 27 31 27 23 21 19 20 19 18 16 14 13 12 11 12 12 11 10 13 11 7 12 11 11 12 11 12 11 9 11 14 15 17 17 15
10 6 1 4 4 5 8 6 1 9 8 8 9 8 12 26 27 24 24 24 21 20 18 16 15 14 14 13 13 13 12 13 12 10 12 13 10 8 11 11 11 9 9 11 12 16 18 15 13
11 4 3 7 10 6 6 9 6 10 8 10 13 11 13 26 26 23 22 19 18 19 18 16 15 14 14 14 13 14 13 13 10 8 10 11 7 4 7 9 9 12 10 8 13 13 14 15 13
8 4 7 11 13 10 8 2 5 9 11 18 11 10 12 23 26 27 27 19 16 17 17 16 16 14 13 15 14 13 11 11 9 9 8 7 8 8 5 6 9 12 12 12 12 8 12 11 10
4 6 6 7 8 12 6 0 2 6 17 15 14 11 17 21 25 25 24 17 12 13 17 15 15 14 12 13 15 14 13 9 9 8 8 7 8 5 7 9 8 13 13 11 12 9 8 10 6
3 5 3 3 3 10 10 6 8 7 10 17 16 15 19 20 24 22 19 16 11 12 17 18 15 14 12 12 13 15 15 12 9 11 11 6 6 5 7 6 8 13 16 15 14 12 9 9 9
4 7 5 1 4 5 7 8 7 8 10 16 15 15 24 26 24 22 19 16 11 9 18 24 17 13 12 10 17 18 13 13 8 9 11 9 5 6 4 7 9 15 16 14 13 14 9 11 16
6 9 5 5 9 7 13 15 14 11 11 11 14 16 22 25 21 24 19 16 10 7 11 21 20 16 14 12 16 16 15 12 10 9 8 8 7 8 9 10 9 11 16 13 14 15 12 12 14
14 12 10 6 2 11 8 13 21 20 12 16 19 21 22 24 22 19 15 17 14 9 10 17 20 18 16 13 15 16 14 12 9 9 8 6 6 5 7 8 7 13 10 12 13 15 12 12 12
13 14 10 5 3 15 11 15 17 27 19 14 19 19 21 25 25 24 21 18 17 12 12 15 18 19 16 14 13 12 13 13 12 9 8 7 7 6 5 7 6 11 8 13 10 14 12 14 16
13 14 9 7 12 10 9 6 23 30 23 19 22 19 23 25 24 25 26 18 18 16 17 15 18 19 19 16 16 16 16 15 14 11 9 7 7 7 6 5 5 8 8 12 13 11 13 18 23
13 12 7 7 8 6 3 1 10 36 28 26 29 25 28 29 29 24 26 25 20 15 19 16 16 18 20 21 19 18 15 14 12 10 10 8 8 7 6 5 5 3 7 8 16 15 15 15 14
11 3 8 11 9 4 6 5 3 26 34 29 29 29 31 32 28 27 29 26 21 19 17 17 16 18 21 22 21 19 18 16 14 13 15 11 9 7 6 5 5 5 8 9 10 14 14 12 17
10 11 11 9 7 2 6 4 2 6 11 26 31 34 33 35 28 28 30 25 23 26 23 20 18 18 22 23 22 21 20 18 17 15 16 12 10 10 9 8 7 6 6 9 8 10 12 12 14
9 9 1 2 3 5 4 2 4 7 10 12 10 27 33 31 29 29 30 34 28 26 22 22 21 21 22 24 22 22 20 19 18 18 17 13 12 10 9 8 8 8 7 6 7 9 11 12 14
10 9 6 5 4 4 6 8 3 6 7 10 15 19 32 32 29 31 27 29 29 24 22 21 21 21 23 24 24 23 23 22 19 19 19 15 14 12 11 10 11 10 9 8 8 9 10 12 14
8 6 5 3 4 3 1 2 8 8 9 10 10 17 19 20 33 30 23 23 29 24 24 20 21 20 23 23 25 24 25 24 22 20 18 17 18 16 15 14 12 12 10 11 11 10 10 11 13
7 4 4 5 4 3 3 6 14 11 11 15 15 11 21 20 26 39 29 19 22 22 21 20 19 20 20 24 26 25 24 25 24 23 21 20 20 19 18 17 15 13 12 11 11 11 11 12 13
4 5 4 5 2 5 3 5 11 17 23 23 16 16 15 22 24 34 33 27 24 20 19 18 19 20 22 27 28 27 26 26 27 26 24 22 22 21 19 17 16 15 14 13 12 12 12 13 14
5 13 9 3 2 4 3 6 13 17 20 27 24 18 19 24 24 28 39 31 38 34 24 19 20 21 21 25 29 30 28 27 27 28 26 25 24 23 20 19 19 17 16 15 13 13 13 13 13

GFSSGP_700_spd_093.txt.gz
Wind_Speed
3 3 4 6 6 2 6 3 3 9 10 8 19 18 20 13 9 5 26 25 24 21 19 17 15 13 13 11 10 10 9 8 8 7 7 8 8 8 8 9 9 9 10 9 10 10 11 13 14
3 3 4 7 4 4 6 4 11 9 11 25 22 22 13 11 4 24 25 26 22 19 17 15 14 12 12 10 11 10 9 8 7 7 7 8 8 8 7 7 9 10 10 10 9 9 11 13 12
4 3 3 1 2 4 5 4 13 12 13 23 24 15 14 3 16 24 24 24 22 18 15 14 12 11 10 11 11 8 8 7 7 7 6 9 8 6 7 7 8 9 10 10 10 10 11 12 10
8 5 3 3 0 7 5 8 11 15 17 16 15 10 9 8 24 21 23 22 21 17 14 11 11 10 11 11 9 8 8 7 8 7 8 9 8 7 7 8 9 10 11 12 12 11 10 10 9
4 5 7 3 4 10 9 13 11 10 21 16 13 7 9 21 23 22 21 21 18 15 13 11 11 11 10 9 8 9 8 8 9 12 14 11 8 7 7 6 7 10 13 13 12 12 11 10 9
6 9 9 5 6 9 12 13 14 14 17 12 12 8 14 25 23 23 22 20 18 13 13 13 12 10 9 9 10 9 9 9 10 12 13 12 9 8 7 8 8 12 14 14 14 13 11 8 8
6 8 8 9 5 4 12 9 15 15 15 12 8 9 19 24 25 23 22 21 18 15 14 12 10 9 10 10 10 9 10 10 11 12 11 12 11 11 10 12 12 15 16 16 15 13 11 10 9
6 8 7 6 2 5 16 15 13 13 11 10 10 8 26 27 26 24 22 21 19 17 15 12 10 9 9 10 11 10 10 10 10 12 11 11 11 12 13 14 15 17 18 17 15 13 11 9 8
10 12 12 8 6 6 19 16 9 14 9 9 9 8 27 27 26 24 23 23 22 19 15 13 11 10 9 9 11 11 11 11 11 13 12 11 11 10 13 15 15 16 16 16 14 12 11 10 7
10 12 13 14 11 8 18 20 23 10 11 10 7 18 31 27 23 21 22 22 22 18 14 12 11 11 10 10 11 12 11 11 10 12 13 12 10 10 11 13 15 16 16 14 13 13 12 10 8
10 10 10 13 14 15 4 19 5 17 15 8 9 21 32 25 22 21 21 20 18 17 14 12 12 11 11 11 11 12 11 11 11 12 12 12 12 11 12 13 13 14 15 14 13 12 10 9 8
14 10 7 8 9 9 7 18 11 15 13 8 13 21 25 23 22 22 22 21 18 17 14 13 12 12 11 13 12 10 12 10 12 12 11 10 10 10 11 10 10 12 13 14 12 11 10 9 10
12 10 4 3 5 4 6 10 15 11 13 9 11 26 25 22 22 22 22 21 20 16 14 13 11 11 11 14 12 11 13 10 12 12 11 7 10 9 10 8 11 15 13 13 13 11 10 10 9
12 9 3 1 1 2 3 6 18 10 13 9 11 23 24 22 22 22 23 21 19 17 15 13 11 11 10 13 12 10 10 7 10 11 9 8 7 7 7 7 11 11 14 13 10 9 10 11 10
11 6 4 3 3 5 5 4 11 13 12 12 13 20 24 25 23 20 18 19 18 17 15 13 11 11 11 10 11 10 10 8 6 7 8 9 9 5 4 8 9 10 14 11 10 7 7 8 11
10 8 5 3 6 9 9 4 7 12 11 15 13 16 24 27 22 21 19 20 20 18 15 14 12 11 9 8 9 10 7 8 6 6 8 9 7 7 7 7 9 11 12 10 8 6 8 5 10
12 9 6 4 9 12 10 4 10 8 8 18 10 12 20 26 26 23 20 19 19 19 16 13 12 10 9 8 9 10 9 8 6 5 6 6 6 5 6 7 8 7 7 7 7 5 3 6 8
13 11 7 7 11 10 10 4 1 6 8 13 10 12 18 27 28 24 21 20 19 20 18 15 13 12 9 10 9 9 8 7 6 4 6 7 7 6 6 6 7 9 8 6 5 4 3 9 10
15 13 11 11 11 8 6 7 6 9 8 11 8 12 18 23 26 24 24 20 20 21 21 18 14 9 6 6 7 10 10 6 5 4 4 6 7 7 7 9 9 8 7 6 6 5 6 9 10
16 14 10 8 7 3 3 4 5 11 12 9 8 12 16 22 28 27 27 24 20 17 16 18 15 11 8 6 9 13 11 9 6 6 4 4 5 5 6 7 8 9 5 6 6 6 8 8 9
16 13 13 8 5 3 4 3 5 8 13 12 11 10 15 22 26 28 29 26 22 20 16 13 11 11 10 8 8 10 11 10 6 5 6 5 4 5 6 6 5 6 4 7 3 3 6 9 10
14 16 13 10 6 6 7 4 4 8 15 17 16 14 13 20 24 25 27 27 23 20 18 15 10 10 12 11 9 10 8 7 7 7 8 7 6 4 4 5 6 6 5 9 6 5 7 13 14
9 12 13 9 7 5 6 3 7 1 10 18 19 15 16 14 21 23 23 23 22 21 20 16 12 9 10 12 12 11 11 8 8 7 7 5 5 5 5 3 4 5 7 6 9 8 11 15 14
12 13 11 10 9 8 6 4 7 5 2 10 18 19 17 18 17 21 23 25 24 22 22 20 16 10 10 11 13 13 12 11 9 8 6 6 5 5 6 5 4 5 7 7 10 11 13 13 13
17 12 8 7 7 6 11 6 4 6 7 4 4 14 23 22 23 21 23 22 25 26 23 20 19 15 11 11 12 13 14 13 11 9 9 8 6 6 8 7 7 6 7 8 8 12 13 12 15
19 18 10 11 9 9 13 9 5 7 7 8 4 3 11 21 28 24 18 20 22 26 25 23 18 17 15 12 10 11 15 15 14 12 11 10 9 9 9 11 9 8 7 7 10 10 12 13 16
18 17 13 6 9 14 7 8 9 3 4 5 5 2 2 10 12 23 23 22 20 19 23 22 22 22 19 17 12 10 12 15 15 13 13 14 13 12 10 12 11 10 9 8 8 10 12 12 15
17 18 11 7 9 10 5 6 3 4 7 11 9 9 7 3 9 13 22 26 25 24 18 20 21 21 21 19 17 13 12 13 16 17 16 15 16 16 14 12 13 13 12 11 10 10 10 11 12
13 14 10 14 5 7 7 5 1 3 4 2 7 8 8 5 3 16 20 22 26 25 25 19 22 24 24 23 20 18 15 13 15 18 18 17 17 18 18 16 14 14 14 13 13 12 12 12 13
9 12 14 12 7 6 5 6 5 3 3 4 3 2 6 2 3 11 20 18 21 23 25 28 25 25 27 24 21 21 18 17 16 17 18 20 19 19 19 20 18 17 16 15 15 14 15 15 14

GFSSGP_700_spd_096.txt.gz
Wind_Speed
4 3 4 4 4 4 4 3 8 12 13 10 19 15 15 13 7 8 26 26 24 22 20 18 15 14 13 12 11 11 10 8 7 6 6 7 7 7 7 10 11 11 11 11 11 12 13 13 13
4 4 4 4 5 9 6 6 13 8 12 23 18 18 8 8 3 25 27 27 23 19 17 15 14 13 12 12 12 11 9 8 7 8 7 8 9 8 7 8 9 10 10 11 11 12 13 13 13
4 3 3 2 2 6 7 9 11 14 24 16 19 12 12 5 18 27 26 26 21 18 16 14 13 12 12 12 11 10 8 7 6 7 8 9 8 7 7 9 9 9 9 10 11 12 10 11 12
7 3 2 4 5 6 9 13 14 24 19 17 15 15 5 15 25 24 25 24 20 17 15 13 12 12 12 10 10 10 8 7 6 7 8 8 8 7 7 7 9 10 10 10 10 11 10 10 10
3 4 4 5 7 10 13 15 17 21 14 16 11 10 9 22 26 24 24 22 18 15 13 13 13 12 10 10 10 10 9 11 10 10 9 8 8 8 7 6 8 10 10 11 10 10 9 8 10
3 5 4 6 9 11 15 18 18 14 15 14 6 10 17 23 24 25 23 21 18 13 11 13 11 10 10 9 11 10 10 11 13 13 11 10 9 8 8 7 10 12 12 13 12 10 8 8 8
4 3 3 6 8 10 16 16 17 15 19 13 7 11 22 24 25 24 22 21 18 14 12 12 10 9 10 10 11 10 11 11 12 12 11 11 10 9 11 11 15 16 16 15 13 10 8 7 8
5 2 2 1 6 9 15 14 13 14 17 12 9 8 21 24 25 24 22 19 18 15 13 11 10 10 10 10 12 11 12 10 12 13 12 11 10 11 12 14 17 17 16 15 12 10 8 7 8
7 2 2 1 2 10 19 15 17 14 13 12 12 11 23 24 24 24 22 20 19 18 14 11 10 10 10 11 11 10 12 12 12 13 13 11 10 12 13 15 16 17 16 14 12 10 8 8 9
5 1 4 5 3 10 21 21 11 14 11 10 11 14 28 25 24 22 21 20 19 17 14 12 11 10 11 11 10 10 11 13 11 12 12 12 11 12 13 14 15 15 15 13 13 11 9 8 9
5 5 6 12 13 15 17 14 17 10 10 11 9 19 29 23 22 20 20 19 17 15 15 12 12 11 11 12 10 10 10 11 11 12 11 11 12 12 12 13 14 14 14 15 12 11 9 7 9
7 8 5 8 11 6 5 15 17 14 13 5 12 24 25 22 21 21 21 20 16 14 14 13 12 11 11 13 13 11 9 9 10 10 10 10 12 12 12 11 13 12 13 14 12 9 7 8 9
9 6 4 6 7 8 11 14 19 15 9 6 16 28 25 21 20 20 21 20 17 14 12 13 12 11 11 11 11 16 14 12 8 8 7 9 10 12 11 10 12 12 14 13 12 11 9 9 9
11 7 4 5 6 6 8 14 14 13 11 6 18 28 27 21 21 22 21 20 17 15 13 12 12 11 11 11 12 12 10 11 9 6 5 9 9 10 10 12 13 12 13 12 10 9 10 9 10
10 6 5 6 7 6 8 12 15 11 10 8 20 26 25 23 20 19 20 19 16 15 14 11 12 11 11 10 9 9 9 11 7 6 5 8 8 7 8 12 10 12 12 10 11 9 8 8 8
11 9 10 5 9 7 9 11 15 13 14 10 19 26 25 23 20 19 19 19 17 16 13 12 11 11 10 10 9 9 8 9 7 7 6 5 8 9 10 11 11 11 11 8 8 6 6 5 6
16 15 10 6 11 8 8 11 15 16 15 11 15 23 25 24 23 20 19 19 18 16 14 13 12 12 10 9 8 7 7 8 7 6 5 5 7 7 8 11 12 11 10 8 7 6 6 6 6
21 12 11 9 12 10 7 10 12 9 11 16 14 17 23 27 25 21 19 19 18 18 17 15 13 10 10 9 7 7 6 6 6 6 4 5 7 7 7 9 11 11 10 8 7 4 7 8 8
17 14 12 10 11 11 9 6 6 7 9 11 16 15 18 24 25 23 21 19 19 20 19 16 13 11 7 8 7 7 7 5 4 5 5 5 7 6 7 10 10 11 8 7 6 5 8 8 8
17 16 14 10 12 9 6 6 6 7 9 10 10 16 20 21 26 27 23 21 18 20 21 18 16 12 7 8 8 11 8 4 3 4 4 4 6 6 7 8 11 10 8 8 7 7 8 9 8
18 17 14 10 9 7 8 7 5 8 9 10 8 9 16 20 24 27 25 23 20 20 22 20 16 12 9 7 9 9 7 4 3 2 3 3 4 6 6 8 9 8 7 9 7 8 8 6 8
19 15 13 10 12 13 16 4 7 6 8 9 11 11 14 20 21 24 24 24 22 19 20 21 18 15 12 9 9 9 8 6 6 3 2 2 4 5 5 5 5 6 7 10 6 8 9 11 7
11 16 13 12 13 7 17 16 5 11 10 5 5 11 11 15 21 21 24 24 21 21 21 19 18 16 14 11 10 10 8 7 6 4 4 1 2 2 3 4 3 4 5 10 7 6 12 14 10
10 14 14 13 14 15 15 16 8 5 4 6 5 8 10 13 15 21 22 23 24 23 22 21 18 15 14 13 12 10 9 9 8 8 6 4 2 2 4 4 3 4 5 8 10 9 13 15 14
15 20 17 14 12 11 15 11 9 6 6 6 10 16 17 16 17 18 22 25 26 27 24 23 20 16 13 12 13 12 12 10 9 9 9 6 6 4 4 5 5 3 4 5 10 12 14 14 14
23 24 17 12 13 15 10 9 8 7 8 10 9 13 20 20 20 21 20 22 24 26 23 23 19 17 14 11 10 12 14 13 12 11 10 9 7 6 5 7 6 6 6 6 7 11 14 14 13
24 23 13 8 11 14 19 11 11 7 6 11 10 8 9 16 22 24 23 23 24 25 25 24 19 17 16 12 10 9 11 14 14 13 12 11 8 8 6 8 9 8 7 7 9 9 11 12 13
14 19 16 15 13 14 15 17 12 7 4 8 9 8 7 7 17 20 20 27 25 25 27 27 25 23 20 19 16 12 10 11 14 16 14 13 12 12 8 8 9 10 10 9 9 9 10 10 11
16 15 17 14 10 15 10 10 9 9 10 10 11 7 7 7 14 18 14 24 27 27 27 25 25 25 22 22 24 21 16 12 12 14 16 15 15 14 12 11 10 10 11 12 12 11 11 11 12
18 11 16 19 16 16 9 9 11 12 11 11 7 8 7 6 11 22 24 24 23 32 31 29 28 27 26 26 26 25 23 21 17 14 15 18 17 17 16 15 14 13 12 13 14 14 13 13 13

GFSSGP_700_spd_102.txt.gz
Wind_Speed
2 3 5 5 4 3 3 13 14 19 20 22 17 14 10 10 11 18 23 20 21 20 18 14 13 11 10 9 8 8 7 6 7 7 7 8 10 11 10 10 11 14 15 16 17 18 18 18 18
2 3 3 1 5 9 15 12 18 17 20 15 18 15 10 14 4 30 26 22 22 19 17 13 12 12 11 11 10 9 8 8 8 9 9 9 9 10 10 9 10 13 13 16 16 17 19 18 18
3 4 4 2 2 8 20 12 17 19 19 16 11 18 13 25 28 25 26 23 21 19 15 13 12 12 12 10 10 8 9 10 10 11 10 10 10 10 10 10 10 12 12 14 15 16 18 18 16
4 8 7 4 13 16 24 17 23 20 18 8 6 21 27 22 23 25 23 15 17 17 15 13 12 12 10 10 9 8 8 10 11 11 11 9 10 10 10 10 11 11 11 13 14 14 15 15 15
7 5 5 8 19 19 22 21 17 18 16 13 9 30 25 21 21 27 16 11 15 17 14 13 12 11 11 10 10 11 11 12 12 11 10 10 10 11 12 12 12 11 10 11 12 14 15 16 15
5 6 5 10 15 18 21 20 14 20 14 12 19 29 24 21 27 24 18 12 9 12 13 14 12 10 11 11 11 15 18 15 14 12 10 10 9 10 11 13 13 12 11 11 12 14 14 13 13
6 4 6 8 14 21 20 14 19 14 14 15 20 26 26 25 26 22 17 11 9 7 13 13 12 11 11 12 13 14 16 16 14 13 12 10 10 9 11 13 13 13 13 11 13 13 13 13 13
5 10 5 4 10 13 26 20 17 15 21 16 13 23 30 28 26 20 6 11 7 7 14 13 12 12 11 12 13 13 13 14 15 14 14 13 12 10 14 15 14 13 13 12 12 13 13 14 14
11 4 3 6 11 12 20 23 23 12 16 11 7 21 27 29 26 17 20 18 7 6 14 13 11 12 11 11 12 13 13 13 15 14 14 14 13 15 14 16 14 14 12 11 11 12 12 14 16
16 4 3 3 4 10 19 19 22 12 16 13 22 26 29 29 26 21 13 8 9 11 8 12 10 11 10 12 12 13 12 12 13 13 9 12 17 17 13 15 15 14 13 12 10 10 11 12 14
16 5 7 10 7 13 22 18 23 19 15 12 29 29 29 27 24 21 13 10 9 10 6 3 8 8 13 14 15 11 11 10 11 8 11 14 14 15 15 13 14 12 10 13 11 10 11 17 14
14 5 5 9 11 19 19 17 21 18 18 19 21 27 28 25 22 20 17 12 10 14 8 8 9 9 10 15 15 13 10 11 10 9 12 11 12 8 9 12 13 6 9 10 6 14 12 10 15
12 5 4 5 9 14 16 17 17 17 24 22 18 27 26 24 22 20 17 16 13 3 4 10 9 9 8 23 22 9 15 10 8 6 7 11 11 10 13 12 10 12 10 8 9 15 15 11 11
10 6 5 9 6 4 13 18 18 19 17 19 26 27 25 23 21 21 20 18 20 11 9 11 11 9 7 9 9 10 10 11 7 10 6 8 11 11 10 11 12 14 9 4 12 15 16 9 11
14 11 7 10 12 15 9 16 19 19 19 18 27 28 24 23 22 20 20 18 20 13 8 9 10 10 10 15 11 3 24 9 10 8 7 9 9 9 10 11 11 14 11 12 14 13 16 14 11
17 12 15 19 14 13 6 15 21 28 18 23 29 27 25 24 21 21 17 14 16 12 7 8 10 12 11 12 12 5 16 5 9 9 11 10 6 8 12 10 11 12 12 11 10 11 17 19 18
18 21 21 17 14 17 12 16 21 26 29 27 30 27 25 24 22 21 18 17 16 12 9 7 9 11 12 9 14 7 6 9 7 7 11 10 8 7 8 8 11 8 9 11 12 12 17 15 7
23 23 21 18 25 13 13 12 20 22 30 31 29 27 26 26 22 22 19 16 16 13 12 9 9 10 11 12 12 11 7 6 6 6 9 8 8 7 8 9 10 8 12 10 5 8 17 8 18
22 16 16 9 23 17 8 9 21 27 17 28 30 28 26 25 24 20 20 17 17 16 14 11 9 9 10 12 12 13 10 7 5 9 9 8 8 5 8 10 9 6 6 7 7 13 12 16 17
23 15 13 11 23 11 9 18 26 26 25 33 32 31 28 27 27 21 21 19 18 17 16 14 11 11 10 12 14 13 10 8 7 9 8 8 7 5 8 13 11 9 9 5 5 14 16 22 20
23 23 17 24 16 13 13 20 15 23 30 36 31 28 33 31 25 22 24 21 21 18 18 16 13 12 10 12 11 9 10 4 5 7 7 7 7 8 6 10 10 9 8 8 11 16 15 17 18
21 16 22 29 15 13 14 9 17 23 34 27 31 32 28 33 30 23 22 21 17 17 18 18 16 15 10 9 12 16 13 12 7 4 9 7 7 8 8 10 9 4 7 9 11 16 13 18 15
25 14 14 22 14 28 19 8 14 20 18 17 23 23 26 31 32 30 20 24 20 15 17 20 19 16 14 13 13 15 12 13 11 7 6 7 5 8 10 8 8 8 6 3 10 16 17 20 15
21 14 14 10 15 17 27 19 14 20 5 12 11 14 22 27 32 30 27 21 26 20 15 19 21 19 16 15 16 18 16 11 12 8 8 10 6 5 7 10 8 7 8 4 7 14 17 19 17
22 14 14 12 12 13 27 14 9 25 10 3 23 24 22 22 24 30 25 22 32 21 19 14 21 22 20 18 17 17 14 15 12 9 8 6 6 11 9 7 6 6 4 4 5 9 14 16 17
21 24 18 14 12 15 21 13 13 21 27 9 17 23 22 19 24 29 30 32 25 25 22 18 15 19 20 19 17 16 15 14 12 10 11 12 6 8 8 6 4 5 4 3 5 6 10 12 11
24 26 24 21 24 19 14 19 16 12 14 27 27 23 21 22 18 11 32 21 26 29 27 21 16 18 17 17 17 17 16 14 13 15 13 8 2 6 6 4 6 5 5 5 4 4 5 6 8
15 17 27 30 14 14 15 20 19 21 16 27 30 27 26 23 21 23 29 33 31 33 30 30 27 21 19 17 16 15 15 15 14 13 11 10 11 9 10 8 8 5 4 5 5 5 4 5 7
16 15 21 26 27 10 11 7 23 19 16 17 21 21 24 28 24 28 32 35 35 35 37 29 32 24 25 21 19 17 15 14 13 13 13 12 13 15 7 12 5 4 5 5 6 5 4 5 5
23 21 21 24 24 20 7 3 13 16 16 16 16 18 17 18 25 26 29 30 29 32 16 21 26 29 35 26 24 21 17 16 14 12 13 14 13 12 9 9 4 7 6 5 6 7 6 6 7

GFSSGP_700_spd_105.txt.gz
Wind_Speed
2 3 6 10 5 3 9 13 29 29 22 17 17 19 19 12 10 14 26 23 20 19 18 16 12 10 10 10 11 10 10 10 11 13 15 19 14 14 15 18 19 20 20 21 22 21 21 21 20
3 4 6 4 3 8 14 16 28 23 29 29 16 17 11 16 7 28 27 23 20 18 16 13 11 11 11 10 10 10 11 11 12 14 15 15 14 12 14 16 17 18 18 20 21 21 20 20 19
3 3 5 1 9 16 20 25 26 18 14 13 13 7 13 15 18 27 25 23 20 17 15 13 12 12 11 10 9 10 13 14 14 14 14 14 13 13 14 14 15 16 18 18 19 20 19 19 19
2 3 0 1 17 18 24 23 24 15 9 5 8 24 23 15 21 27 25 21 18 17 16 14 13 11 10 9 9 11 13 15 14 14 13 13 13 14 14 13 14 15 17 18 18 18 18 18 18
9 9 10 21 24 26 24 25 20 20 13 11 16 32 22 11 20 24 25 22 16 17 15 13 14 12 11 10 10 14 15 16 14 13 13 13 13 14 15 14 13 15 16 18 16 18 17 17 18
10 8 10 24 22 29 20 21 17 14 11 17 21 27 21 14 15 13 21 20 15 13 14 13 13 13 13 14 17 19 17 16 14 12 12 12 12 14 15 14 13 15 17 17 17 18 18 17 18
10 12 11 21 28 24 20 23 20 13 11 19 23 30 25 22 20 10 12 13 14 12 12 11 12 13 13 14 17 18 17 16 15 13 12 12 12 14 15 16 15 15 16 16 17 17 19 19 18
10 5 5 13 27 24 20 20 21 11 24 16 10 24 34 31 20 11 3 13 15 13 12 11 13 13 12 14 15 14 16 16 16 16 15 14 13 16 17 17 16 16 15 14 15 16 18 19 18
14 12 14 5 12 22 21 20 23 20 29 10 7 21 33 29 20 15 11 10 7 16 13 13 13 13 13 13 14 13 14 15 16 18 17 16 20 18 19 18 17 16 15 15 14 15 17 19 20
11 8 15 3 7 9 22 20 19 20 18 16 22 24 32 27 19 18 4 9 14 17 14 12 13 12 13 14 14 13 14 13 14 16 17 18 22 19 18 18 16 14 14 15 14 13 15 20 21
14 11 1 6 5 13 23 25 17 17 13 12 19 30 35 24 11 7 6 3 1 10 11 11 12 12 12 15 12 13 12 13 14 15 17 18 20 20 19 17 16 15 14 14 14 13 16 20 20
15 13 4 6 5 20 26 28 21 19 19 24 10 31 36 23 16 15 11 9 8 9 12 7 11 13 13 14 12 14 12 13 13 13 16 18 13 15 18 17 13 13 11 12 12 14 21 16 13
17 11 9 10 9 17 20 19 21 15 23 26 15 29 32 27 18 13 13 9 10 7 11 8 9 6 15 17 13 14 13 15 11 10 14 15 14 14 16 15 13 16 14 13 14 13 16 15 13
13 14 15 7 6 6 11 18 21 22 29 22 16 29 30 24 24 20 17 10 6 8 13 11 9 20 17 16 13 14 10 16 13 11 10 13 15 14 13 15 14 18 17 16 21 16 20 20 15
12 6 11 11 3 8 14 18 18 23 27 28 25 29 30 25 24 21 18 11 10 13 12 10 8 11 16 14 17 13 11 13 13 12 12 10 14 12 13 13 17 16 17 13 14 15 16 20 16
12 15 18 19 13 7 8 21 24 26 31 30 30 28 28 28 27 21 16 13 11 8 9 11 8 7 12 15 15 15 12 11 13 13 12 11 12 13 12 18 17 18 20 17 13 20 22 24 21
15 22 18 19 13 8 8 17 25 30 22 34 33 29 29 26 25 21 20 16 19 14 11 11 13 11 8 14 13 14 12 13 12 13 11 13 11 9 10 13 15 13 11 17 19 20 19 20 15
15 22 16 21 27 16 16 13 18 34 23 35 35 31 28 28 24 22 22 15 17 14 11 11 14 13 10 12 13 14 11 14 12 10 11 9 11 10 11 12 11 12 19 14 21 18 16 13 16
17 19 16 7 23 23 14 13 17 34 33 34 34 30 28 28 25 23 23 17 16 15 13 11 14 13 11 10 13 15 15 13 13 9 11 9 10 11 11 11 13 15 10 15 15 19 21 17 19
21 18 13 11 23 11 15 15 20 25 30 31 33 30 31 30 26 23 21 18 16 15 14 12 13 14 12 12 13 14 11 13 14 11 9 8 11 10 10 11 12 12 11 14 14 20 20 20 20
22 21 18 22 15 17 19 16 27 32 24 37 31 34 32 28 28 24 20 18 14 16 16 13 13 13 13 11 13 12 12 12 9 11 9 8 8 9 10 9 10 12 11 14 15 19 20 19 20
23 20 26 25 14 14 14 9 21 27 30 28 30 39 35 30 30 27 22 20 16 12 16 15 14 13 11 9 14 13 12 10 11 10 10 8 8 10 9 9 7 7 10 13 17 20 22 19 20
21 16 10 14 17 17 28 7 20 26 23 27 38 40 33 35 33 28 24 21 18 8 13 15 15 14 11 12 13 13 12 10 9 11 11 11 8 9 10 9 9 9 9 10 15 21 21 23 22
15 18 9 13 10 8 25 12 17 30 26 36 31 31 33 32 35 29 28 14 15 7 6 11 16 14 12 11 14 14 11 11 9 10 11 10 11 10 8 7 9 10 9 8 12 15 21 20 26
17 15 8 3 7 14 28 20 5 29 21 6 33 31 34 35 31 32 27 23 18 20 10 5 14 17 15 12 12 14 12 12 10 8 9 8 8 12 11 10 8 5 8 8 10 12 19 18 20
20 19 11 4 6 8 20 11 15 23 21 24 16 25 37 28 35 40 32 32 27 21 16 7 4 18 16 14 12 12 12 11 8 11 9 11 8 13 11 10 10 7 5 7 10 11 15 17 13
19 19 26 20 24 8 9 15 16 26 28 18 22 13 27 32 39 41 36 31 29 24 21 13 6 6 15 15 16 15 12 12 12 12 11 9 9 9 11 10 10 9 7 6 8 10 11 14 14
19 10 9 13 2 2 8 12 11 21 30 30 19 22 13 22 28 33 38 32 31 32 26 22 20 13 6 11 14 16 15 14 14 11 9 12 10 5 7 6 8 9 9 6 7 8 11 13 14
19 18 8 9 8 4 5 5 12 22 21 24 29 26 27 24 23 23 27 35 35 32 33 26 25 23 20 19 19 16 16 15 15 13 13 14 11 11 7 10 7 6 8 8 6 6 7 9 9
16 15 12 12 12 6 9 7 15 20 12 11 17 24 28 28 26 23 23 22 25 33 36 33 24 24 20 22 20 20 19 17 15 15 15 16 12 11 10 10 6 5 6 7 7 7 7 6 5

GFSSGP_700_spd_108.txt.gz
Wind_Speed
3 4 7 7 8 6 10 10 23 20 21 17 19 18 14 9 17 6 25 21 21 18 18 16 14 13 12 11 11 11 12 14 15 17 22 17 18 18 20 21 21 21 19 21 20 21 21 22 20
3 3 5 9 8 14 14 22 29 27 21 24 18 13 14 12 6 23 26 23 20 17 15 13 12 12 12 12 12 11 12 14 15 18 19 15 16 17 18 20 20 20 20 20 20 21 22 22 18
2 4 5 14 10 14 26 27 27 21 21 18 21 22 13 7 16 24 22 23 20 17 14 13 13 12 11 10 11 12 12 14 14 15 15 14 13 15 17 19 19 18 18 19 19 21 22 21 19
5 7 15 16 15 24 26 28 22 23 17 13 14 16 16 19 24 22 23 21 17 15 14 13 12 11 10 9 12 13 15 15 15 15 15 15 14 15 16 18 18 19 18 19 19 20 20 21 19
4 9 20 25 27 29 20 15 14 14 13 7 10 21 26 24 22 22 21 18 14 14 14 12 12 11 9 10 14 15 15 15 15 14 15 16 15 15 16 18 18 17 17 19 19 19 20 20 20
11 15 25 22 24 21 24 15 15 12 6 7 8 27 25 24 23 23 20 18 15 12 13 11 12 13 13 16 17 16 14 13 14 15 14 15 15 15 16 17 17 16 17 18 20 20 19 20 20
16 8 9 19 26 22 23 15 11 10 5 9 12 27 29 23 24 22 18 17 15 14 12 12 13 14 16 18 16 16 14 13 13 14 15 15 16 16 18 17 17 16 16 17 19 19 18 21 20
8 8 15 16 22 21 20 16 12 3 14 18 12 21 28 29 24 18 16 15 15 14 13 11 13 14 14 16 15 15 14 14 14 15 16 17 18 18 18 18 17 16 16 18 18 18 18 17 20
11 8 10 10 15 16 26 20 21 13 15 15 9 12 25 22 19 17 15 14 13 14 14 12 12 14 14 15 16 15 14 16 16 15 16 21 20 20 19 18 16 15 15 16 17 17 19 19 24
3 4 15 12 12 13 12 17 16 11 16 20 25 25 24 19 14 15 8 9 12 13 14 13 11 12 14 15 16 16 14 12 14 17 20 24 23 21 20 18 15 14 13 13 15 16 18 20 23
3 3 6 4 9 16 20 19 18 24 25 16 18 29 25 20 11 9 14 9 11 9 10 12 10 11 15 15 13 15 14 13 15 17 20 22 23 21 19 16 16 15 12 11 13 14 17 17 21
4 9 8 4 3 20 22 18 22 20 12 15 18 23 20 22 13 8 6 7 11 13 10 10 10 10 11 12 12 13 14 15 17 19 21 19 19 20 19 17 17 15 12 13 13 16 16 16 20
7 12 7 7 3 19 23 19 17 20 12 21 28 22 19 17 11 10 6 5 11 9 7 9 10 10 8 9 10 11 11 17 17 14 16 19 17 18 19 14 15 13 13 17 13 14 17 17 20
11 19 11 6 8 12 21 21 18 18 21 24 34 24 20 16 13 9 4 1 1 7 8 9 5 12 14 11 11 9 8 14 16 13 13 15 17 15 14 13 15 15 17 15 16 15 19 19 17
6 18 8 12 11 12 17 21 18 21 29 23 34 30 21 20 15 8 4 2 2 10 11 12 13 18 10 7 11 10 10 13 15 13 11 14 15 14 15 17 16 17 20 17 15 17 18 19 18
11 13 9 13 13 13 15 19 22 30 30 29 29 32 27 20 21 11 11 7 1 10 13 12 11 16 14 9 17 13 14 12 13 14 12 12 14 13 16 18 18 20 18 14 15 17 21 19 21
14 14 17 3 20 17 15 18 26 29 31 36 33 32 26 18 13 18 14 10 7 10 13 12 13 14 11 10 16 11 12 9 11 13 13 11 14 12 16 17 19 17 15 16 20 20 22 21 20
8 2 15 18 21 22 11 16 27 29 33 33 34 35 28 26 27 22 14 14 9 11 10 10 13 15 13 9 12 15 13 12 11 11 12 11 12 10 11 14 16 16 14 17 18 17 18 18 19
11 5 4 13 16 19 14 14 24 29 27 36 34 34 29 25 18 22 19 15 11 12 12 11 11 15 11 9 9 12 13 12 11 9 11 11 11 11 11 12 15 22 15 18 16 14 14 19 19
13 11 9 6 11 13 14 16 27 32 26 29 34 33 27 27 28 23 21 16 11 15 11 12 10 11 13 11 11 13 13 11 12 11 10 10 13 14 13 15 18 17 17 16 18 16 15 20 22
13 17 17 18 17 9 7 11 19 26 24 30 37 36 37 32 31 28 21 13 12 17 12 12 13 11 11 11 11 13 11 11 8 11 11 9 10 12 13 14 13 12 14 18 21 18 20 19 21
19 11 19 21 20 10 9 5 20 30 27 34 38 37 38 36 31 28 22 15 11 15 15 14 13 12 11 12 14 9 9 8 9 11 11 10 11 12 13 12 10 10 13 18 20 21 21 19 17
19 16 13 22 17 16 19 6 7 29 30 40 34 35 38 41 36 30 25 18 8 10 16 15 15 13 10 12 15 12 11 9 9 9 10 10 10 12 13 11 11 12 11 15 16 21 19 19 17
16 11 15 17 14 8 14 16 11 30 39 33 38 39 33 43 38 33 26 16 7 13 12 14 15 13 12 13 15 15 13 11 9 9 8 9 9 9 13 13 10 13 12 14 15 21 21 21 19
16 23 6 2 2 7 9 18 13 26 30 29 26 36 34 43 40 37 33 23 12 15 14 6 12 14 13 12 14 15 12 11 10 9 9 9 8 10 12 14 14 11 10 10 15 20 22 23 23
16 14 8 4 4 8 6 11 15 21 24 18 26 35 40 34 39 39 33 28 18 17 15 7 3 15 15 12 13 15 12 10 12 10 10 9 9 8 9 10 11 13 13 11 14 19 21 21 26
19 9 9 12 10 5 10 6 8 28 33 22 22 33 36 39 35 40 41 35 28 25 18 12 7 13 17 13 12 14 14 12 10 13 11 8 8 10 8 7 8 10 11 13 13 16 23 20 18
19 11 6 7 4 4 7 15 12 22 24 24 26 14 16 8 39 36 42 40 31 29 29 23 17 16 21 20 19 18 17 17 16 14 12 10 12 11 10 8 7 7 9 11 11 12 16 20 18
12 13 6 3 3 5 4 2 12 27 29 26 23 18 14 13 18 42 37 35 31 34 26 27 26 22 23 22 19 19 20 20 17 15 14 13 15 10 9 9 8 9 8 8 10 10 11 14 16
5 7 12 2 2 3 8 4 8 18 26 21 21 19 19 17 20 20 30 19 23 23 30 34 31 29 19 17 18 18 18 18 18 17 16 14 14 13 12 11 12 12 11 10 10 11 13 13 12

GFSSGP_700_spd_114.txt.gz
Wind_Speed
3 7 8 4 4 5 9 10 15 23 24 21 18 12 10 3 8 6 18 17 15 14 14 13 12 11 11 10 11 14 15 17 18 19 18 18 18 17 17 17 18 18 19 19 19 20 20 19 19
3 6 9 6 5 11 10 17 21 22 24 23 12 10 5 12 5 15 18 18 16 14 12 11 11 9 10 10 10 12 14 16 17 18 17 18 18 18 18 18 18 19 19 20 20 19 18 18 18
5 6 10 7 7 7 16 20 23 20 24 18 11 9 7 2 5 17 17 15 15 13 11 11 11 10 9 11 10 11 14 19 17 16 17 18 17 17 18 18 19 19 20 20 19 19 18 18 17
2 10 12 6 10 14 21 22 21 21 21 13 6 7 4 3 17 16 17 16 14 12 11 11 11 10 9 10 11 12 13 16 15 15 16 17 16 16 17 18 18 18 19 21 21 18 17 16 16
8 14 9 14 12 18 20 19 21 19 16 12 7 3 11 20 17 16 16 16 13 12 10 9 10 9 9 11 12 12 12 13 12 13 14 16 15 15 16 17 18 18 18 18 17 16 15 16 15
8 15 11 15 17 23 21 17 14 15 13 10 12 11 20 18 16 17 15 16 15 11 9 8 8 10 12 12 14 13 12 13 14 15 15 15 14 14 14 14 16 17 17 16 15 16 15 16 15
17 9 10 15 18 23 23 21 20 15 11 12 11 17 21 23 19 16 16 16 15 13 11 9 10 13 13 13 13 12 11 12 13 15 15 15 14 13 13 13 14 15 16 15 15 16 17 15 15
9 4 9 11 20 21 22 22 18 14 14 7 13 17 23 23 21 17 16 15 14 14 12 11 12 15 13 13 11 11 11 12 12 15 17 16 15 13 13 13 13 14 15 14 14 15 16 15 16
9 15 20 14 21 23 23 17 11 9 14 15 19 17 19 21 19 16 14 13 13 13 13 13 13 13 13 12 11 10 11 12 13 15 16 16 15 13 13 12 12 13 13 14 14 14 15 15 16
8 15 20 14 12 19 15 14 19 18 19 17 15 22 22 18 15 12 10 10 11 12 12 13 13 12 11 11 11 12 11 13 13 15 16 17 16 14 13 13 12 11 12 13 15 16 16 15 16
13 18 9 3 8 11 13 20 20 14 15 7 11 21 21 22 19 14 12 11 11 11 12 12 12 12 11 10 10 8 10 10 14 16 17 17 16 15 14 13 12 10 11 14 16 16 16 16 17
8 9 5 3 6 14 14 24 16 15 12 10 15 22 21 19 19 16 12 9 10 11 12 11 12 12 10 9 9 10 12 14 16 19 19 18 17 15 14 11 9 9 10 12 14 14 16 17 18
6 2 2 4 9 16 17 22 22 18 15 23 19 20 21 20 18 18 12 9 10 10 11 12 13 11 11 9 8 10 13 16 18 20 19 18 17 15 14 12 10 9 10 10 14 15 14 16 18
5 4 3 3 2 18 22 27 21 20 22 25 22 21 20 16 16 19 15 8 7 8 10 11 12 12 11 11 9 10 14 15 17 19 19 18 16 15 14 9 9 10 11 12 12 13 15 17 18
4 4 7 5 5 10 16 18 19 23 24 32 27 21 19 18 18 16 13 11 8 7 9 9 11 9 11 12 10 11 11 11 13 17 18 18 16 13 12 9 10 10 10 12 14 15 15 17 19
6 7 10 7 8 6 13 9 17 23 25 28 25 23 19 20 16 13 12 13 9 6 8 8 12 11 11 12 11 12 10 11 10 15 16 16 14 12 11 9 12 12 12 13 16 15 17 18 21
12 12 7 6 9 6 11 7 16 24 23 30 23 22 22 19 16 12 12 8 9 7 6 9 12 10 9 11 10 12 12 11 12 13 14 14 12 11 12 9 12 13 12 12 15 16 17 19 21
12 7 6 9 12 13 11 6 13 20 27 29 23 25 21 19 16 11 11 7 6 4 4 8 11 8 7 11 11 10 11 12 12 12 12 13 12 11 12 13 13 12 11 12 14 15 17 18 19
9 6 3 5 13 9 10 12 11 18 30 32 30 26 23 17 13 13 12 7 4 2 3 6 8 9 10 10 6 8 9 11 12 12 13 12 13 12 13 14 14 12 13 13 13 14 15 17 17
15 4 3 3 5 8 13 10 14 19 27 33 32 31 23 22 18 16 14 8 3 1 4 6 8 9 9 11 8 10 9 10 11 12 13 13 12 15 14 15 14 11 15 13 14 13 14 16 16
19 11 6 4 5 6 9 6 12 22 25 30 38 33 29 26 20 20 17 8 3 1 4 6 9 10 10 9 8 8 8 7 7 9 12 12 13 15 15 14 13 11 17 13 14 13 15 17 16
24 18 9 8 6 6 12 6 4 15 26 28 37 32 28 28 24 16 20 9 2 2 7 9 9 9 10 11 10 9 9 8 7 8 9 12 14 15 15 14 14 11 14 14 15 13 14 16 17
19 19 11 10 10 10 15 5 12 20 27 31 30 41 34 25 29 22 18 9 5 3 7 10 11 10 9 10 12 11 7 6 7 5 7 10 15 15 14 15 15 12 13 13 13 14 15 16 16
10 9 4 6 14 7 15 12 5 14 24 27 29 40 35 30 28 25 26 22 15 8 7 13 13 12 11 12 13 10 9 9 8 7 5 7 12 16 17 17 16 14 13 13 17 16 16 16 16
12 9 5 3 4 6 10 11 19 5 3 20 27 31 30 26 32 29 31 24 19 12 11 12 15 12 12 11 12 13 11 10 10 8 6 6 8 11 14 14 13 13 13 15 17 19 20 18 16
14 15 9 5 5 4 7 8 10 11 16 16 21 24 29 27 33 33 31 29 26 16 13 13 14 13 12 12 11 14 12 11 9 10 8 7 8 10 13 13 11 11 11 14 18 17 20 20 19
17 22 19 4 5 4 6 9 9 9 12 19 25 33 26 21 31 38 36 30 28 23 17 15 11 8 14 13 12 12 14 12 12 10 10 9 9 10 11 11 11 10 9 9 14 17 18 22 20
11 14 16 12 6 4 5 6 9 6 17 20 28 36 34 14 18 28 35 36 33 27 26 21 16 11 12 16 15 14 15 14 14 14 11 10 11 11 11 11 11 10 10 10 11 15 17 19 19
13 17 13 15 7 7 4 6 10 10 15 21 26 23 30 35 26 13 28 33 39 34 31 26 20 18 15 18 19 17 17 19 16 13 13 11 10 13 10 9 9 9 9 8 8 10 14 18 19
11 12 17 17 8 7 5 5 8 12 15 18 22 17 19 24 27 27 28 24 39 47 33 32 27 28 25 21 24 22 21 20 19 16 14 15 14 13 10 12 12 12 11 10 8 8 9 14 17